[[{"header":{"parameterUnit":"m.s-1","parameterCategory":1,"la1":31.0,"la2":29.5877,"lo1":-88.7671,"lo2":-86.6584,"dy":0.0162,"dx":0.0185,"nx":115,"ny":88,"refTime":"2024-04-18T18:00:00:Z","depth":0,"parameterNumber":2,"parameterNumberName":"U-component_of_WINDS"},"data":[0.0,0.0,0.0,0.0,0.0,0.0,0.0,0.0,0.0,0.0,0.0,0.0,0.0,0.0,0.0,0.0,0.0,0.0,0.0,0.0,0.0,0.0,0.0,0.0,0.0,0.0,0.0,0.0,0.0,0.0,0.0,0.0,0.0,0.0,0.0,0.0,0.0,0.0,0.0,0.0,0.0,0.0,0.0,0.0,0.0,0.0,0.0,0.0,0.0,0.0,0.0,0.0,0.0,0.0,0.0,0.0,0.0,0.0,0.0,0.0,0.0,0.0,0.0,0.0,0.0,0.0,0.0,0.0,0.0,0.0,0.0,0.0,0.0,0.0,0.0,0.0,0.0,0.0,0.0,0.0,0.0,0.0,0.0,0.0,0.0,0.0,0.0,0.0,0.0,0.0,0.0,0.0,0.0,0.0,0.0,0.0,0.0,0.0,0.0,0.0,0.0,0.0,0.0,0.0,0.0,0.0,0.0,0.0,0.0,0.0,0.0,0.0,0.0,0.0,0.0,0.0,0.0,0.0,0.0,0.0,0.0,0.0,0.0,0.0,0.0,0.0,0.0,0.0,0.0,0.0,0.0,0.0,0.0,0.0,0.0,0.0,0.0,0.0,0.0,0.0,0.0,0.0,0.0,0.0,0.0,0.0,0.0,0.0,0.0,0.0,0.0,0.0,0.0,0.0,0.0,0.0,0.0,0.0,0.0,0.0,0.0,0.0,0.0,0.0,0.0,0.0,0.0,0.0,0.0,0.0,0.0,0.0,0.0,0.0,0.0,0.0,0.0,0.0,0.0,0.0,0.0,0.0,0.0,0.0,0.0,0.0,0.0,0.0,0.0,0.0,0.0,0.0,0.0,0.0,0.0,0.0,0.0,0.0,0.0,0.0,0.0,0.0,0.0,0.0,0.0,0.0,0.0,0.0,0.0,0.0,0.0,0.0,0.0,0.0,0.0,0.0,0.0,0.0,0.0,0.0,0.0,0.0,0.0,0.0,0.0,0.0,0.0,0.0,0.0,0.0,0.0,0.0,0.0,0.0,0.0,0.0,0.0,0.0,0.0,0.0,0.0,0.0,0.0,0.0,0.0,0.0,0.0,0.0,0.0,0.0,0.0,0.0,0.0,0.0,0.0,0.0,0.0,0.0,0.0,0.0,0.0,0.0,0.0,0.0,0.0,0.0,0.0,0.0,0.0,0.0,0.0,0.0,0.0,0.0,0.0,0.0,0.0,0.0,0.0,0.0,0.0,0.0,0.0,0.0,0.0,0.0,0.0,0.0,0.0,0.0,0.0,0.0,0.0,0.0,0.0,0.0,0.0,0.0,0.0,0.0,0.0,0.0,0.0,0.0,0.0,0.0,0.0,0.0,0.0,0.0,0.0,0.0,0.0,0.0,0.0,0.0,0.0,0.0,0.0,0.0,0.0,0.0,0.0,0.0,0.0,0.0,0.0,0.0,0.0,0.0,0.0,0.0,0.0,0.0,0.0,0.0,0.0,0.0,0.0,0.0,0.0,0.0,0.0,0.0,0.0,0.0,0.0,0.0,0.0,0.0,0.0,0.0,0.0,0.0,0.0,0.0,0.0,0.0,0.0,0.0,0.0,0.0,0.0,0.0,0.0,0.0,0.0,0.0,0.0,0.0,0.0,0.0,0.0,0.0,0.0,0.0,0.0,0.0,0.0,0.0,0.0,0.0,0.0,0.0,0.0,0.0,0.0,0.0,0.0,0.0,0.0,0.0,0.0,0.0,0.0,0.0,0.0,0.0,0.0,0.0,0.0,0.0,0.0,0.0,0.0,0.0,0.0,0.0,0.0,0.0,0.0,0.0,0.0,0.0,0.0,0.0,0.0,0.0,0.0,0.0,0.0,0.0,0.0,0.0,0.0,0.0,0.0,0.0,0.0,0.0,0.0,0.0,0.0,0.0,0.0,0.0,0.0,0.0,0.0,0.0,0.0,0.0,0.0,0.0,0.0,0.0,0.0,0.0,0.0,0.0,0.0,0.0,0.0,0.0,0.0,0.0,0.0,0.0,0.0,0.0,0.0,0.0,0.0,0.0,0.0,0.0,0.0,0.0,0.0,0.0,0.0,0.0,0.0,0.0,0.0,0.0,0.0,0.0,0.0,0.0,0.0,0.0,0.0,0.0,0.0,0.0,0.0,0.0,0.0,0.0,0.0,0.0,0.0,0.0,0.0,0.0,0.0,0.0,0.0,0.0,0.0,0.0,0.0,0.0,0.0,0.0,0.0,0.0,0.0,0.0,0.0,0.0,0.0,0.0,0.0,0.0,0.0,0.0,0.0,0.0,0.0,0.0,0.0,0.0,0.0,0.0,0.0,0.0,0.0,0.0,0.0,0.0,0.0,0.0,0.0,0.0,0.0,0.0,0.0,0.0,0.0,0.0,0.0,0.0,0.0,0.0,0.0,0.0,0.0,0.0,0.0,0.0,0.0,0.0,0.0,0.0,0.0,0.0,0.0,0.0,0.0,0.0,0.0,0.0,0.0,0.0,0.0,0.0,0.0,0.0,0.0,0.0,0.0,0.0,0.0,0.0,0.0,0.0,0.0,0.0,0.0,0.0,0.0,0.0,0.0,0.0,0.0,0.0,0.0,0.0,0.0,0.0,0.0,0.0,0.0,0.0,0.0,0.0,0.0,0.0,0.0,0.0,0.0,0.0,0.0,0.0,0.0,0.0,0.0,0.0,0.0,0.0,0.0,0.0,0.0,0.0,0.0,0.0,0.0,0.0,0.0,0.0,0.0,0.0,0.0,0.0,0.0,0.0,0.0,0.0,0.0,0.0,0.0,0.0,0.0,0.0,0.0,0.0,0.0,0.0,0.0,0.0,0.0,0.0,0.0,0.0,0.0,0.0,0.0,0.0,0.0,0.0,0.0,0.0,0.0,0.0,0.0,0.0,0.0,0.0,0.0,0.0,0.0,0.0,0.0,0.0,0.0,0.0,0.0,0.0,0.0,0.0,0.0,0.0,0.0,0.0,0.0,0.0,0.0,0.0,0.0,0.0,0.0,0.0,0.0,0.0,0.0,0.0,0.0,0.0,0.0,0.0,0.0,0.0,0.0,0.0,0.0,0.0,0.0,0.0,0.0,0.0,0.0,0.0,0.0,0.0,0.0,0.0,0.0,0.0,0.0,0.0,0.0,0.0,0.0,0.0,0.0,0.0,0.0,0.0,0.0,0.0,0.0,0.0,0.0,0.0,0.0,0.0,0.0,0.0,0.0,0.0,0.0,0.0,0.0,0.0,0.0,0.0,0.0,0.0,0.0,0.0,0.0,0.0,0.0,0.0,0.0,0.0,0.0,0.0,0.0,0.0,0.0,0.0,0.0,0.0,0.0,0.0,0.0,0.0,0.0,0.0,0.0,0.0,0.0,0.0,0.0,0.0,0.0,0.0,0.0,0.0,0.0,0.0,0.0,0.0,0.0,0.0,0.0,0.0,0.0,0.0,0.0,0.0,0.0,0.0,0.0,0.0,0.0,0.0,0.0,0.0,0.0,0.0,0.0,0.0,0.0,0.0,0.0,0.0,0.0,0.0,0.0,0.0,0.0,0.0,0.0,0.0,0.0,0.0,0.0,0.0,0.0,0.0,0.0,0.0,0.0,0.0,0.0,0.0,0.0,0.0,0.0,0.0,0.0,0.0,0.0,0.0,0.0,0.0,0.0,0.0,0.0,0.0,0.0,0.0,0.0,0.0,0.0,0.0,0.0,0.0,0.0,0.0,0.0,0.0,0.0,0.0,0.0,0.0,0.0,0.0,0.0,0.0,0.0,0.0,0.0,0.0,0.0,0.0,0.0,0.0,0.0,0.0,0.0,0.0,0.0,0.0,0.0,0.0,0.0,0.0,0.0,0.0,0.0,0.0,0.0,0.0,0.0,0.0,0.0,0.0,0.0,0.0,0.0,0.0,0.0,0.0,0.0,0.0,0.0,0.0,0.0,0.0,0.0,0.0,0.0,0.0,0.0,0.0,0.0,0.0,0.0,0.0,0.0,0.0,0.0,0.0,0.0,0.0,0.0,0.0,0.0,0.0,0.0,0.0,0.0,0.0,0.0,0.0,0.0,0.0,0.0,0.0,0.0,0.0,0.0,0.0,0.0,0.0,0.0,0.0,0.0,0.0,0.0,0.0,0.0,0.0,0.0,0.0,0.0,0.0,0.0,0.0,0.0,0.0,0.0,0.0,0.0,0.0,0.0,0.0,0.0,0.0,0.0,0.0,0.0,0.0,0.0,0.0,0.0,0.0,0.0,0.0,0.0,0.0,-0.5651,0.0,0.0,0.0,0.0,0.0,0.0,0.0,0.0,0.0,0.0,0.0,0.0,0.0,0.0,0.0,0.0,0.0,0.0,0.0,0.0,0.0,0.0,0.0,0.0,0.0,0.0,0.0,0.0,0.0,0.0,0.0,0.0,0.0,0.0,0.0,0.0,0.0,0.0,0.0,0.0,0.0,0.0,0.0,0.0,0.0,0.0,0.0,0.0,0.0,0.0,0.0,0.0,0.0,0.0,0.0,0.0,0.0,0.0,0.0,0.0,0.0,0.0,0.0,0.0,0.0,0.0,0.0,0.0,0.0,0.0,0.0,0.0,0.0,0.0,0.0,0.0,0.0,0.0,0.0,0.0,0.0,0.0,0.0,0.0,0.0,0.0,0.0,0.0,0.0,0.0,0.0,0.0,0.0,0.0,0.0,0.0,0.0,0.0,0.0,0.0,0.0,0.0,0.0,0.0,0.0,0.0,0.0,0.0,0.0,0.0,-0.8378,-0.9373,-0.7321,-0.586,-0.5179,0.0,0.0,0.0,0.0,0.0,0.0,0.0,0.0,0.0,0.0,0.0,0.0,0.0,0.0,0.0,0.0,0.0,0.0,0.0,0.0,0.0,0.0,0.0,0.0,0.0,0.0,0.0,0.0,0.0,0.0,0.0,0.0,0.0,0.0,0.0,0.0,0.0,0.0,0.0,0.0,0.0,0.0,0.0,0.0,0.0,0.0,0.0,0.0,0.0,0.0,0.0,0.0,0.0,0.0,0.0,0.0,0.0,0.0,0.0,0.0,0.0,0.0,0.0,0.0,0.0,0.0,0.0,0.0,0.0,0.0,0.0,0.0,0.0,0.0,0.0,0.0,0.0,0.0,0.0,0.0,0.0,0.0,0.0,0.0,0.0,0.0,0.0,0.0,0.0,0.0,0.0,0.0,0.0,0.0,0.0,0.0,0.0,0.0,0.0,0.0,0.0,0.0,0.0,0.0,0.0,0.0,0.0,0.0,0.0,0.0,0.0,0.0,-0.6491,-0.537,-0.4398,0.0,0.0,0.0,0.0,0.0,0.0,0.0,0.0,0.0,0.0,0.0,0.0,0.0,0.0,0.0,0.0,0.0,0.0,0.0,0.0,0.0,0.0,0.0,0.0,0.0,0.0,0.0,0.0,0.0,0.0,0.0,0.0,0.0,0.0,0.0,0.0,0.0,0.0,0.0,0.0,0.0,0.0,0.0,0.0,0.0,0.0,0.0,0.0,0.0,0.0,0.0,0.0,0.0,0.0,0.0,0.0,0.0,0.0,0.0,0.0,0.0,0.0,0.0,0.0,0.0,0.0,0.0,0.0,0.0,0.0,0.0,0.0,0.0,0.0,0.0,0.0,0.0,0.0,0.0,0.0,0.0,0.0,0.0,0.0,0.0,0.0,0.0,0.0,0.0,0.0,0.0,0.0,0.0,0.0,0.0,0.0,0.0,0.0,0.0,0.0,0.0,0.0,0.0,0.0,0.0,0.0,0.0,0.0,0.0,0.0,0.0126,-0.7397,-0.5779,0.0,-0.3322,0.0,0.0,0.0,0.0,0.0,0.0,0.0,0.0,0.0,0.0,0.0,0.0,0.0,0.0,0.0,0.0,0.0,0.0,0.0,0.0,0.0,0.0,0.0,0.0,0.0,0.0,0.0,0.0,0.0,0.0,0.0,0.0,0.0,0.0,0.0,0.0,0.0,0.0,0.0,0.0,0.0,0.0,0.0,0.0,0.0,0.0,0.0,0.0,0.0,0.0,0.0,0.0,0.0,0.0,0.0,0.0,0.0,0.0,0.0,0.0,0.0,0.0,0.0,0.0,0.0,0.0,0.0,0.0,0.0,0.0,0.0,0.0,0.0,0.0,0.0,0.0,0.0,0.0,0.0,0.0,0.0,0.0,0.0,0.0,0.0,0.0,0.0,0.0,0.0,0.0,0.0,0.0,0.0,0.0,0.0,0.0,0.0,0.0,0.0,0.0,0.0,0.0,0.0,0.0,0.0,0.0,0.0,0.0,0.0,0.0,-0.3811,-0.6763,-0.4792,-0.3566,0.0,0.0,0.0,0.0,0.0,0.0,0.0,0.0,0.0,0.0,0.0,0.0,0.0,0.0,0.0,0.0,0.0,0.0,0.0,0.0,0.0,0.0,0.0,0.0,0.0,0.0,0.0,0.0,0.0,0.0,0.0,0.0,0.0,0.0,0.0,0.0,0.0,0.0,0.0,0.0,0.0,0.0,0.0,0.0,0.0,0.0,0.0,0.0,0.0,0.0,0.0,0.0,0.0,0.0,0.0,0.0,0.0,0.0,0.0,0.0,0.0,0.0,0.0,0.0,0.0,0.0,0.0,0.0,0.0,0.0,0.0,0.0,0.0,0.0,0.0,0.0,0.0,0.0,0.0,0.0,0.0,0.0,0.0,0.0,0.0,0.0,0.0,0.0,0.0,0.0,0.0,0.0,0.0,0.0,0.0,0.0,0.0,0.0,0.0,0.0,0.0,0.0,0.0,0.0,0.0,0.0,0.0,0.0,0.0,0.0,-0.0711,-0.577,-0.5202,-0.3832,-0.3065,-0.3063,0.0,0.0,0.0,0.0,0.0,0.0,0.0,0.0,0.0,0.0,0.0,0.0,0.0,0.0,0.0,0.0,0.0,0.0,0.0,0.0,0.0,0.0,0.0,0.0,0.0,0.0,0.0,0.0,0.0,0.0,0.0,0.0,0.0,0.0,0.0,0.0,0.0,0.0,0.0,0.0,0.0,0.0,0.0,0.0,0.0,0.0,0.0,0.0,0.0,0.0,0.0,0.0,0.0,0.0,0.0,0.0,0.0,0.0,0.0,0.0,0.0,0.0,0.0,0.0,0.0,0.0,0.0,0.0,0.0,0.0,0.0,0.0,0.0,0.0,0.0,0.0,0.0,0.0,0.0,0.0,0.0,0.0,0.0,0.0,0.0,0.0,0.0,0.0,0.0,0.0,0.0,0.0,0.0,0.0,0.0,0.0,0.0,0.0,0.0,0.0,0.0,0.0,0.0,0.0,0.0,0.0,0.0,0.0,1.1959,0.2929,-0.2223,-0.2868,-0.2886,-0.2705,0.0,0.0,0.0,0.0,0.0,0.0,0.0,0.0,0.0,0.0,0.0,0.0,0.0,0.0,0.0,0.0,0.0,0.0,0.0,0.0,0.0,0.0,0.0,0.0,0.0,0.0,0.0,0.0,0.0,0.0,0.0,0.0,0.0,0.0,0.0,0.0,0.0,0.0,0.0,0.0,0.0,0.0,0.0,0.0,0.0,0.0,0.0,0.0,0.0,0.0,0.0,0.0,0.0,0.0,0.0,0.0,0.0,0.0,0.0,0.0,0.0,0.0,0.0,0.0,0.0,0.0,0.0,0.0,0.0,0.0,0.0,0.0,0.0,0.0,0.0,0.0,0.0,0.0,0.0,0.0,0.0,0.0,0.0,0.0,0.0,0.0,0.0,0.0,0.0,0.0,0.0,0.0,0.0,0.0,0.0,0.0,0.0,0.0,0.0,0.0,0.0,0.0,0.0,0.0,0.0,0.0,0.0,0.0,0.0,1.0409,0.1905,-0.2631,-0.2266,-0.1931,-0.1692,0.0,0.0,0.0,0.0,0.0,0.0,0.0,0.0,0.0,0.0,0.0,0.0,0.0,0.0,0.0,0.0,0.0,0.0,0.0,0.0,0.0,0.0,0.0,0.0,0.0,0.0,0.0,0.0,0.0,0.0,0.0,0.0,0.0,0.0,0.0,0.0,0.0,0.0,0.0,0.0,0.0,0.0,0.0,0.0,0.0,0.0,0.0,0.0,0.0,0.0,0.0,0.0,0.0,0.0,0.0,0.0,0.0,0.0,0.0,0.0,0.0,0.0,0.0,0.0,0.0,0.0,0.0,0.0,0.0,0.0,0.0,0.0,0.0,0.0,0.0,0.0,0.0,0.0,0.0,0.0,0.0,0.0,0.0,0.0,0.0,0.0,0.0,0.0,0.0,0.0,0.0,0.0,0.0,0.0,0.0,0.0,0.0,0.0,0.0,0.0,0.0,0.0,0.0,0.0,0.0,0.0,0.0,0.0,0.0,0.6066,0.0,-0.2166,-0.2015,-0.1651,-0.13,0.0,0.0,0.0,0.0,0.0,0.0,0.0,0.0,0.0,0.0,0.0,0.0,0.0,0.0,0.0,0.0,0.0,0.0,0.0,0.0,0.0,0.0,0.0,0.0,0.0,0.0,0.0,0.0,0.0,0.0,0.0,0.0,0.0,0.0,0.0,0.0,0.0,0.0,0.0,0.0,0.0,0.0,0.0,0.0,0.0,0.0,0.0,0.0,0.0,0.0,0.0,0.0,0.0,0.0,0.0,0.0,0.0,0.0,0.0,0.0,0.0,0.0,0.0,0.0,0.0,0.0,0.0,0.0,0.0,0.0,0.0,0.0,0.0,0.0,0.0,0.0,0.0,0.0,0.0,0.0,0.0,0.0,0.0,0.0,0.0,0.0,0.0,0.0,0.0,0.0,0.0,0.0,0.0,0.0,0.0,0.0,0.0,0.0,0.0,0.0,0.0,0.0,0.0,0.0,0.0,0.0,0.0,0.0,0.7788,-0.1185,-0.0397,-0.0568,-0.193,-0.2071,-0.1554,0.0,0.0,0.0,0.0,0.0,0.0,0.0,0.0,0.0,0.0,0.0,0.0,0.0,0.0,0.0,0.0,0.0,0.0,0.0,0.0,0.0,0.0,0.0,0.0,0.0,0.0,0.0,0.0,0.0,0.0,0.0,0.0,0.0,0.0,0.0,0.0,0.0,0.0,0.0,0.0,0.0,0.0,0.0,0.0,0.0,0.0,0.0,0.0,0.0,0.0,0.0,0.0,0.0,0.0,0.0,0.0,0.0,0.0,0.0,0.0,0.0,0.0,0.0,0.0,0.0,0.0,0.0,0.0,0.0,0.0,0.0,0.0,0.0,0.0,0.0,0.0,0.0,0.0,0.0,0.0,0.0,0.0,0.0,0.0,0.0,0.0,0.0,0.0,0.0,0.0,0.0,0.0,0.0,0.0,0.0,0.0,0.0,0.0,0.0,0.0,0.0,0.0,0.0,0.0,0.0,0.0,0.0,0.0,0.0,-0.3582,-0.238,-0.1561,-0.1538,-0.1692,-0.158,0.0,0.0,0.0,0.0,0.0,0.0,0.0,0.0,0.0,0.0,0.0,0.0,0.0,0.0,0.0,0.0,0.0,0.0,0.0,0.0,0.0,0.0,0.0,0.0,0.0,0.0,0.0,0.0,0.0,0.0,0.0,0.0,0.0,0.0,0.0,0.0,0.0,0.0,0.0,0.0,0.0,0.0,0.0,0.0,0.0,0.0,0.0,0.0,0.0,0.0,0.0,0.0,0.0,0.0,0.0,0.0,0.0,0.0,0.0,0.0,0.0,0.0,0.0,0.0,0.0,0.0,0.0,0.0,0.0,0.0,0.0,0.0,0.0,0.0,0.0,0.0,0.0,0.0,0.0,0.0,0.0,0.0,0.0,0.0,0.0,0.0,0.0,0.0,0.0,0.0,0.0,0.0,0.0,0.0,0.0,0.0,0.0,0.0,0.0,0.0,0.0,0.0,0.0,0.0,0.0,0.0,0.0,0.0,0.0,-0.4391,-0.3355,-0.2423,-0.187,-0.2029,-0.1921,-0.1512,0.0,0.0,0.0,0.0,0.0,0.0,0.0,0.0,0.0,0.0,0.0,0.0,0.0,0.0,0.0,0.0,0.0,0.0,0.0,0.0,0.0,0.0,0.0,0.0,0.0,0.0,0.0,0.0,0.0,0.0,0.0,0.0,0.0,0.0,0.0,0.0,0.0,0.0,0.0,0.0,0.0,0.0,0.0,0.0,0.0,0.0,0.0,0.0,0.0,0.0,0.0,0.0,0.0,0.0,0.0,0.0,0.0,0.0,0.0,0.0,0.0,0.0,0.0,0.0,0.0,0.0,0.0,0.0,0.0,0.0,0.0,0.0,0.0,0.0,0.0,0.0,0.0,0.0,0.0,0.0,0.0,0.0,0.0,0.0,0.0,0.0,0.0,0.0,0.0,0.0,0.0,0.0,0.0,0.0,0.0,0.0,0.0,0.0,0.0,0.0,0.0,0.0,0.0,0.0,0.0,0.0,0.0,0.0,-0.4263,-0.35,-0.3014,-0.2822,-0.2945,-0.2544,0.0,0.0,0.0,0.0,0.0,0.0,0.0,0.0,0.0,0.0,0.0,0.0,0.0,0.0,0.0,0.0,0.0,0.0,0.0,0.0,0.0,0.0,0.0,0.0,0.0,0.0,0.0,0.0,0.0,0.0,0.0,0.0,0.0,0.0,0.0,0.0,0.0,0.0,0.0,0.0,0.0,0.0,0.0,0.0,0.0,0.0,0.0,0.0,0.0,0.0,0.0,0.0,0.0,0.0,0.0,0.0,0.0,0.0,0.0,0.0,0.0,0.0,0.0,0.0,0.0,0.0,0.0,0.0,0.0,0.0,0.0,0.0,0.0,0.0,0.0,0.0,0.0,0.0,0.0,0.0,0.0,0.0,0.0,0.0,0.0,0.0,0.0,0.0,0.0,0.0,0.0,0.0,0.0,0.0,0.0,0.0,0.0,0.0,0.0,0.0,0.0,0.0,0.0,0.0,0.0,0.0,0.0,0.0,0.0,-0.3983,-0.4214,-0.3922,-0.328,-0.3421,-0.3433,0.0,0.0,0.0,0.0,0.0,0.0,0.0,0.0,0.0,0.0,0.0,0.0,0.0,0.0,0.0,0.0,0.0,0.0,0.0,0.0,0.0,0.0,0.0,0.0,0.0,0.0,0.0,0.0,0.0,0.0,0.0,0.0,0.0,0.0,0.0,0.0,0.0,0.0,0.0,0.0,0.0,0.0,0.0,0.0,0.0,0.0,0.0,0.0,0.0,0.0,0.0,0.0,0.0,0.0,0.0,0.0,0.0,0.0,0.0,0.0,0.0,0.0,0.0,0.0,0.0,0.0,0.0,0.0,0.0,0.0,0.0,0.0,0.0,0.0,0.0,0.0,0.0,0.0,0.0,0.0,0.0,0.0,0.0,0.0,0.0,0.0,0.0,0.0,0.0,0.0,0.0,0.0,0.0,0.0,0.0,0.0,0.0,0.0,0.0,0.0,0.0,0.0,0.0,0.0,0.0,0.0,0.0,0.0,-0.0402,-0.4162,-0.4638,-0.4606,-0.4156,-0.4022,-0.3927,0.0,0.0,0.0,0.0,0.0,0.0,0.0,0.0,0.0,0.0,0.0,0.0,0.0,0.0,0.0,0.0,0.0,0.0,0.0,0.0,0.0,0.0,0.0,0.0,0.0,0.0,0.0,0.0,0.0,0.0,0.0,0.0,0.0,0.0,0.0,0.0,0.0,0.0,0.0,0.0,0.0,0.0,0.0,0.0,0.0,0.0,0.0,0.0,0.0,0.0,0.0,0.0,0.0,0.0,0.0,0.0,0.0,0.0,0.0,0.0,0.0,0.0,0.0,0.0,0.0,0.0,0.0,0.0,0.0,0.0,0.0,0.0,0.0,0.0,0.0,0.0,0.0,0.0,0.0,0.0,0.0,0.0,0.0,0.0,0.0,0.0,0.0,0.0,0.0,0.0,0.0,0.0,0.0,0.0,0.0,0.0,0.0,0.0,0.0,0.0,0.0,0.0,0.0,0.0,0.0,0.0,0.0,0.0,-0.0521,-0.4297,-0.4814,-0.5041,-0.5064,-0.4539,-0.4183,0.0,0.0,0.0,0.0,0.0,0.0,0.0,0.0,0.0,0.0,0.0,0.0,0.0,0.0,0.0,0.0,0.0,0.0,0.0,0.0,0.0,0.0,0.0,0.0,0.0,0.0,0.0,0.0,0.0,0.0,0.0,0.0,0.0,0.0,0.0,0.0,0.0,0.0,0.0,0.0,0.0,0.0,0.0,0.0,0.0,0.0,0.0,0.0,0.0,0.0,0.0,0.0,0.0,0.0,0.0,0.0,0.0,0.0,0.0,0.0,0.0,0.0,0.0,0.0,0.0,0.0,0.0,0.0,0.0,0.0,0.0,0.0,0.0,0.0,0.0,0.0,0.0,0.0,0.0,0.0,0.0,0.0,0.0,0.0,0.0,0.0,0.0,0.0,0.0,0.0,0.0,0.0,0.0,0.0,0.0,0.0,0.0,0.0,0.0,0.0,0.0,0.0,0.0,0.0,0.0,0.0,0.0,0.0,-0.0912,-0.3713,-0.4681,-0.4856,-0.419,-0.416,-0.4157,0.0,0.0,0.0,0.0,0.0,0.0,0.0,0.0,0.0,0.0,0.0,0.0,0.0,0.0,0.0,0.0,0.0,0.0,0.0,0.0,0.0,0.0,0.0,0.0,0.0,0.0,0.0,0.0,0.0,0.0,0.0,0.0,0.0,0.0,0.0,0.0,0.0,0.0,0.0,0.0,0.0,0.0,0.0,0.0,0.0,0.0,0.0,0.0,2.2663,0.0,0.0,0.0,0.0,0.0,0.0,0.0,0.0,0.0,0.0,0.0,0.0,0.0,0.0,0.0,0.0,0.0,0.0,0.0,0.0,0.0,0.0,0.0,0.0,0.0,0.0,0.0,0.0,0.0,0.0,0.0,0.0,0.0,0.0,0.0,0.0,0.0,0.0,0.0,0.0,0.0,0.0,0.0,0.0,0.0,0.0,0.0,0.0,0.0,0.0,0.0,0.0,0.0,0.0,0.0,0.0,0.0,0.0,0.0,-0.0794,-0.412,-0.4447,-0.4524,-0.4498,-0.4421,-0.4387,0.0,0.0,0.0,0.0,0.0,0.0,0.0,0.0,0.0,0.0,0.0,0.0,0.0,0.0,0.0,0.0,0.0,0.0,0.0,0.0,0.0,0.0,0.0,0.0,0.0,0.0,0.0,0.0,0.0,0.0,0.0,0.0,0.0,0.0,0.0,0.0,0.0,0.0,0.0,0.0,0.0,0.0,0.0,0.0,0.0,0.0,0.0,0.0,0.0,0.0,0.0,0.0,0.0,0.0,0.0,0.0,0.0,0.0,0.0,0.0,0.0,0.0,0.0,0.0,0.0,0.0,0.0,0.0,0.0,0.0,0.0,0.0,0.0,0.0,0.0,0.0,0.0,0.0,0.0,0.0,0.0,0.0,0.0,0.0,0.0,0.0,0.0,0.0,0.0,0.0,0.0,0.0,0.0,0.0,0.0,0.0,0.0,0.0,0.0,0.0,0.0,0.0,0.0,0.0,0.0,0.0,0.0,0.1393,-0.0444,-0.4434,-0.4137,-0.4228,-0.498,-0.4828,-0.4595,-0.4367,0.0,0.0,0.0,0.0,0.0,0.0,0.0,0.0,0.0,0.0,0.0,0.0,0.0,0.0,0.0,0.0,0.0,0.0,0.0,0.0,0.0,0.0,0.0,0.0,0.0,0.0,0.0,0.0,0.0,0.0,0.0,0.0,0.0,0.0,0.0,0.0,0.0,0.0,2.3139,2.1672,0.0,0.0,0.0,0.0,0.0,0.0,0.0,0.0,2.0807,0.0,0.0,0.0,0.0,0.0,0.0,0.0,0.0,0.0,0.0,0.0,0.0,0.0,0.0,0.0,0.0,0.0,0.0,0.0,0.0,0.0,0.0,0.0,0.0,0.0,0.0,0.0,0.0,0.0,0.0,0.0,0.0,0.0,0.0,0.0,0.0,0.0,0.0,0.0,0.0,0.0,0.0,0.0,0.0,0.0,0.0,0.0,0.0,0.0,0.0,0.0,0.0,0.0,0.0,0.0,0.0,0.0353,0.11,-0.0038,-0.3148,-0.3796,-0.413,-0.4271,-0.462,-0.446,-0.3809,0.0,0.0,0.0,0.0,0.0,0.0,0.0,0.0,0.0,0.0,0.0,0.0,0.0,0.0,0.0,0.0,0.0,0.0,0.0,0.0,0.0,0.0,0.0,0.0,0.0,0.0,0.0,0.0,0.0,0.0,0.0,0.0,0.0,0.0,0.0,0.0,0.0,0.0,0.0,2.0836,2.0167,0.0,0.0,0.0,0.0,0.0,0.0,0.0,0.0,2.1565,0.0,0.0,0.0,0.0,0.0,0.0,0.0,0.0,0.0,0.0,0.0,0.0,0.0,0.0,0.0,0.0,0.0,0.0,0.0,0.0,0.0,0.0,0.0,0.0,0.0,0.0,0.0,0.0,0.0,0.0,0.0,0.0,0.0,0.0,0.0,0.0,0.0,0.0,0.0,0.0,0.0,0.0,0.0,0.0,0.0,0.0,0.0,0.0,0.0,0.0,0.0,0.0,0.0,0.0,0.0,0.1072,0.05,-0.107,-0.3705,-0.3535,-0.39,-0.4982,-0.4994,-0.4591,0.0,0.0,0.0,0.0,0.0,0.0,0.0,0.0,0.0,0.0,0.0,0.0,0.0,0.0,0.0,0.0,0.0,0.0,0.0,0.0,0.0,0.0,0.0,0.0,0.0,0.0,0.0,0.0,0.0,0.0,0.0,0.0,0.0,0.0,0.0,0.0,0.0,0.0,0.0,0.0,2.1016,2.053,2.1008,0.0,0.0,0.0,0.0,0.0,0.0,2.0924,2.1071,0.0,0.0,0.0,0.0,0.0,0.0,0.0,0.0,0.0,0.0,0.0,0.0,0.0,0.0,0.0,0.0,0.0,0.0,0.0,0.0,0.0,0.0,0.0,0.0,0.0,0.0,0.0,0.0,0.0,0.0,0.0,0.0,0.0,0.0,0.0,0.0,0.0,0.0,0.0,0.0,0.0,0.0,0.0,0.0,0.0,0.0,0.0,0.0,0.0,0.0,0.0,0.0,0.0,0.0,0.0,0.1559,0.0095,-0.1969,-0.442,-0.3612,-0.408,-0.6086,-0.5493,-0.4728,0.0,0.0,0.0,0.0,0.0,0.0,0.0,0.0,0.0,0.0,0.0,0.0,0.0,0.0,0.0,0.0,0.0,0.0,0.0,0.0,0.0,0.0,0.0,0.0,0.0,0.0,0.0,0.0,0.0,0.0,0.0,0.0,0.0,0.0,0.0,0.0,0.0,0.0,0.0,0.0,0.0,2.0618,2.1001,2.0446,0.0,0.0,0.0,0.0,1.9921,1.9969,0.0,0.0,0.0,0.0,0.0,0.0,0.0,0.0,0.0,0.0,0.0,0.0,0.0,0.0,0.0,0.0,0.0,0.0,0.0,0.0,0.0,0.0,0.0,0.0,0.0,0.0,0.0,0.0,0.0,0.0,0.0,0.0,0.0,0.0,0.0,0.0,0.0,0.0,0.0,0.0,0.0,0.0,0.0,0.0,0.0,0.0,0.0,0.0,0.0,0.0,0.0,0.0,0.0,0.0,0.0,0.0,0.0921,0.033,-0.1371,-0.415,-0.4355,-0.5255,-0.7051,-0.588,-0.4783,0.0,0.0,0.0,0.0,0.0,0.0,0.0,0.0,0.0,0.0,0.0,0.0,0.0,0.0,0.0,0.0,0.0,0.0,0.0,0.0,0.0,0.0,0.0,0.0,0.0,0.0,0.0,0.0,0.0,0.0,0.0,0.0,0.0,0.0,0.0,0.0,0.0,0.0,0.0,0.0,0.0,1.908,2.0177,1.9296,1.8387,0.0,0.0,1.9434,1.9089,1.9578,0.0,0.0,0.0,0.0,0.0,0.0,0.0,0.0,0.0,0.0,0.0,0.0,0.0,0.0,0.0,0.0,0.0,0.0,0.0,0.0,0.0,0.0,0.0,0.0,0.0,0.0,0.0,0.0,0.0,0.0,0.0,0.0,0.0,0.0,0.0,0.0,0.0,0.0,0.0,0.0,0.0,0.0,0.0,0.0,0.0,0.0,0.0,0.0,0.0,0.0,0.0,0.0,0.0,0.0,0.0,0.0225,-0.0145,-0.2001,-0.355,-0.4661,-0.4776,-0.5532,-0.6979,-0.5951,-0.52,0.0,0.0,0.0,0.0,0.0,0.0,0.0,0.0,0.0,0.0,0.0,0.0,0.0,0.0,0.0,0.0,0.0,0.0,0.0,0.0,0.0,0.0,0.0,0.0,0.0,0.0,0.0,0.0,0.0,0.0,0.0,0.0,0.0,0.0,0.0,0.0,0.0,0.0,0.0,0.0,0.0,0.0,1.9152,1.8911,0.0,0.0,0.0,1.9134,1.8198,0.0,0.0,0.0,0.0,0.0,0.0,0.0,0.0,0.0,0.0,0.0,0.0,0.0,0.0,0.0,0.0,0.0,0.0,0.0,0.0,0.0,0.0,0.0,0.0,0.0,0.0,0.0,0.0,0.0,0.0,0.0,0.0,0.0,0.0,0.0,0.0,0.0,0.0,0.0,0.0,0.0,0.0,0.0,0.0,0.0,0.0,0.0,0.0,0.0,0.0,0.0,0.0,0.0,0.0,0.0,0.0,0.0,-0.1266,-0.3983,-0.5383,-0.5359,-0.5639,-0.6353,-0.7452,-0.6829,0.0,0.0,0.0,0.0,0.0,0.0,0.0,0.0,0.0,0.0,0.0,0.0,0.0,0.0,0.0,0.0,0.0,0.0,0.0,0.0,0.0,0.0,0.0,0.0,0.0,0.0,0.0,1.5707,0.0,0.0,0.0,0.0,0.0,0.0,0.0,0.0,0.0,0.0,0.0,0.0,0.0,0.0,1.9648,1.7865,1.8046,1.8099,0.0,0.0,1.8614,1.7775,1.8823,1.9772,0.0,0.0,0.0,0.0,0.0,0.0,0.0,0.0,0.0,0.0,0.0,0.0,0.0,0.0,0.0,0.0,0.0,0.0,0.0,0.0,0.0,0.0,0.0,0.0,0.0,0.0,0.0,0.0,0.0,0.0,0.0,0.0,0.0,0.0,0.0,0.0,0.0,0.0,0.0,0.0,0.0,0.0,0.0,0.0,0.0,0.0,0.0,0.0,0.0,0.0,0.0,0.0,0.0,0.0,0.0,-0.2607,-0.443,-0.5708,-0.6313,-0.7398,-0.8444,-0.9375,-0.9158,-0.8334,0.0,0.0,0.0,0.0,0.0,0.0,0.0,0.0,0.0,0.0,0.0,0.0,0.0,0.0,0.0,0.0,0.0,0.0,0.0,0.0,0.0,0.0,0.0,0.0,0.0,0.0,0.0,0.0,0.0,0.0,0.0,0.0,0.0,0.0,0.0,0.0,0.0,0.0,0.0,0.0,0.0,1.7809,1.627,1.6087,1.6377,0.0,0.0,1.7499,1.8217,1.8885,1.9234,1.8947,0.0,0.0,0.0,0.0,0.0,0.0,0.0,0.0,0.0,0.0,0.0,0.0,0.0,0.0,0.0,0.0,0.0,0.0,0.0,0.0,0.0,0.0,0.0,0.0,0.0,0.0,0.0,0.0,0.0,0.0,0.0,0.0,0.0,0.0,0.0,0.0,0.0,0.0,0.0,0.0,0.0,0.0,0.0,0.0,0.0,0.0,0.0,0.0,0.0,0.0,0.0,0.0,0.0,-0.4585,-0.415,-0.5646,-0.6798,-0.7489,-0.8093,-0.8816,-0.9771,-0.8914,-0.8025,0.0,0.0,0.0,0.0,0.0,0.0,0.0,0.0,0.0,0.0,0.0,0.0,0.0,0.0,0.0,0.0,0.0,0.0,0.0,0.0,0.0,0.0,0.0,0.0,0.0,0.0,0.0,0.0,1.6069,1.6662,1.7286,0.0,0.0,0.0,0.0,0.0,0.0,0.0,0.0,0.0,0.0,1.6154,1.5334,1.5618,0.0,0.0,1.694,1.7698,1.6592,1.8046,1.9234,1.9025,1.8622,0.0,0.0,0.0,0.0,0.0,0.0,0.0,0.0,0.0,0.0,0.0,0.0,0.0,0.0,0.0,0.0,0.0,0.0,0.0,0.0,0.0,0.0,0.0,0.0,0.0,0.0,0.0,0.0,0.0,0.0,0.0,0.0,0.0,0.0,0.0,0.0,0.0,0.0,0.0,0.0,0.0,0.0,0.0,0.0,0.0,0.0,0.0,0.0,0.0,0.0,0.0,0.0,-0.6101,-0.5377,-0.685,-0.7912,-0.8497,-0.9207,-0.9895,-1.0494,-0.9675,-0.8847,0.0,0.0,0.0,0.0,0.0,0.0,0.0,0.0,0.0,0.0,0.0,0.0,0.0,0.0,0.0,0.0,0.0,0.0,0.0,0.0,0.0,0.0,0.0,0.0,0.0,0.0,0.0,0.0,1.555,1.6172,1.642,0.0,0.0,0.0,0.0,0.0,0.0,0.0,0.0,0.0,0.0,1.49,1.4101,1.4785,1.524,1.4709,1.6353,1.7236,1.5979,1.7182,1.8267,1.8347,0.0,0.0,0.0,0.0,0.0,0.0,0.0,0.0,0.0,0.0,0.0,0.0,0.0,0.0,0.0,0.0,0.0,0.0,0.0,0.0,0.0,0.0,0.0,0.0,0.0,0.0,0.0,0.0,0.0,0.0,1.3586,0.0,0.0,0.0,0.0,0.0,0.0,0.0,0.0,0.0,0.0,0.0,0.0,0.0,0.0,0.0,0.0,0.0,0.0,0.0,0.0,0.0,0.0,-0.5758,-0.6212,-0.7964,-0.8999,-0.9241,-1.1043,-1.1995,-1.2058,-1.2154,-1.1454,-0.9913,0.0,0.0,0.0,0.0,0.0,0.0,0.0,0.0,0.0,0.0,0.0,0.0,0.0,0.0,0.0,0.0,0.0,0.0,0.0,0.0,0.0,0.0,0.0,0.0,0.0,0.0,1.3042,1.4289,1.5131,0.0,0.0,0.0,0.0,0.0,0.0,0.0,0.0,0.0,0.0,1.4163,1.4119,1.2329,1.3345,1.4467,1.5033,1.5259,1.5774,1.6846,1.642,1.6045,0.0,0.0,0.0,0.0,0.0,0.0,0.0,0.0,0.0,0.0,0.0,0.0,0.0,0.0,0.0,0.0,0.0,0.0,0.0,0.0,0.0,0.0,0.0,0.0,0.0,0.0,0.0,0.9709,0.9764,0.0,0.0,0.0,0.0,0.0,0.0,0.0,0.0,0.0,0.0,0.0,0.1029,-0.1328,0.0,0.0,0.0,0.0,0.0,0.0,0.0,0.0,0.0,0.0,0.0,0.0,-0.85,-0.7768,-0.9267,-1.0439,-1.1099,-1.1742,-1.2484,-1.3275,-1.2723,-1.1522,-0.9582,0.0,0.0,0.0,0.0,0.0,0.0,0.0,0.0,0.0,0.0,0.0,0.0,0.0,0.0,0.0,0.0,0.0,0.0,0.0,0.0,0.0,0.0,0.0,0.0,0.0,1.2054,0.0,0.0,0.0,0.0,0.0,0.0,0.0,0.0,0.0,0.0,0.0,1.0903,1.2585,1.2034,1.1337,1.0915,1.1696,1.248,0.0,0.0,0.0,0.0,0.0,0.0,0.0,0.0,0.0,0.0,0.0,0.0,0.0,0.0,1.9581,2.0154,2.1173,2.1964,2.2109,0.0,0.0,0.0,0.0,0.0,0.0,0.0,0.0,0.0,0.0,0.0,0.0,0.0,0.0,0.6362,0.0,0.6823,0.0,0.0,0.0,0.0,0.0,0.0,0.0,0.0,0.0122,-0.1018,-0.1836,-0.3799,-0.4164,0.0,-0.3962,-0.3856,0.0,0.0,0.0,0.0,0.0,0.0,0.0,0.0,-0.963,-0.9188,-1.0579,-1.1631,-1.2287,-1.2665,-1.3234,-1.3999,-1.2876,-1.1475,-0.9897,-0.8237,-0.7206,0.0,0.0,0.0,0.0,0.0,0.0,0.0,0.0,0.0,0.0,0.0,0.0,0.0,0.0,0.0,0.0,0.0,0.0,0.0,0.0,0.0,0.0,0.0,1.1297,0.0,0.0,0.0,0.0,0.0,0.0,0.0,0.0,0.0,1.3607,1.0452,0.8867,1.0775,1.0512,0.9986,0.9644,0.0,0.0,0.0,0.0,0.0,0.0,0.0,1.3793,1.273,1.3815,1.5232,1.6499,1.7515,1.8459,1.9311,0.0,0.0,2.0413,2.1307,2.2084,2.2207,2.2135,2.2241,2.2892,2.2776,2.2798,0.0,0.0,0.0,0.0,0.0,0.0,0.0,0.0,0.2967,0.2808,0.0,0.3237,0.0,0.0,0.0,0.0,0.0,0.2208,0.0,0.0,-0.4458,-0.5628,-0.5577,-0.6237,-0.6562,-0.6501,-0.6156,-0.6493,-0.7325,-0.5607,0.0,0.0,0.0,0.0,0.0,0.0,-0.9159,-1.0479,-1.1854,-1.2601,-1.2783,-1.3752,-1.4268,-1.4208,-1.2636,-1.1495,-1.0872,-0.9238,-0.8312,-0.828,-0.7189,0.0,0.0,0.0,0.0,0.0,0.0,0.0,0.0,0.0,0.0,0.0,0.0,0.0,0.0,0.0,0.0,0.0,0.0,0.0,0.0,0.8806,0.0,0.0,0.0,0.0,0.0,0.0,0.0,0.0,0.0,0.0,1.0335,0.9193,0.8418,0.8181,0.0,0.0,0.0,0.0,1.1723,0.9894,1.0859,1.1771,1.1668,1.2083,1.2707,1.3453,0.0,0.0,1.6532,1.7006,1.7458,1.7941,1.9764,2.0896,2.013,2.0779,2.1358,2.1369,2.1411,2.1327,2.1314,2.1359,2.1134,-0.2704,0.0,0.0,0.0,0.0,0.1244,0.0579,-0.066,-0.0253,-0.0403,-0.0902,-0.0766,0.0,0.0,0.0,0.0,0.0,0.0,-0.1624,-0.3832,-0.4552,-0.5194,-0.5882,-0.7468,-0.7896,-0.7413,-0.8651,-0.9438,-0.9705,-0.9195,-0.8613,-0.802,0.0,0.0,0.0,0.0,-1.1563,-1.2209,-1.3245,-1.3807,-1.3854,-1.4148,-1.41,-1.3733,-1.2884,-1.2004,-1.1133,-0.9808,-0.89,-0.8521,-0.8048,0.0,0.0,0.0,0.0,0.0,0.0,0.0,0.0,0.0,0.0,0.0,0.0,0.0,0.0,0.0,0.0,0.0,0.0,0.0,0.6596,0.6824,0.7018,0.0,0.0,0.0,0.0,0.0,0.0,0.0,0.0,0.0,0.788,0.7136,0.7003,0.0,0.0,0.7485,0.7454,0.8083,0.8767,0.9445,0.9941,0.0,1.1861,1.2245,1.2658,1.3476,1.5083,1.6314,1.6455,1.7189,1.8258,1.9737,2.029,2.0759,2.1788,2.2251,2.2532,2.2562,2.2575,2.2732,2.3138,2.3137,2.3221,-0.703,-0.4622,-0.2608,-0.1746,-0.1715,-0.1554,-0.2082,-0.3066,-0.2904,-0.3042,-0.3417,-0.3489,-0.2968,-0.198,-0.1554,0.0,0.0,0.0,-0.3685,-0.5667,-0.5646,-0.6222,-0.7263,-0.8452,-0.8985,-0.895,-1.0126,-1.0951,-1.1401,-1.1202,-1.107,-1.0944,0.0,0.0,-1.0985,-1.2048,-1.2732,-1.3011,-1.3964,-1.4394,-1.4298,-1.4004,-1.3757,-1.3661,-1.2543,-1.1712,-1.1219,-1.0071,-0.9339,-0.9022,-0.8674,-0.7917,0.0,0.0,0.0,0.0,0.0,0.0,0.0,0.0,0.0,0.0,0.0,0.1585,0.0,0.0,0.0,0.0,0.3779,0.4354,0.4776,0.4981,0.0,0.0,0.0,0.0,0.0,0.0,0.0,0.6169,0.5686,0.5367,0.5342,0.4837,0.5225,0.7297,0.7187,0.6897,0.6938,0.0,0.8015,0.9097,0.9282,0.9872,1.1474,1.213,1.2795,1.387,1.5041,1.5939,1.6137,1.6949,1.8088,1.9362,1.9979,2.053,2.1565,2.205,2.2506,2.299,2.3095,2.3245,2.3632,2.3693,2.3884,-1.0473,-0.9499,-0.5663,-0.3887,-0.3635,-0.45,-0.4639,-0.435,-0.5212,-0.5356,-0.5048,-0.5456,-0.5168,-0.4311,-0.3604,0.0,-0.4839,-0.5165,-0.6132,-0.7643,-0.762,-0.8234,-0.9306,-0.9427,-0.9967,-1.0863,-1.0951,-1.1548,-1.2576,-1.2171,-1.246,-1.3426,-1.2033,-1.1476,-1.1777,-1.2496,-1.2955,-1.3155,-1.4118,-1.45,-1.422,-1.3631,-1.3468,-1.3752,-1.1941,-1.1062,-1.1224,-1.0232,-0.9677,-0.971,-0.9243,-0.8693,-0.8039,0.0,0.0,0.0,0.0,0.0,0.0,0.0,0.0,0.0,0.0,0.0,0.0,0.0,0.0,0.0,0.3127,0.0,0.247,0.3398,0.0,0.0,0.0,0.5412,0.4903,0.4821,0.4567,0.3984,0.0,0.0,0.3078,0.2692,0.3385,0.5958,0.7076,0.7385,0.6793,0.766,0.8567,0.8728,0.8862,0.9389,1.0773,1.184,1.2903,1.4049,1.4517,1.4789,1.5514,1.6291,1.7111,1.7992,1.908,1.9984,2.0073,2.0613,2.1318,2.254,2.2887,2.302,2.3138,2.3168,2.3348,-1.1387,-1.0908,-0.9908,-0.9021,-0.8229,-0.7909,-0.8026,-0.8429,-0.8098,-0.8219,-0.8632,-0.8764,-0.8301,-0.7465,-0.7968,-0.795,-0.7587,-0.835,-0.9022,-0.9588,-0.9602,-0.9962,-1.0589,-1.1363,-1.1879,-1.2268,-1.3048,-1.3612,-1.3879,-1.3944,-1.3784,-1.3426,-1.324,-1.2899,-1.2403,-1.2377,-1.2778,-1.3608,-1.3875,-1.3912,-1.371,-1.4502,-1.4208,-1.2727,-1.2393,-1.2101,-1.1809,-1.0792,-1.0388,-1.0801,-1.0684,-1.0169,-0.917,-0.789,0.0,0.0,0.0,0.0,0.0,0.0,0.0,0.0,0.0,-0.0641,0.0058,0.0,0.0162,0.0,0.1485,0.1926,0.2562,0.2769,0.0,0.0,0.34,0.3567,0.2899,0.3467,0.3724,0.3292,0.3295,0.3373,0.3451,0.3059,0.3197,0.4379,0.4932,0.5582,0.6521,0.666,0.699,0.7738,0.8414,0.9276,1.0336,1.1704,1.2691,1.2832,1.3034,1.362,1.4928,1.5615,1.644,1.7632,1.773,1.8091,1.9135,1.9438,1.9781,2.061,2.1581,2.2494,2.2987,2.3095,2.3153,-1.37,-1.3193,-1.3379,-1.2903,-1.1888,-1.0167,-0.9634,-1.0002,-0.9609,-0.9592,-0.9848,-0.9918,-0.9662,-0.922,-0.9902,-0.9814,-0.9192,-0.9901,-1.0282,-1.0422,-1.0517,-1.0969,-1.1758,-1.2323,-1.2877,-1.3438,-1.4022,-1.437,-1.449,-1.4736,-1.47,-1.4361,-1.4485,-1.4172,-1.3455,-1.2689,-1.27,-1.3511,-1.3728,-1.4032,-1.4513,-1.4699,-1.4093,-1.2665,-1.2142,-1.1577,-1.095,-1.0221,-0.989,-0.9999,-0.9999,-0.9576,-0.8666,-0.754,-0.6459,0.0,0.0,0.0,0.0,0.0,0.0,0.0,0.0,0.0,0.0,0.0,-0.0409,0.0598,0.082,0.1198,0.1848,0.1784,0.1736,0.1762,0.2124,0.2195,0.1827,0.2277,0.2533,0.232,0.238,0.246,0.2481,0.2268,0.2352,0.3008,0.3258,0.384,0.5053,0.5522,0.6046,0.6892,0.7801,0.886,1.0074,1.13,1.2047,1.188,1.1647,1.2018,1.3488,1.402,1.4685,1.6124,1.6297,1.6561,1.7881,1.8297,1.8673,1.9593,2.0303,2.1211,2.2393,2.2662,2.2692,-1.6126,-1.5525,-1.5927,-1.5647,-1.474,-1.2141,-1.0869,-1.0616,-1.0656,-1.0514,-1.0254,-1.0372,-1.0354,-1.0284,-1.076,-1.0654,-1.0231,-1.0718,-1.0986,-1.1071,-1.1237,-1.1919,-1.2993,-1.2998,-1.3487,-1.4394,-1.4394,-1.452,-1.4736,-1.5011,-1.521,-1.5336,-1.5346,-1.5057,-1.4398,-1.3146,-1.2731,-1.3193,-1.3732,-1.4519,-1.5508,-1.4456,-1.3549,-1.2889,-1.157,-1.056,-0.9856,-0.9429,-0.9066,-0.8775,-0.8755,-0.8535,-0.8056,-0.6961,-0.6192,0.0,-0.4657,0.0,0.0,0.0,0.0,0.0,0.0,0.0,0.0,-0.1768,-0.0604,0.0221,0.0431,0.0517,0.0508,0.0732,0.0866,0.0879,0.1092,0.1245,0.1291,0.1301,0.1301,0.1301,0.1301,0.1234,0.1141,0.1031,0.1245,0.1775,0.1887,0.22,0.3044,0.4186,0.5193,0.5926,0.6848,0.7932,0.951,1.0582,1.1095,1.0928,1.0547,1.0527,1.2035,1.2351,1.2836,1.4211,1.4787,1.5313,1.6451,1.6945,1.7613,1.8691,1.9069,1.9823,2.1449,2.1912,2.2144,-1.5772,-1.6015,-1.6405,-1.6457,-1.6273,-1.5718,-1.4434,-1.2806,-1.2953,-1.2911,-1.2722,-1.2735,-1.235,-1.1706,-1.2504,-1.2415,-1.1666,-1.2485,-1.3113,-1.3529,-1.3551,-1.3958,-1.4621,-1.464,-1.476,-1.4933,-1.4939,-1.4963,-1.5035,-1.5309,-1.507,-1.4399,-1.4592,-1.4465,-1.4003,0.0,0.0,0.0,-1.451,-1.4883,-1.4257,-1.3923,-1.3268,-1.2298,-1.123,0.0,-1.1011,-1.0202,-0.9887,-1.0187,-1.0187,0.0,0.0,0.0,0.0,0.0,0.0,0.0,0.0,0.0,0.0,0.0,-0.4498,-0.4096,-0.3597,-0.2706,-0.2239,-0.2392,-0.1229,-0.0744,-0.1438,-0.0151,0.0456,-0.0241,0.0352,0.0819,0.0829,0.083,0.083,0.083,0.083,0.0807,0.074,0.0628,0.0582,0.0734,0.0683,0.0661,0.0716,0.2427,0.36,0.3883,0.5058,0.6429,0.802,0.9345,0.9987,0.9571,0.9805,1.0423,1.1472,1.2046,1.2501,1.341,1.3409,1.3581,1.458,1.5056,1.5675,1.658,1.7742,1.9175,2.0894,2.1064,2.1132,-1.7303,0.0,-1.79,-1.7865,0.0,-1.7425,-1.6465,-1.5047,-1.513,-1.5109,-1.5026,-1.4914,-1.4622,-1.421,-1.4768,-1.4392,-1.3387,-1.4195,-1.4444,-1.4224,-1.4478,-1.4779,-1.5107,-1.5107,-1.5107,-1.5107,-1.5107,-1.5172,-1.5285,-1.5452,-1.53,-1.4936,-1.5073,-1.5026,-1.4843,-1.4604,-1.4267,-1.384,-1.4603,-1.5018,-1.5029,-1.4958,-1.4525,-1.371,-1.3052,0.0,0.0,0.0,0.0,0.0,0.0,0.0,0.0,-0.9649,0.0,-0.8678,-0.7891,-0.7045,-0.6219,-0.6088,-0.5943,-0.5677,-0.5589,-0.5074,-0.3991,-0.368,-0.3419,-0.3068,-0.22,-0.182,-0.2123,-0.1259,-0.0872,-0.1296,-0.0962,-0.0694,-0.0671,-0.0671,-0.0671,-0.0693,-0.0693,-0.0582,-0.0224,-0.0269,-0.0178,0.0133,0.0177,0.0088,0.0155,0.139,0.2542,0.2992,0.3903,0.51,0.6432,0.7911,0.8828,0.854,0.9266,0.9985,1.0274,1.0804,1.1408,1.2099,1.2186,1.2392,1.3359,1.377,1.428,1.5411,1.6271,1.7246,1.8703,1.972,2.0549,-1.8879,-1.919,-1.9356,-1.918,-1.882,-1.8559,-1.7997,-1.7245,0.0,0.0,0.0,-1.6527,-1.6457,-1.6457,-1.6609,-1.6044,-1.4951,-1.5532,-1.5283,-1.4437,-1.4881,-1.5218,-1.5475,-1.5482,-1.5475,-1.5506,-1.5482,-1.5523,-1.554,-1.554,-1.5642,-1.5784,-1.5801,-1.5801,-1.5801,-1.5855,-1.5524,-1.4827,-1.4749,-1.5197,-1.6114,-1.5982,-1.5652,-1.517,-1.4709,-1.3809,-1.2452,-1.2148,-1.1568,-1.0662,-1.0521,-1.0269,-0.9857,-0.9748,-0.9526,-0.9161,-0.9128,-0.8757,-0.7996,-0.7752,-0.7277,-0.6465,-0.6352,-0.5776,-0.4524,-0.4712,-0.449,-0.3539,-0.3181,-0.2965,-0.2965,-0.2534,-0.2371,-0.2529,-0.2396,-0.2285,-0.2283,-0.2306,-0.2244,-0.2281,-0.2241,-0.2075,-0.1532,-0.1441,-0.1228,-0.0705,-0.0666,-0.0424,-0.0154,0.0658,0.1675,0.2435,0.3038,0.3768,0.4881,0.6375,0.7309,0.7368,0.8482,0.924,0.8982,0.931,1.005,1.0712,1.0955,1.1526,1.244,1.2708,1.3222,1.4573,1.4852,1.5155,1.6269,1.7964,1.9335,-1.8732,-1.8833,-1.9529,-1.9768,-1.9748,-2.0041,-1.9876,-1.9296,-1.7511,-1.6698,-1.6698,-1.6678,-1.6657,-1.665,-1.6698,-1.6319,-1.5647,-1.5755,-1.5585,-1.5232,-1.5308,-1.594,-1.6967,-1.7005,-1.6998,-1.7005,-1.6981,-1.6558,-1.5825,-1.5754,-1.5778,-1.5801,-1.5801,-1.5801,-1.5825,-1.6035,-1.6092,-1.5949,-1.5801,-1.5778,-1.5937,-1.5105,-1.4612,-1.4502,-1.3701,-1.308,-1.2824,-1.2803,-1.2678,-1.25,-1.2128,-1.2119,-1.2577,-1.2221,-1.1879,-1.1546,-1.1506,-1.0953,-0.9749,-0.8783,-0.7732,-0.6551,-0.6396,-0.6222,-0.5852,-0.5651,-0.5582,-0.5585,-0.4671,-0.4493,-0.5298,-0.4056,-0.343,-0.4116,-0.3556,-0.3063,-0.3127,-0.3106,-0.3128,-0.3148,-0.3039,-0.3014,-0.2786,-0.2732,-0.2645,-0.2491,-0.2226,-0.2107,-0.1208,-0.038,0.0559,0.1367,0.1681,0.2172,0.3242,0.4774,0.5639,0.5766,0.6738,0.7669,0.783,0.8536,0.9087,0.9235,0.9784,1.0484,1.1338,1.1537,1.2017,1.2978,1.3588,1.4248,1.486,1.5677,1.6485,-1.9144,-1.9355,-1.9511,-1.9703,-1.9923,-2.0106,-2.0079,-1.9832,-1.912,-1.8497,-1.8126,-1.8126,-1.8098,-1.8115,-1.8322,-1.8016,-1.7344,-1.7728,-1.7587,-1.6994,-1.7172,-1.7542,-1.8025,-1.7582,-1.7309,-1.7255,-1.6739,-1.6244,-1.5832,-1.5927,-1.6028,-1.6028,-1.6163,-1.6228,-1.6258,-1.6353,-1.64,-1.6416,-1.6322,-1.6359,-1.6494,-1.6052,-1.5872,-1.5972,-1.5503,-1.509,-1.4719,-1.4952,-1.488,-1.4487,-1.3988,-1.3855,-1.4126,-1.3454,-1.2968,-1.2842,-1.2821,-1.2325,-1.1146,-0.9944,-0.9008,-0.8389,-0.7801,-0.7458,-0.7359,-0.6563,-0.6128,-0.6249,-0.571,-0.5605,-0.6133,-0.5334,-0.4944,-0.5393,-0.5022,-0.4791,-0.4763,-0.4786,-0.4767,-0.4782,-0.4776,-0.4547,-0.3989,-0.3914,-0.3648,-0.3244,-0.3077,-0.2675,-0.1689,-0.1162,-0.0499,0.0405,0.0651,0.1077,0.1905,0.2282,0.2992,0.3818,0.5188,0.6073,0.652,0.7408,0.8181,0.8339,0.889,0.948,0.9997,1.0332,1.0933,1.1703,1.2206,1.2728,1.3184,1.3358,1.3983,-1.9604,-1.9996,-1.9593,-1.9666,-2.0012,-2.0021,-1.9996,-1.9941,-2.0214,-2.0014,-1.9483,-1.9511,-1.9476,-1.9356,-1.9813,-1.9537,-1.8886,-1.9401,-1.9248,-1.8556,-1.8531,-1.8765,-1.9041,-1.7986,-1.7582,-1.7808,-1.699,-1.6426,-1.6275,-1.6487,-1.6494,-1.6336,-1.6494,-1.6612,-1.6612,-1.6659,-1.6683,-1.6683,-1.673,-1.6847,-1.7003,-1.7043,-1.7153,-1.7286,-1.7404,-1.7201,-1.6685,-1.7084,-1.6953,-1.6177,-1.5639,-1.5259,-1.5003,-1.4178,-1.3684,-1.3684,-1.3684,-1.3214,-1.215,-1.1077,-1.0337,-1.0092,-0.9332,-0.8747,-0.845,-0.7552,-0.6783,-0.6551,-0.6352,-0.6306,-0.6344,-0.6469,-0.6425,-0.6239,-0.6412,-0.6332,-0.6184,-0.6174,-0.6168,-0.6176,-0.6165,-0.5825,-0.527,-0.5048,-0.4771,-0.4131,-0.3683,-0.3163,-0.247,-0.2138,-0.1522,-0.0659,-0.018,0.0269,0.0943,0.0852,0.1165,0.2419,0.3731,0.455,0.5016,0.6012,0.6943,0.7137,0.7804,0.8466,0.8824,0.9353,1.005,1.0809,1.1084,1.1268,1.1797,1.1884,1.2363,-1.978,-2.0326,-2.0026,-2.0079,-2.0402,-2.0429,-2.0237,-1.9932,-1.993,-1.9941,-1.9907,-2.0225,-1.9989,-1.9467,-2.0127,-1.9973,-1.92,-1.9521,-1.9516,-1.9035,-1.8172,-1.8734,-2.0187,-1.8572,-1.8511,-1.9681,-1.9047,-1.811,-1.7381,-1.7638,-1.7381,-1.6659,-1.6588,-1.6612,-1.6636,-1.6847,-1.6956,-1.6956,-1.7153,-1.7145,-1.7026,-1.7176,-1.7279,-1.7309,-1.7776,-1.7986,-1.7893,-1.8388,-1.8172,-1.7232,-1.6676,-1.6021,-1.5172,-1.4544,-1.4226,-1.4202,-1.4226,-1.3661,-1.2412,-1.1999,-1.1439,-1.0496,-1.0324,-0.9833,-0.8979,-0.8683,-0.8046,-0.7154,-0.6628,-0.644,-0.6445,-0.7189,-0.7263,-0.6545,-0.7155,-0.7446,-0.6589,-0.6385,-0.636,-0.6382,-0.6402,-0.6292,-0.6071,-0.6052,-0.6016,-0.5677,-0.5098,-0.456,-0.4198,-0.3578,-0.2729,-0.1639,-0.0728,-0.0113,0.0225,0.0853,0.1122,0.1592,0.2374,0.302,0.3376,0.3883,0.4519,0.5545,0.6297,0.7178,0.8199,0.8999,0.9222,0.9784,1.0074,1.028,1.0842,1.1253,1.2193,-2.0593,-2.0864,-2.0481,-2.0236,-2.0178,-2.0432,-2.0462,-2.0331,-2.0563,-2.0656,-2.0724,-2.1086,-2.0883,-2.0298,-2.0854,-2.0943,-2.0743,-2.1107,-2.1229,-2.1029,-2.0656,-2.0903,-2.1427,-2.03,-1.9786,-1.9735,-1.8887,-1.7964,-1.7255,-1.7279,-1.7286,-1.7044,-1.7021,-1.7005,-1.7052,-1.7434,-1.7667,-1.7675,-1.8009,-1.8149,-1.8063,-1.7877,-1.7909,-1.8172,-1.8411,-1.8527,-1.8496,-1.8442,-1.8195,-1.7731,-1.6749,-1.5947,-1.5527,-1.4747,-1.4322,-1.4322,-1.4322,-1.4052,-1.3535,-1.3257,-1.2937,-1.249,-1.1901,-1.138,-1.0941,-1.0378,-0.9723,-0.9106,-0.7776,-0.6861,-0.6961,-0.7282,-0.7335,-0.7011,-0.7282,-0.736,-0.6961,-0.6886,-0.6861,-0.6861,-0.6861,-0.6822,-0.6726,-0.6687,-0.6716,-0.6716,-0.6336,-0.5939,-0.535,-0.4875,-0.414,-0.3063,-0.2376,-0.1494,-0.043,0.0269,0.0539,0.0651,0.0897,0.1254,0.2016,0.2752,0.3486,0.3888,0.4881,0.5786,0.6561,0.7716,0.8382,0.879,0.9087,0.9345,0.997,1.0147,1.0633,-2.1686,-2.1771,-2.1233,-2.0778,-2.0472,-2.0652,-2.0844,-2.0958,-2.1155,-2.1258,-2.139,-2.1672,-2.1667,-2.1492,-2.166,-2.1779,-2.1849,-2.223,-2.2441,-2.2463,-2.2233,-2.2211,-2.2344,-2.0926,-2.0308,-2.0113,-1.9139,-1.8319,-1.7847,-1.7963,-1.7948,-1.7792,-1.7901,-1.7901,-1.7769,-1.8102,-1.8288,-1.8319,-1.8643,-1.8874,-1.8943,-1.8681,-1.8612,-1.8796,-1.8943,-1.9035,-1.9004,-1.8804,-1.8557,-1.828,-1.6962,-1.6082,-1.5775,-1.4836,-1.4322,-1.4322,-1.4322,-1.4322,-1.4298,-1.4118,-1.3997,-1.3949,-1.3305,-1.2786,-1.2417,-1.1755,-1.1219,-1.0734,-0.9304,-0.8319,-0.8095,-0.7801,-0.763,-0.7627,-0.7655,-0.7559,-0.7238,-0.721,-0.7185,-0.721,-0.7135,-0.716,-0.7083,-0.7154,-0.7273,-0.7145,-0.7148,-0.7012,-0.6249,-0.5999,-0.5569,-0.4391,-0.4137,-0.3249,-0.13,-0.0612,-0.0498,-0.0292,-0.0157,0.0404,0.0897,0.1681,0.2352,0.2596,0.3705,0.4792,0.57,0.6675,0.7452,0.7811,0.8239,0.8738,0.9363,0.9204,0.9387,-2.2906,-2.3358,-2.2318,-2.1809,-2.1769,-2.1368,-2.1423,-2.1762,-2.1444,-2.1438,-2.18,-2.1857,-2.2152,-2.2622,-2.2444,-2.2142,-2.1918,-2.2233,-2.2555,-2.2684,-2.1863,-2.1904,-2.2542,-1.9931,-1.9863,-2.1758,-2.0543,-2.0053,-2.0529,-2.0548,-2.0051,-1.8773,-1.924,-1.9332,-1.8781,-1.8712,-1.8781,-1.8773,-1.8874,-1.9073,-1.95,-1.9523,-1.9271,-1.8966,-1.9294,-1.9546,-1.96,-1.9965,-1.9706,-1.8788,-1.7669,-1.6727,-1.5822,-1.4836,-1.4346,-1.4346,-1.4346,-1.4322,-1.4346,-1.4322,-1.4304,-1.4274,-1.4178,-1.3781,-1.2931,-1.2684,-1.2242,-1.1341,-1.1072,-1.0676,-1.03,-0.9402,-0.8838,-0.8785,-0.8768,-0.835,-0.7434,-0.7506,-0.7235,-0.7285,-0.7313,-0.7285,-0.7235,-0.7646,-0.7646,-0.7391,-0.7235,-0.7176,-0.7142,-0.7089,-0.6583,-0.5862,-0.5398,-0.491,-0.3231,-0.2005,-0.1509,-0.1409,-0.0998,-0.0225,-0.0022,0.0225,0.0696,0.1189,0.1859,0.2995,0.4659,0.5766,0.6366,0.6995,0.7946,0.8541,0.8699,0.9067,0.9172,-2.4329,-2.3706,-2.3013,-2.257,-2.2277,-2.2101,-2.213,-2.2297,-2.2401,-2.2527,-2.2662,-2.2638,-2.2759,-2.2982,-2.2894,-2.2773,-2.2628,-2.2532,-2.2664,-2.288,-2.2353,-2.2394,-2.2796,-2.185,-2.153,-2.1939,-2.1521,-2.0881,-2.0243,-1.9795,-1.9309,-1.8935,-1.905,-1.905,-1.8889,-1.9142,-1.9294,-1.9348,-1.9577,-1.9851,-2.0011,-2.0056,-1.9951,-1.9791,-1.9951,-2.0033,-2.0042,-1.9615,-1.8888,-1.7878,-1.6891,-1.5964,-1.5201,-1.4927,-1.4814,-1.4814,-1.4814,-1.4814,-1.4814,-1.4807,-1.4736,-1.4568,-1.4544,-1.4346,-1.3854,-1.3709,-1.3535,-1.3143,-1.2484,-1.2309,-1.2503,-1.1385,-1.0342,-1.0333,-1.0313,-1.0116,-0.9747,-0.9184,-0.8743,-0.8619,-0.8205,-0.7715,-0.7786,-0.7892,-0.7917,-0.7764,-0.7711,-0.7686,-0.7715,-0.769,-0.7462,-0.7056,-0.686,-0.6608,-0.5891,-0.3686,-0.2481,-0.2558,-0.2359,-0.2064,-0.1827,-0.1176,-0.0632,-0.0113,0.036,0.1414,0.3221,0.4399,0.5063,0.5849,0.6847,0.7465,0.7918,0.8036,0.818,-2.5217,-2.4258,-2.3942,-2.3636,-2.333,-2.3184,-2.3213,-2.333,-2.3464,-2.3555,-2.3564,-2.3532,-2.351,-2.3503,-2.3364,-2.3327,-2.3269,-2.2877,-2.2781,-2.2879,-2.2625,-2.2645,-2.2826,-2.2669,-2.2562,-2.2473,-2.2372,-2.1628,-2.0416,-2.0062,-1.9743,-1.9325,-1.9486,-1.9509,-1.9394,-1.9654,-1.9828,-1.9897,-2.0155,-2.0292,-2.0292,-2.0292,-2.0292,-2.0246,-2.0011,-1.9828,-1.982,-1.9446,-1.865,-1.7436,-1.664,-1.5805,-1.4879,-1.4957,-1.5107,-1.5107,-1.5107,-1.5107,-1.5107,-1.5107,-1.5005,-1.4855,-1.4814,-1.4742,-1.4562,-1.4544,-1.4568,-1.437,-1.3908,-1.3715,-1.3932,-1.3052,-1.2072,-1.1731,-1.139,-1.1219,-1.117,-1.0534,-1.017,-0.9895,-0.8803,-0.8294,-0.8506,-0.8212,-0.8038,-0.7988,-0.7988,-0.7988,-0.7988,-0.7988,-0.7939,-0.7768,-0.7658,-0.7542,-0.7125,-0.5725,-0.4322,-0.4238,-0.3858,-0.3665,-0.3248,-0.257,-0.1933,-0.1429,-0.0587,0.0451,0.1596,0.2847,0.3753,0.4501,0.5149,0.5827,0.6294,0.6786,0.7064,-2.5473,-2.5082,-2.5096,-2.4936,-2.4809,-2.4443,-2.4619,-2.4809,-2.4551,-2.4404,-2.4346,-2.4362,-2.4303,-2.4277,-2.3913,-2.3811,-2.3765,-2.3362,-2.2959,-2.2635,-2.2527,-2.2529,-2.2547,-2.2071,-2.2371,-2.3244,-2.3113,-2.229,-2.1033,-2.1472,-2.1248,-2.0532,-2.0758,-2.0645,-2.0246,-2.0201,-2.0269,-2.0246,-2.0283,-2.0292,-2.0292,-2.0292,-2.0292,-2.0201,-1.9492,-1.9003,-1.8903,-1.9606,-1.9026,-1.7452,-1.7172,-1.6412,-1.504,-1.5005,-1.5131,-1.5148,-1.5131,-1.5131,-1.5131,-1.5155,-1.5178,-1.51,-1.51,-1.5077,-1.5005,-1.5005,-1.5011,-1.4933,-1.4766,-1.4688,-1.464,-1.4298,-1.3685,-1.2829,-1.2077,-1.1609,-1.1439,-1.1268,-1.1175,-1.0872,-0.9502,-0.8759,-0.9361,-0.9126,-0.8453,-0.8106,-0.8134,-0.8137,-0.8038,-0.7988,-0.7988,-0.7988,-0.7939,-0.7841,-0.7904,-0.7822,-0.6818,-0.5968,-0.5403,-0.4987,-0.4476,-0.3829,-0.3232,-0.266,-0.1558,-0.0502,0.0747,0.1917,0.2486,0.3191,0.3733,0.4295,0.4864,0.5438,0.6096,-2.563,-2.5474,-2.5209,-2.5082,-2.5072,-2.4936,-2.4984,-2.5121,-2.5201,-2.5156,-2.4936,-2.4887,-2.4697,-2.4453,-2.4277,-2.432,-2.444,-2.4004,-2.3482,-2.2969,-2.2656,-2.2573,-2.2686,-2.2793,-2.2964,-2.3028,-2.2312,-2.1735,-2.1311,-2.1087,-2.0668,-2.0419,-2.0532,-2.0541,-2.0314,-2.0292,-2.0292,-2.0292,-2.0292,-2.0292,-2.0292,-2.0292,-2.0292,-2.0269,-1.9988,-1.9538,-1.8834,-1.8442,-1.7592,-1.6358,-1.6459,-1.6143,-1.5469,-1.5452,-1.5594,-1.5571,-1.5594,-1.5571,-1.5594,-1.5571,-1.5506,-1.5404,-1.538,-1.5261,-1.5131,-1.5131,-1.5131,-1.5107,-1.5005,-1.4987,-1.4933,-1.4736,-1.4322,-1.3854,-1.3535,-1.3221,-1.3071,-1.2635,-1.195,-1.1292,-1.0594,-1.0271,-1.0193,-0.9887,-0.96,-0.8577,-0.8757,-0.892,-0.8237,-0.8113,-0.7988,-0.7988,-0.7988,-0.7988,-0.7992,-0.7995,-0.751,-0.6988,-0.6625,-0.6182,-0.5677,-0.5221,-0.4597,-0.3648,-0.254,-0.1363,-0.0092,0.0794,0.1398,0.1871,0.2408,0.2984,0.3554,0.4136,0.4735,-2.6528,-2.646,-2.5875,-2.5623,-2.5623,-2.5623,-2.5623,-2.5638,-2.5775,-2.5769,-2.5605,-2.5517,-2.538,-2.517,-2.4993,-2.5007,-2.5129,-2.4698,-2.4282,-2.3794,-2.3029,-2.2721,-2.2593,-2.2656,-2.2544,-2.2183,-2.1515,-2.1109,-2.0975,-2.0564,-2.0292,-2.0292,-2.0292,-2.0314,-2.0292,-2.0292,-2.0292,-2.0292,-2.0292,-2.036,-2.0428,-2.045,-2.0496,-2.0487,-2.0116,-1.9606,-1.8995,-1.8018,-1.6985,-1.6153,-1.5954,-1.5801,-1.554,-1.5689,-1.5801,-1.5801,-1.5801,-1.5801,-1.5801,-1.5778,-1.5761,-1.5635,-1.5611,-1.5547,-1.541,-1.5363,-1.5356,-1.5363,-1.5291,-1.5244,-1.522,-1.5005,-1.479,-1.4616,-1.4346,-1.4322,-1.4202,-1.3733,-1.3149,-1.2484,-1.1891,-1.1648,-1.1785,-1.1346,-1.1394,-1.0469,-1.0219,-0.9801,-0.8945,-0.863,-0.8482,-0.8233,-0.7988,-0.7988,-0.7988,-0.7988,-0.7988,-0.7842,-0.7697,-0.7324,-0.6883,-0.6537,-0.6023,-0.463,-0.3436,-0.2163,-0.0909,-0.0207,0.0409,0.0806,0.1125,0.1594,0.2111,0.2598,0.3172,-2.7806,-2.7699,-2.6849,-2.6408,-2.6408,-2.6408,-2.6398,-2.6404,-2.6221,-2.6235,-2.6336,-2.6161,-2.6186,-2.6308,-2.5909,-2.5792,-2.5792,-2.5443,-2.5267,-2.4892,-2.4084,-2.3235,-2.2604,-2.2017,-2.1592,-2.1324,-2.0989,-2.07,-2.051,-2.0484,-2.0337,-2.0314,-2.0292,-2.0292,-2.0292,-2.0292,-2.0292,-2.0292,-2.0314,-2.045,-2.0677,-2.069,-2.0781,-2.093,-2.0053,-1.9567,-1.9498,-1.8457,-1.7289,-1.6349,-1.5842,-1.5564,-1.554,-1.5683,-1.5801,-1.5801,-1.5801,-1.5801,-1.5801,-1.5801,-1.5778,-1.5778,-1.5754,-1.5801,-1.5737,-1.5713,-1.5713,-1.5713,-1.5588,-1.5516,-1.5475,-1.5267,-1.51,-1.5011,-1.4688,-1.4472,-1.4352,-1.4298,-1.4154,-1.4004,-1.3229,-1.2721,-1.3719,-1.3005,-1.3121,-1.3282,-1.2412,-1.1111,-1.017,-0.9702,-0.9188,-0.8821,-0.8531,-0.8137,-0.8187,-0.7988,-0.7988,-0.8003,-0.8004,-0.7849,-0.7647,-0.735,-0.6828,-0.5477,-0.4378,-0.3056,-0.2085,-0.1472,-0.0897,-0.0521,-0.0178,0.0195,0.0767,0.1395,0.1778,-2.6873,-2.6826,-2.6616,-2.6496,-2.6496,-2.6496,-2.6496,-2.6496,-2.6448,-2.6448,-2.6472,-2.6424,-2.6448,-2.6476,-2.6399,-2.6421,-2.6442,-2.612,-2.6056,-2.6115,-2.5562,-2.4604,-2.3438,-2.204,-2.1617,-2.1919,-2.1164,-2.0715,-2.0633,-2.0802,-2.0741,-2.0314,-2.0292,-2.0292,-2.0292,-2.0292,-2.0292,-2.0337,-2.0518,-2.0609,-2.069,-2.0871,-2.0952,-2.0952,-2.0673,-2.0515,-2.0447,-1.9041,-1.7746,-1.6741,-1.5906,-1.5571,-1.5713,-1.5778,-1.5801,-1.5801,-1.5801,-1.5801,-1.5801,-1.5801,-1.5801,-1.5801,-1.5801,-1.5801,-1.5801,-1.5801,-1.5801,-1.5778,-1.573,-1.5713,-1.5683,-1.5523,-1.5333,-1.5124,-1.4957,-1.4861,-1.4861,-1.4885,-1.4885,-1.4807,-1.4142,-1.4046,-1.4112,-1.437,-1.4358,-1.454,-1.376,-1.2465,-1.156,-1.1072,-1.0681,-0.9879,-0.9365,-0.8751,-0.8333,-0.8113,-0.7988,-0.7988,-0.8003,-0.7975,-0.7801,-0.7645,-0.6897,-0.5876,-0.5345,-0.4268,-0.3583,-0.2983,-0.2462,-0.1802,-0.1357,-0.0887,-0.0107,0.055,0.0691,-2.6952,-2.7092,-2.6702,-2.6659,-2.6812,-2.6832,-2.6832,-2.6818,-2.6723,-2.6747,-2.6784,-2.6723,-2.6723,-2.6832,-2.6846,-2.6914,-2.7017,-2.678,-2.6761,-2.6775,-2.6384,-2.5151,-2.3553,-2.2009,-2.1537,-2.1385,-2.09,-2.0585,-2.0505,-2.066,-2.0511,-2.0357,-2.0292,-2.0292,-2.0292,-2.0292,-2.0292,-2.0337,-2.0564,-2.0744,-2.0848,-2.106,-2.1217,-2.1253,-2.1239,-2.1172,-2.0947,-1.9484,-1.8072,-1.6999,-1.6119,-1.5683,-1.5784,-1.5801,-1.5801,-1.5801,-1.5801,-1.5801,-1.5801,-1.5801,-1.5801,-1.5801,-1.5801,-1.5801,-1.5801,-1.5801,-1.5801,-1.5801,-1.5801,-1.5801,-1.5784,-1.5689,-1.5571,-1.5458,-1.5387,-1.5315,-1.5131,-1.5083,-1.5107,-1.5022,-1.4843,-1.4651,-1.4651,-1.5077,-1.5319,-1.5255,-1.4743,-1.3673,-1.278,-1.2538,-1.2072,-1.1194,-1.0685,-1.0243,-0.983,-0.9587,-0.9177,-0.9032,-0.7914,-0.7928,-0.792,-0.7827,-0.7424,-0.6734,-0.6228,-0.5652,-0.4964,-0.4232,-0.3461,-0.2871,-0.2452,-0.195,-0.1217,-0.0719,-0.0544,-2.7422,-2.7701,-2.6888,-2.6757,-2.7044,-2.713,-2.7042,-2.7132,-2.6921,-2.6986,-2.7156,-2.7034,-2.7058,-2.732,-2.7214,-2.7296,-2.7286,-2.702,-2.6911,-2.6689,-2.6171,-2.4927,-2.2961,-2.2288,-2.1466,-2.0667,-2.032,-2.0283,-2.0346,-2.009,-2.0056,-2.0177,-2.0232,-2.0292,-2.0292,-2.0292,-2.0292,-2.036,-2.0609,-2.0826,-2.0997,-2.1262,-2.1472,-2.1575,-2.1504,-2.1293,-2.088,-1.9766,-1.8396,-1.6976,-1.6292,-1.5998,-1.592,-1.5849,-1.5872,-1.5825,-1.5801,-1.5801,-1.5801,-1.5801,-1.5801,-1.5801,-1.5801,-1.5801,-1.5801,-1.5801,-1.5801,-1.5801,-1.5801,-1.5801,-1.5801,-1.5784,-1.5761,-1.5713,-1.5761,-1.5571,-1.5291,-1.5172,-1.5172,-1.5178,-1.5172,-1.5178,-1.528,-1.5497,-1.5793,-1.5606,-1.5191,-1.4712,-1.4088,-1.3848,-1.321,-1.2334,-1.2042,-1.1926,-1.1565,-1.1228,-1.074,-1.0249,-0.8446,-0.7841,-0.7944,-0.7891,-0.7907,-0.7576,-0.6906,-0.6475,-0.6136,-0.535,-0.4495,-0.4006,-0.365,-0.3128,-0.2568,-0.2256,-0.2026,-2.6265,-2.6337,-2.6156,-2.6105,-2.6188,-2.6208,-2.6405,-2.6747,-2.67,-2.6884,-2.7189,-2.7204,-2.7248,-2.732,-2.732,-2.732,-2.7143,-2.663,-2.6032,-2.5373,-2.4938,-2.4193,-2.3065,-2.2588,-2.2126,-2.152,-2.0929,-2.0539,-2.0353,-2.0607,-2.0602,-1.9977,-2.0248,-2.0292,-2.0292,-2.0314,-2.0292,-2.0382,-2.0713,-2.093,-2.1042,-2.1419,-2.1651,-2.1687,-2.1651,-2.123,-2.065,-2.019,-1.9086,-1.7692,-1.7044,-1.6669,-1.6109,-1.6464,-1.6433,-1.5967,-1.5801,-1.5801,-1.5801,-1.5801,-1.5801,-1.5825,-1.5849,-1.5801,-1.5801,-1.5825,-1.5825,-1.5801,-1.5801,-1.5801,-1.5801,-1.5801,-1.5801,-1.5801,-1.5801,-1.5761,-1.5666,-1.5642,-1.5594,-1.5618,-1.5625,-1.5648,-1.5642,-1.5672,-1.5804,-1.5781,-1.5679,-1.5547,-1.5285,-1.4999,-1.443,-1.3603,-1.3556,-1.3462,-1.3114,-1.2704,-1.2155,-1.1347,-0.9573,-0.8141,-0.8245,-0.8031,-0.8072,-0.789,-0.7499,-0.7141,-0.6777,-0.6329,-0.5435,-0.5128,-0.4801,-0.4268,-0.3818,-0.3619,-0.3235,-2.5378,-2.5575,-2.5575,-2.5689,-2.5887,-2.5918,-2.6043,-2.6314,-2.6509,-2.6716,-2.6998,-2.7161,-2.7309,-2.732,-2.7286,-2.7132,-2.6596,-2.5911,-2.5319,-2.4954,-2.4648,-2.4145,-2.349,-2.3001,-2.2612,-2.209,-2.1525,-2.1048,-2.0953,-2.0882,-2.0647,-2.0264,-2.0468,-2.047,-2.0351,-2.0405,-2.0405,-2.0397,-2.0749,-2.0997,-2.1064,-2.1432,-2.1687,-2.1687,-2.1687,-2.141,-2.1064,-2.0515,-1.9507,-1.8434,-1.7971,-1.7295,-1.6109,-1.6298,-1.6251,-1.5944,-1.5801,-1.5801,-1.5801,-1.5825,-1.5855,-1.5974,-1.5974,-1.6004,-1.6004,-1.5981,-1.5903,-1.5849,-1.5801,-1.5801,-1.5801,-1.5801,-1.5801,-1.5801,-1.5801,-1.5801,-1.5801,-1.5801,-1.5801,-1.5801,-1.5778,-1.5778,-1.5801,-1.5841,-1.5841,-1.5868,-1.5831,-1.5705,-1.5769,-1.5549,-1.5581,-1.5155,-1.5139,-1.4967,-1.4635,-1.4153,-1.3555,-1.2446,-1.0882,-0.9609,-0.9008,-0.866,-0.8263,-0.791,-0.753,-0.7476,-0.7131,-0.672,-0.6468,-0.6279,-0.5891,-0.5367,-0.5005,-0.4778,-0.4262,-2.4724,-2.5108,-2.5108,-2.5325,-2.567,-2.567,-2.5678,-2.5844,-2.6208,-2.6353,-2.6581,-2.7009,-2.7133,-2.7195,-2.7289,-2.6822,-2.6091,-2.5343,-2.4894,-2.4581,-2.4291,-2.3869,-2.3383,-2.3057,-2.2762,-2.2059,-2.1744,-2.1598,-2.1381,-2.1099,-2.1028,-2.0891,-2.099,-2.093,-2.0668,-2.0609,-2.0623,-2.051,-2.0794,-2.0997,-2.1042,-2.141,-2.162,-2.1687,-2.1687,-2.153,-2.1163,-2.0583,-1.9727,-1.8696,-1.8565,-1.7568,-1.641,-1.5991,-1.5903,-1.5872,-1.5801,-1.5801,-1.5801,-1.5825,-1.5903,-1.6177,-1.6201,-1.6224,-1.6248,-1.6241,-1.6163,-1.6069,-1.6015,-1.5991,-1.5944,-1.5991,-1.5974,-1.5903,-1.5879,-1.5876,-1.5892,-1.5868,-1.5888,-1.5801,-1.5815,-1.5798,-1.5895,-1.5948,-1.5952,-1.5945,-1.5915,-1.5935,-1.5995,-1.6075,-1.6106,-1.613,-1.5964,-1.5806,-1.5503,-1.5375,-1.4771,-1.36,-1.2122,-1.1248,-1.0204,-0.9703,-0.9221,-0.796,-0.7524,-0.7462,-0.7374,-0.7037,-0.6933,-0.7102,-0.6886,-0.6269,-0.601,-0.5919,-0.5297,-2.4549,-2.4611,-2.4611,-2.4652,-2.4746,-2.4756,-2.4994,-2.5294,-2.5439,-2.5668,-2.6063,-2.6498,-2.6705,-2.6812,-2.7164,-2.6836,-2.5974,-2.5148,-2.4461,-2.3892,-2.3454,-2.2987,-2.2978,-2.2891,-2.2845,-2.2827,-2.2395,-2.1919,-2.1879,-2.1806,-2.1678,-2.157,-2.1557,-2.1456,-2.129,-2.111,-2.091,-2.076,-2.092,-2.1019,-2.1118,-2.1374,-2.1616,-2.1715,-2.1707,-2.1347,-2.0757,-2.0374,-1.9453,-1.7792,-1.7559,-1.6925,-1.6289,-1.655,-1.6482,-1.5991,-1.5801,-1.5801,-1.5832,-1.5832,-1.5957,-1.613,-1.6248,-1.6359,-1.6478,-1.6541,-1.6471,-1.6447,-1.64,-1.6447,-1.6464,-1.6441,-1.6356,-1.6231,-1.6205,-1.6225,-1.6236,-1.6234,-1.6136,-1.5992,-1.5915,-1.5874,-1.602,-1.6244,-1.6443,-1.6435,-1.6364,-1.6353,-1.6368,-1.6473,-1.653,-1.6577,-1.6579,-1.6388,-1.6179,-1.6184,-1.5839,-1.4733,-1.3554,-1.3003,-1.2037,-1.118,-1.0264,-0.8909,-0.7841,-0.7442,-0.732,-0.7182,-0.7131,-0.7121,-0.7073,-0.7029,-0.6764,-0.6454,-0.6251,-2.4507,-2.4507,-2.4507,-2.4507,-2.4507,-2.4507,-2.4621,-2.4848,-2.5086,-2.5325,-2.5627,-2.6011,-2.6229,-2.6376,-2.6739,-2.6401,-2.5455,-2.4643,-2.3877,-2.3138,-2.277,-2.2703,-2.2795,-2.282,-2.3147,-2.3324,-2.3053,-2.2702,-2.2618,-2.2552,-2.2445,-2.2254,-2.2215,-2.2168,-2.1906,-2.1644,-2.1389,-2.1244,-2.1184,-2.1181,-2.123,-2.1577,-2.1876,-2.1889,-2.1631,-2.1267,-2.0886,-2.0176,-1.9312,-1.8119,-1.7782,-1.7196,-1.6728,-1.6548,-1.6632,-1.6001,-1.5838,-1.5879,-1.5981,-1.6028,-1.6201,-1.6579,-1.6602,-1.6666,-1.6784,-1.6807,-1.6737,-1.6643,-1.6626,-1.6682,-1.6836,-1.6867,-1.6879,-1.6915,-1.6888,-1.6828,-1.6749,-1.6722,-1.6585,-1.631,-1.6075,-1.6103,-1.629,-1.6551,-1.6905,-1.6941,-1.6795,-1.6772,-1.6767,-1.684,-1.6907,-1.6767,-1.6734,-1.6593,-1.6404,-1.6375,-1.6332,-1.5411,-1.4775,-1.4222,-1.3586,-1.2609,-1.1202,-0.9719,-0.8785,-0.8289,-0.7374,-0.7299,-0.7197,-0.7124,-0.7098,-0.7098,-0.7095,-0.6985,-0.6719,-2.4507,-2.4507,-2.4507,-2.4507,-2.4507,-2.4507,-2.4507,-2.458,-2.4879,-2.5034,-2.5139,-2.5511,-2.5673,-2.5651,-2.5714,-2.55,-2.4633,-2.3963,-2.3435,-2.3031,-2.2861,-2.293,-2.303,-2.313,-2.3322,-2.3662,-2.3692,-2.3756,-2.3542,-2.3337,-2.3101,-2.2999,-2.3067,-2.2857,-2.2529,-2.2294,-2.2057,-2.1831,-2.1603,-2.1455,-2.1297,-2.1724,-2.1899,-2.171,-2.1214,-2.0914,-2.0688,-1.9846,-1.9077,-1.8285,-1.7888,-1.7488,-1.6868,-1.6757,-1.6527,-1.6097,-1.598,-1.6089,-1.6194,-1.6289,-1.6454,-1.6862,-1.6956,-1.6996,-1.7043,-1.705,-1.7001,-1.6864,-1.6883,-1.7056,-1.7345,-1.736,-1.7442,-1.7535,-1.7594,-1.7583,-1.7375,-1.7298,-1.7296,-1.6951,-1.6441,-1.6396,-1.6655,-1.6878,-1.7243,-1.7277,-1.7159,-1.7113,-1.7114,-1.72,-1.7187,-1.6933,-1.6792,-1.666,-1.6484,-1.6303,-1.6181,-1.5708,-1.5367,-1.5072,-1.4515,-1.3846,-1.2464,-1.1269,-1.0694,-1.0093,-0.8781,-0.7519,-0.7473,-0.7429,-0.7265,-0.7168,-0.7143,-0.7121,-0.6962,-2.4507,-2.4507,-2.4507,-2.4507,-2.4507,-2.4507,-2.4507,-2.4518,-2.4547,-2.458,-2.4606,-2.4979,-2.4886,-2.4583,-2.4287,-2.4131,-2.389,-2.3725,-2.3423,-2.3152,-2.315,-2.3176,-2.3329,-2.3356,-2.3522,-2.3829,-2.3854,-2.3945,-2.3981,-2.3957,-2.3975,-2.3868,-2.3553,-2.3401,-2.3268,-2.2913,-2.2699,-2.2443,-2.2128,-2.1392,-2.0554,-2.1068,-2.0803,-2.0122,-1.9878,-1.9989,-1.9874,-1.9094,-1.8337,-1.8166,-1.7366,-1.6895,-1.6732,-1.6939,-1.6875,-1.6706,-1.6594,-1.657,-1.6592,-1.6597,-1.6758,-1.7094,-1.7143,-1.7135,-1.7285,-1.737,-1.7427,-1.7678,-1.7637,-1.7734,-1.7995,-1.8117,-1.8062,-1.801,-1.8035,-1.8009,-1.7899,-1.7874,-1.7879,-1.7779,-1.7314,-1.7114,-1.7133,-1.7341,-1.7563,-1.7524,-1.7514,-1.7421,-1.7314,-1.7234,-1.7167,-1.6852,-1.6553,-1.6426,-1.6346,-1.6198,-1.6091,-1.5815,-1.5748,-1.5668,-1.5254,-1.4703,-1.4427,-1.3402,-1.2711,-1.1475,-0.987,-0.8785,-0.814,-0.7827,-0.7776,-0.7473,-0.7146,-0.7127,-0.7181,-2.4507,-2.4507,-2.4507,-2.4507,-2.4507,-2.4507,-2.4507,-2.4411,-2.4088,-2.4047,-2.411,-2.3893,-2.3811,-2.3757,-2.3657,-2.3524,-2.3397,-2.3358,-2.3133,-2.2922,-2.2919,-2.3084,-2.3269,-2.3505,-2.3771,-2.3926,-2.4028,-2.4078,-2.4177,-2.4211,-2.4211,-2.4174,-2.4012,-2.392,-2.3798,-2.3435,-2.3231,-2.3028,-2.2652,-2.1835,-2.0994,-2.0944,-2.0776,-1.959,-1.9303,-1.9267,-1.9124,-1.8444,-1.7888,-1.7818,-1.733,-1.7311,-1.7421,-1.7562,-1.7606,-1.7714,-1.7664,-1.7482,-1.7152,-1.706,-1.7261,-1.7604,-1.7729,-1.7814,-1.7857,-1.7843,-1.7889,-1.804,-1.8062,-1.8247,-1.8496,-1.8569,-1.8651,-1.864,-1.8557,-1.8491,-1.8484,-1.849,-1.845,-1.8348,-1.8197,-1.7877,-1.7633,-1.7764,-1.7795,-1.7635,-1.752,-1.7367,-1.7088,-1.6765,-1.6705,-1.6611,-1.6326,-1.6082,-1.6021,-1.5956,-1.5963,-1.5808,-1.5808,-1.5748,-1.5755,-1.5433,-1.5066,-1.4636,-1.3796,-1.2445,-1.091,-0.9972,-0.9309,-0.88,-0.8337,-0.806,-0.7756,-0.741,-0.7398,-2.4668,-2.4658,-2.4561,-2.4507,-2.4507,-2.4507,-2.458,-2.4608,-2.3847,-2.3731,-2.3676,-2.3059,-2.278,-2.3059,-2.2907,-2.2528,-2.2501,-2.2847,-2.2613,-2.2381,-2.2509,-2.2859,-2.3139,-2.3489,-2.3796,-2.4039,-2.4115,-2.4168,-2.4177,-2.4211,-2.4211,-2.4211,-2.4165,-2.4174,-2.4011,-2.3482,-2.3055,-2.2867,-2.2777,-2.192,-2.0848,-2.0685,-2.0109,-1.9325,-1.8762,-1.8576,-1.8646,-1.8126,-1.766,-1.7627,-1.7607,-1.7633,-1.7837,-1.7985,-1.8088,-1.8222,-1.8271,-1.8221,-1.7876,-1.7757,-1.7905,-1.8137,-1.8299,-1.8179,-1.824,-1.8299,-1.8372,-1.8401,-1.8416,-1.8599,-1.8843,-1.8931,-1.8986,-1.9085,-1.9165,-1.9127,-1.9037,-1.8916,-1.8775,-1.8576,-1.8448,-1.8359,-1.8188,-1.8208,-1.8084,-1.7784,-1.7559,-1.7332,-1.7021,-1.6632,-1.6574,-1.6592,-1.6342,-1.6076,-1.5905,-1.5845,-1.5832,-1.5801,-1.5825,-1.5801,-1.5788,-1.5717,-1.5475,-1.5032,-1.4634,-1.3897,-1.265,-1.1542,-1.0482,-1.0171,-0.9746,-0.8935,-0.8439,-0.8003,-0.7597,-2.5158,-2.5105,-2.4679,-2.4518,-2.4518,-2.4507,-2.4767,-2.5038,-2.3948,-2.3675,-2.3672,-2.2528,-2.2189,-2.2394,-2.1858,-2.1387,-2.1301,-2.182,-2.1992,-2.2233,-2.2557,-2.2795,-2.3006,-2.3249,-2.3548,-2.3678,-2.3904,-2.4094,-2.4211,-2.4211,-2.4211,-2.4211,-2.4211,-2.4211,-2.3753,-2.2958,-2.2377,-2.2215,-2.2233,-2.1501,-2.027,-1.9593,-1.8873,-1.7912,-1.7634,-1.772,-1.7714,-1.7661,-1.7641,-1.7641,-1.7668,-1.7852,-1.8122,-1.8305,-1.8412,-1.8573,-1.8705,-1.868,-1.8535,-1.8309,-1.8256,-1.8306,-1.8364,-1.8445,-1.8474,-1.8372,-1.8452,-1.8741,-1.8745,-1.8909,-1.9122,-1.9268,-1.9213,-1.9235,-1.9298,-1.9253,-1.9201,-1.9194,-1.9029,-1.8822,-1.8676,-1.8542,-1.8481,-1.8462,-1.807,-1.7745,-1.7353,-1.7126,-1.715,-1.6866,-1.6751,-1.6675,-1.645,-1.6195,-1.5933,-1.5855,-1.5849,-1.5849,-1.5855,-1.5825,-1.5801,-1.573,-1.5659,-1.5611,-1.5231,-1.4849,-1.4346,-1.3052,-1.2081,-1.1728,-1.0989,-0.955,-0.8701,-0.8237,-0.7872,-2.5285,-2.4744,-2.4573,-2.4669,-2.4882,-2.4625,-2.4922,-2.5274,-2.3834,-2.2945,-2.2862,-2.2434,-2.2388,-2.2347,-2.1979,-2.1529,-2.1626,-2.1694,-2.1817,-2.1962,-2.2268,-2.2492,-2.268,-2.2922,-2.3251,-2.3453,-2.3697,-2.395,-2.4183,-2.4192,-2.4202,-2.4211,-2.4211,-2.3646,-2.3079,-2.2316,-2.1627,-2.1366,-2.129,-2.0708,-1.9552,-1.9033,-1.8399,-1.7349,-1.7259,-1.7448,-1.7601,-1.7608,-1.7694,-1.7773,-1.7826,-1.8095,-1.8391,-1.8567,-1.8738,-1.8882,-1.9034,-1.906,-1.9041,-1.8803,-1.8694,-1.8909,-1.8939,-1.8877,-1.8851,-1.8877,-1.8935,-1.9085,-1.9093,-1.9173,-1.9239,-1.9298,-1.9264,-1.9298,-1.932,-1.9334,-1.9364,-1.94,-1.9272,-1.9048,-1.8851,-1.8687,-1.8672,-1.8638,-1.8163,-1.7668,-1.728,-1.7005,-1.7131,-1.7138,-1.7037,-1.6929,-1.6735,-1.6604,-1.6351,-1.6143,-1.5916,-1.5899,-1.5913,-1.5845,-1.5804,-1.5801,-1.5754,-1.5801,-1.5778,-1.535,-1.4818,-1.4172,-1.3464,-1.2696,-1.1163,-0.9409,-0.8799,-0.844,-0.8113,-2.5706,-2.5073,-2.4691,-2.452,-2.453,-2.4229,-2.4526,-2.4867,-2.3368,-2.2387,-2.1996,-2.2229,-2.2408,-2.234,-2.2015,-2.1839,-2.1776,-2.1752,-2.171,-2.1815,-2.197,-2.2112,-2.2268,-2.2515,-2.2854,-2.3151,-2.3462,-2.3706,-2.3938,-2.4128,-2.4192,-2.4211,-2.4152,-2.3696,-2.3129,-2.1937,-2.1089,-2.0526,-2.0264,-2.0023,-1.8982,-1.8537,-1.825,-1.7398,-1.7354,-1.7428,-1.7575,-1.7615,-1.7694,-1.7826,-1.7964,-1.826,-1.8574,-1.8862,-1.9026,-1.9201,-1.9298,-1.9298,-1.9232,-1.9125,-1.9038,-1.9188,-1.9239,-1.922,-1.9298,-1.9298,-1.9232,-1.9254,-1.9283,-1.9305,-1.9312,-1.9298,-1.9298,-1.9305,-1.9488,-1.9539,-1.9598,-1.9627,-1.9466,-1.9298,-1.91,-1.8866,-1.857,-1.8546,-1.8388,-1.8001,-1.7836,-1.7595,-1.7539,-1.7487,-1.7295,-1.7218,-1.7103,-1.6994,-1.6896,-1.6584,-1.6314,-1.619,-1.6128,-1.5864,-1.5814,-1.5824,-1.5815,-1.5801,-1.5754,-1.5659,-1.511,-1.4303,-1.3813,-1.3362,-1.1643,-0.9865,-0.8994,-0.8623,-0.83,-2.6445,-2.63,-2.502,-2.4005,-2.3353,-2.3157,-2.3504,-2.3964,-2.2872,-2.2191,-2.1993,-2.1606,-2.1765,-2.214,-2.1907,-2.1753,-2.1811,-2.1747,-2.1687,-2.1723,-2.176,-2.1751,-2.187,-2.214,-2.2414,-2.2543,-2.2986,-2.3435,-2.3596,-2.4012,-2.4149,-2.4211,-2.4177,-2.392,-2.3954,-2.2929,-2.1344,-1.9565,-1.928,-1.9088,-1.8832,-1.8175,-1.7731,-1.76,-1.7521,-1.7561,-1.7595,-1.7615,-1.7694,-1.7852,-1.8016,-1.8279,-1.8586,-1.8862,-1.9071,-1.9272,-1.9298,-1.9298,-1.929,-1.9257,-1.9283,-1.929,-1.9298,-1.9298,-1.9298,-1.9298,-1.9349,-1.9393,-1.9378,-1.9371,-1.9342,-1.933,-1.9389,-1.9422,-1.9613,-1.9635,-1.9679,-1.9664,-1.9474,-1.9356,-1.9261,-1.906,-1.8642,-1.8372,-1.843,-1.8354,-1.8321,-1.8198,-1.802,-1.7856,-1.7677,-1.7613,-1.7536,-1.7519,-1.7407,-1.6985,-1.6706,-1.6555,-1.6385,-1.6166,-1.5973,-1.5968,-1.5921,-1.5855,-1.5754,-1.5683,-1.5057,-1.4334,-1.3854,-1.3288,-1.2145,-1.0667,-0.9661,-0.8831,-0.8549,-2.661,-2.5966,-2.4935,-2.3951,-2.3149,-2.3103,-2.3539,-2.4052,-2.3477,-2.2789,-2.2318,-2.2166,-2.2352,-2.2501,-2.2217,-2.1957,-2.2016,-2.1742,-2.1687,-2.1687,-2.1687,-2.1696,-2.176,-2.1851,-2.2034,-2.2387,-2.2858,-2.3297,-2.3517,-2.395,-2.4149,-2.4211,-2.4102,-2.3329,-2.2072,-2.0869,-1.9487,-1.8408,-1.8146,-1.8113,-1.812,-1.7838,-1.7661,-1.7687,-1.7687,-1.7687,-1.7615,-1.7615,-1.774,-1.7977,-1.8193,-1.8455,-1.8821,-1.9097,-1.9175,-1.9298,-1.9298,-1.9298,-1.9298,-1.9272,-1.9272,-1.9312,-1.9305,-1.9305,-1.9312,-1.9305,-1.9408,-1.9569,-1.962,-1.9701,-1.9845,-1.9889,-1.9908,-1.9701,-1.9715,-1.9583,-1.9547,-1.9496,-1.94,-1.9342,-1.9261,-1.9254,-1.899,-1.8752,-1.8738,-1.8664,-1.8613,-1.8452,-1.8268,-1.821,-1.8078,-1.8078,-1.8046,-1.8057,-1.7942,-1.7703,-1.7392,-1.7198,-1.69,-1.6545,-1.6386,-1.6206,-1.6159,-1.6152,-1.5931,-1.5659,-1.5276,-1.4822,-1.3913,-1.3095,-1.2387,-1.1224,-0.9887,-0.9178,-0.8824,-2.5893,-2.5305,-2.4744,-2.4043,-2.3291,-2.282,-2.3071,-2.3572,-2.3239,-2.2702,-2.2396,-2.2437,-2.2446,-2.2364,-2.2259,-2.2103,-2.2066,-2.1833,-2.1687,-2.1687,-2.1687,-2.1687,-2.1687,-2.1705,-2.1865,-2.2204,-2.2638,-2.3068,-2.3288,-2.392,-2.4174,-2.4211,-2.4161,-2.3263,-2.1929,-2.0903,-1.9893,-1.8949,-1.8434,-1.8382,-1.8323,-1.8225,-1.8225,-1.8232,-1.818,-1.8048,-1.774,-1.7687,-1.7819,-1.816,-1.8429,-1.8639,-1.9011,-1.9253,-1.9272,-1.9298,-1.9298,-1.9298,-1.9298,-1.9298,-1.9349,-1.9496,-1.9386,-1.9371,-1.9437,-1.951,-1.9686,-1.984,-1.9935,-2.004,-2.0181,-2.0247,-2.0137,-1.9957,-1.9979,-1.9855,-1.982,-1.9806,-1.9711,-1.9616,-1.9422,-1.94,-1.9312,-1.9268,-1.9133,-1.903,-1.8928,-1.8738,-1.8577,-1.8562,-1.8547,-1.8562,-1.8573,-1.8603,-1.8636,-1.86,-1.8278,-1.7884,-1.7491,-1.7099,-1.6753,-1.6596,-1.652,-1.6451,-1.6295,-1.6102,-1.5884,-1.5367,-1.4697,-1.4075,-1.3444,-1.2028,-1.0252,-0.9735,-0.9563,-2.4509,-2.4498,-2.4487,-2.4159,-2.3502,-2.2307,-2.2023,-2.229,-2.1946,-2.2006,-2.2295,-2.1975,-2.1966,-2.1815,-2.1742,-2.1764,-2.1773,-2.1705,-2.1696,-2.1687,-2.1687,-2.1687,-2.1687,-2.1696,-2.1773,-2.1989,-2.2391,-2.284,-2.3004,-2.381,-2.4192,-2.4211,-2.4211,-2.3488,-2.2753,-2.2215,-2.0997,-1.9557,-1.9176,-1.9079,-1.8923,-1.8968,-1.8923,-1.8845,-1.8689,-1.8225,-1.7865,-1.7641,-1.7793,-1.8036,-1.8265,-1.8586,-1.8881,-1.9149,-1.9253,-1.9298,-1.9298,-1.9298,-1.9312,-1.9312,-1.9488,-1.9642,-1.9547,-1.9576,-1.9693,-1.9818,-1.9952,-2.0135,-2.0252,-2.0254,-2.0312,-2.0291,-2.0254,-2.0276,-2.0413,-2.0398,-2.042,-2.0334,-2.0217,-2.002,-1.9725,-1.9576,-1.9356,-1.9298,-1.9298,-1.9213,-1.9111,-1.9096,-1.8979,-1.9016,-1.9008,-1.9023,-1.9081,-1.9162,-1.9184,-1.9056,-1.8843,-1.8342,-1.8123,-1.7782,-1.739,-1.6981,-1.6866,-1.6795,-1.6693,-1.653,-1.6268,-1.6027,-1.5731,-1.5106,-1.4613,-1.3253,-1.1604,-1.1057,-1.0686,-2.4509,-2.4465,-2.4077,-2.3688,-2.3159,-2.2147,-2.1782,-2.1883,-2.203,-2.2222,-2.2295,-2.2185,-2.2075,-2.2089,-2.1856,-2.1733,-2.1687,-2.1687,-2.1687,-2.1687,-2.1687,-2.1687,-2.1687,-2.1687,-2.1687,-2.1861,-2.2208,-2.2675,-2.3065,-2.3782,-2.4202,-2.4211,-2.4211,-2.387,-2.3746,-2.3671,-2.1709,-2.0357,-2.0177,-1.9901,-1.9487,-1.9358,-1.9306,-1.9157,-1.861,-1.8094,-1.7759,-1.7635,-1.7845,-1.8239,-1.8344,-1.8612,-1.9168,-1.9253,-1.9298,-1.9298,-1.9298,-1.9305,-1.9342,-1.9525,-1.9715,-1.9869,-1.9872,-1.9969,-2.0057,-2.0157,-2.0274,-2.0422,-2.0561,-2.059,-2.0634,-2.0619,-2.051,-2.0495,-2.0539,-2.0495,-2.0459,-2.0296,-2.0152,-1.9923,-1.9649,-1.9525,-1.932,-1.9298,-1.9298,-1.9298,-1.9298,-1.9298,-1.9298,-1.9298,-1.9298,-1.9298,-1.9298,-1.9298,-1.9298,-1.9199,-1.9043,-1.8806,-1.8575,-1.8292,-1.7877,-1.7502,-1.7304,-1.7103,-1.6979,-1.6814,-1.662,-1.6416,-1.6277,-1.634,-1.5873,-1.4421,-1.3173,-1.2599,-1.1697,-2.3735,-2.3428,-2.3477,-2.3327,-2.3011,-2.2268,-2.1851,-2.1782,-2.1975,-2.214,-2.2295,-2.2286,-2.2199,-2.2025,-2.1966,-2.1883,-2.1687,-2.1687,-2.1687,-2.1687,-2.1687,-2.1687,-2.1687,-2.1687,-2.1687,-2.1833,-2.2099,-2.2538,-2.3028,-2.3684,-2.4211,-2.4211,-2.4211,-2.4211,-2.4152,-2.3929,-2.2861,-2.1667,-2.1005,-2.0749,-2.0261,-1.9797,-1.9642,-1.9124,-1.8401,-1.8094,-1.7766,-1.7747,-1.8062,-1.8508,-1.8593,-1.8803,-1.9227,-1.9298,-1.9422,-1.9422,-1.9356,-1.9518,-1.9645,-1.9723,-1.992,-2.0098,-2.0283,-2.0451,-2.0495,-2.0539,-2.0663,-2.0802,-2.0896,-2.0962,-2.102,-2.1035,-2.0824,-2.0649,-2.0568,-2.0481,-2.0283,-2.0084,-1.985,-1.9635,-1.9474,-1.9371,-1.9298,-1.9298,-1.9298,-1.9298,-1.9298,-1.9298,-1.9298,-1.9298,-1.9298,-1.9298,-1.9298,-1.9298,-1.9298,-1.9298,-1.9179,-1.9016,-1.8819,-1.853,-1.8211,-1.7914,-1.7601,-1.7384,-1.7201,-1.7054,-1.6939,-1.6899,-1.6822,-1.684,-1.6774,-1.5781,-1.4708,-1.4036,-1.2918,-2.253,-2.1907,-2.2681,-2.3015,-2.2962,-2.2415,-2.1989,-2.1714,-2.1723,-2.1966,-2.2314,-2.2314,-2.2167,-2.208,-2.2053,-2.1938,-2.1782,-2.1687,-2.1687,-2.1687,-2.1687,-2.1687,-2.1687,-2.1687,-2.1687,-2.1815,-2.2044,-2.2382,-2.2977,-2.3611,-2.4058,-2.4192,-2.4211,-2.4211,-2.4211,-2.4211,-2.3463,-2.2769,-2.2106,-2.1726,-2.1038,-2.068,-2.0398,-1.9383,-1.8916,-1.8636,-1.816,-1.8095,-1.8279,-1.8686,-1.8928,-1.9026,-1.9274,-1.9393,-1.9554,-1.9642,-1.9576,-1.9693,-1.9886,-2.0008,-2.0223,-2.0479,-2.0722,-2.0839,-2.0896,-2.0859,-2.0955,-2.1028,-2.1079,-2.1094,-2.113,-2.0903,-2.0656,-2.0532,-2.0444,-2.0362,-2.0186,-1.9974,-1.9769,-1.9569,-1.9393,-1.9298,-1.9298,-1.9298,-1.9298,-1.9298,-1.9298,-1.9298,-1.9298,-1.9298,-1.9298,-1.9298,-1.9298,-1.9298,-1.9298,-1.9298,-1.9298,-1.9168,-1.8992,-1.8803,-1.852,-1.8213,-1.7878,-1.7639,-1.7375,-1.7367,-1.7274,-1.7227,-1.7147,-1.7027,-1.6947,-1.6834,-1.6203,-1.5413,-1.4347,-2.2085,-2.2181,-2.2399,-2.248,-2.2439,-2.2051,-2.1787,-2.1687,-2.1687,-2.208,-2.2602,-2.2469,-2.2396,-2.2419,-2.2034,-2.1856,-2.1755,-2.1687,-2.1687,-2.1687,-2.1687,-2.1687,-2.1687,-2.1687,-2.1687,-2.1705,-2.1888,-2.2254,-2.2863,-2.3404,-2.3868,-2.4156,-2.4192,-2.4177,-2.4028,-2.4028,-2.3721,-2.3129,-2.2543,-2.1777,-2.0885,-2.068,-2.0364,-1.928,-1.861,-1.8232,-1.7938,-1.8043,-1.8391,-1.8791,-1.8876,-1.9175,-1.9623,-1.9664,-1.9715,-1.9796,-1.9908,-1.9974,-2.0084,-2.0274,-2.053,-2.0706,-2.089,-2.1079,-2.1152,-2.1108,-2.1108,-2.1167,-2.1211,-2.1211,-2.1101,-2.0786,-2.0524,-2.0464,-2.0355,-2.0216,-2.0084,-1.9916,-1.9725,-1.9528,-1.9364,-1.9286,-1.9286,-1.9298,-1.9298,-1.9298,-1.9298,-1.9298,-1.9298,-1.9298,-1.9298,-1.9298,-1.9298,-1.9298,-1.9298,-1.9298,-1.9298,-1.9298,-1.9175,-1.8992,-1.8784,-1.8331,-1.7905,-1.7747,-1.7561,-1.7508,-1.7488,-1.7515,-1.7428,-1.7268,-1.7221,-1.7167,-1.71,-1.6495,-1.5526,-2.2208,-2.2039,-2.2039,-2.2039,-2.2002,-2.1778,-2.1687,-2.1687,-2.1687,-2.2044,-2.2556,-2.2424,-2.2359,-2.2488,-2.2057,-2.181,-2.1723,-2.1687,-2.1687,-2.1687,-2.1687,-2.1687,-2.1687,-2.1687,-2.1687,-2.1705,-2.1938,-2.2295,-2.2744,-2.3266,-2.3697,-2.3957,-2.4024,-2.4003,-2.3671,-2.3472,-2.3313,-2.2644,-2.2181,-2.1362,-2.0416,-2.0107,-1.9591,-1.8532,-1.8048,-1.7799,-1.8062,-1.8227,-1.8541,-1.8986,-1.9215,-1.9529,-1.9894,-1.9974,-2.0062,-2.015,-2.0237,-2.0254,-2.0406,-2.0567,-2.0808,-2.0947,-2.1042,-2.1196,-2.1196,-2.1137,-2.1013,-2.1064,-2.1181,-2.1196,-2.0984,-2.067,-2.0612,-2.0554,-2.0356,-2.0174,-2.0122,-2.0057,-1.9879,-1.9693,-1.948,-1.928,-1.9303,-1.9298,-1.9298,-1.9298,-1.9298,-1.9312,-1.9305,-1.9298,-1.9298,-1.9298,-1.9298,-1.9298,-1.9298,-1.9298,-1.9298,-1.9298,-1.9298,-1.8985,-1.8698,-1.8279,-1.7931,-1.7747,-1.7641,-1.7602,-1.7602,-1.7615,-1.7615,-1.7488,-1.7495,-1.7508,-1.7454,-1.7347,-1.6599,-2.241,-2.1754,-2.1782,-2.1742,-2.1687,-2.1687,-2.1687,-2.1687,-2.1696,-2.1892,-2.2204,-2.2222,-2.202,-2.202,-2.202,-2.1901,-2.1801,-2.1705,-2.1687,-2.1687,-2.1687,-2.1687,-2.1687,-2.1687,-2.1687,-2.1769,-2.1975,-2.2231,-2.2538,-2.305,-2.3416,-2.3614,-2.3724,-2.3746,-2.2979,-2.2669,-2.2744,-2.2282,-2.17,-2.0723,-1.9927,-1.9202,-1.8636,-1.8075,-1.7641,-1.7911,-1.8281,-1.8564,-1.8807,-1.9242,-1.9691,-1.9954,-2.0166,-2.0276,-2.0393,-2.0488,-2.0545,-2.0663,-2.0824,-2.0852,-2.097,-2.108,-2.1181,-2.1211,-2.1211,-2.1145,-2.102,-2.0991,-2.1108,-2.1115,-2.0903,-2.07,-2.0678,-2.0612,-2.0386,-2.0196,-2.0196,-2.0203,-2.0047,-1.9862,-1.9687,-1.9445,-1.9317,-1.9306,-1.9367,-1.936,-1.9349,-1.9327,-1.932,-1.9305,-1.9298,-1.9298,-1.9298,-1.9298,-1.9298,-1.9298,-1.9298,-1.9298,-1.9246,-1.8933,-1.8639,-1.8351,-1.8062,-1.7773,-1.7694,-1.7641,-1.7615,-1.7615,-1.7615,-1.7615,-1.7602,-1.7588,-1.7568,-1.7474,-1.7434,-2.1878,-2.1737,-2.2048,-2.2011,-2.1723,-2.1696,-2.1687,-2.1687,-2.1687,-2.1751,-2.1815,-2.1865,-2.1901,-2.2144,-2.1883,-2.1755,-2.1755,-2.1687,-2.1687,-2.1687,-2.1687,-2.1687,-2.1687,-2.1687,-2.1687,-2.1751,-2.1879,-2.2172,-2.2483,-2.2876,-2.3394,-2.3966,-2.4058,-2.4053,-2.392,-2.3612,-2.3279,-2.2652,-2.208,-2.1401,-2.0539,-1.9698,-1.861,-1.8042,-1.7615,-1.8134,-1.8557,-1.8786,-1.9304,-1.98,-2.012,-2.0305,-2.0481,-2.0597,-2.0678,-2.0758,-2.0815,-2.0874,-2.0948,-2.1035,-2.113,-2.1167,-2.1211,-2.1211,-2.1211,-2.1203,-2.1064,-2.0911,-2.102,-2.1145,-2.0991,-2.0758,-2.0678,-2.0575,-2.04,-2.0312,-2.0261,-2.0291,-2.0239,-2.0144,-2.0093,-1.9782,-1.9445,-1.9555,-1.9786,-1.9743,-1.9667,-1.963,-1.9488,-1.9408,-1.9316,-1.9334,-1.9349,-1.9298,-1.9298,-1.9298,-1.9298,-1.9298,-1.9246,-1.9011,-1.8803,-1.8527,-1.8239,-1.7931,-1.772,-1.7635,-1.7635,-1.7615,-1.7615,-1.7615,-1.7615,-1.7608,-1.7615,-1.7602,-1.7535]},{"header":{"parameterUnit":"m.s-1","parameterCategory":1,"la1":31.0,"la2":29.5877,"lo1":-88.7671,"lo2":-86.6584,"dy":0.0162,"dx":0.0185,"nx":115,"ny":88,"refTime":"2024-04-18T18:00:00:Z","depth":0,"parameterNumber":3,"parameterNumberName":"V-component_of_WINDS"},"data":[0.0,0.0,0.0,0.0,0.0,0.0,0.0,0.0,0.0,0.0,0.0,0.0,0.0,0.0,0.0,0.0,0.0,0.0,0.0,0.0,0.0,0.0,0.0,0.0,0.0,0.0,0.0,0.0,0.0,0.0,0.0,0.0,0.0,0.0,0.0,0.0,0.0,0.0,0.0,0.0,0.0,0.0,0.0,0.0,0.0,0.0,0.0,0.0,0.0,0.0,0.0,0.0,0.0,0.0,0.0,0.0,0.0,0.0,0.0,0.0,0.0,0.0,0.0,0.0,0.0,0.0,0.0,0.0,0.0,0.0,0.0,0.0,0.0,0.0,0.0,0.0,0.0,0.0,0.0,0.0,0.0,0.0,0.0,0.0,0.0,0.0,0.0,0.0,0.0,0.0,0.0,0.0,0.0,0.0,0.0,0.0,0.0,0.0,0.0,0.0,0.0,0.0,0.0,0.0,0.0,0.0,0.0,0.0,0.0,0.0,0.0,0.0,0.0,0.0,0.0,0.0,0.0,0.0,0.0,0.0,0.0,0.0,0.0,0.0,0.0,0.0,0.0,0.0,0.0,0.0,0.0,0.0,0.0,0.0,0.0,0.0,0.0,0.0,0.0,0.0,0.0,0.0,0.0,0.0,0.0,0.0,0.0,0.0,0.0,0.0,0.0,0.0,0.0,0.0,0.0,0.0,0.0,0.0,0.0,0.0,0.0,0.0,0.0,0.0,0.0,0.0,0.0,0.0,0.0,0.0,0.0,0.0,0.0,0.0,0.0,0.0,0.0,0.0,0.0,0.0,0.0,0.0,0.0,0.0,0.0,0.0,0.0,0.0,0.0,0.0,0.0,0.0,0.0,0.0,0.0,0.0,0.0,0.0,0.0,0.0,0.0,0.0,0.0,0.0,0.0,0.0,0.0,0.0,0.0,0.0,0.0,0.0,0.0,0.0,0.0,0.0,0.0,0.0,0.0,0.0,0.0,0.0,0.0,0.0,0.0,0.0,0.0,0.0,0.0,0.0,0.0,0.0,0.0,0.0,0.0,0.0,0.0,0.0,0.0,0.0,0.0,0.0,0.0,0.0,0.0,0.0,0.0,0.0,0.0,0.0,0.0,0.0,0.0,0.0,0.0,0.0,0.0,0.0,0.0,0.0,0.0,0.0,0.0,0.0,0.0,0.0,0.0,0.0,0.0,0.0,0.0,0.0,0.0,0.0,0.0,0.0,0.0,0.0,0.0,0.0,0.0,0.0,0.0,0.0,0.0,0.0,0.0,0.0,0.0,0.0,0.0,0.0,0.0,0.0,0.0,0.0,0.0,0.0,0.0,0.0,0.0,0.0,0.0,0.0,0.0,0.0,0.0,0.0,0.0,0.0,0.0,0.0,0.0,0.0,0.0,0.0,0.0,0.0,0.0,0.0,0.0,0.0,0.0,0.0,0.0,0.0,0.0,0.0,0.0,0.0,0.0,0.0,0.0,0.0,0.0,0.0,0.0,0.0,0.0,0.0,0.0,0.0,0.0,0.0,0.0,0.0,0.0,0.0,0.0,0.0,0.0,0.0,0.0,0.0,0.0,0.0,0.0,0.0,0.0,0.0,0.0,0.0,0.0,0.0,0.0,0.0,0.0,0.0,0.0,0.0,0.0,0.0,0.0,0.0,0.0,0.0,0.0,0.0,0.0,0.0,0.0,0.0,0.0,0.0,0.0,0.0,0.0,0.0,0.0,0.0,0.0,0.0,0.0,0.0,0.0,0.0,0.0,0.0,0.0,0.0,0.0,0.0,0.0,0.0,0.0,0.0,0.0,0.0,0.0,0.0,0.0,0.0,0.0,0.0,0.0,0.0,0.0,0.0,0.0,0.0,0.0,0.0,0.0,0.0,0.0,0.0,0.0,0.0,0.0,0.0,0.0,0.0,0.0,0.0,0.0,0.0,0.0,0.0,0.0,0.0,0.0,0.0,0.0,0.0,0.0,0.0,0.0,0.0,0.0,0.0,0.0,0.0,0.0,0.0,0.0,0.0,0.0,0.0,0.0,0.0,0.0,0.0,0.0,0.0,0.0,0.0,0.0,0.0,0.0,0.0,0.0,0.0,0.0,0.0,0.0,0.0,0.0,0.0,0.0,0.0,0.0,0.0,0.0,0.0,0.0,0.0,0.0,0.0,0.0,0.0,0.0,0.0,0.0,0.0,0.0,0.0,0.0,0.0,0.0,0.0,0.0,0.0,0.0,0.0,0.0,0.0,0.0,0.0,0.0,0.0,0.0,0.0,0.0,0.0,0.0,0.0,0.0,0.0,0.0,0.0,0.0,0.0,0.0,0.0,0.0,0.0,0.0,0.0,0.0,0.0,0.0,0.0,0.0,0.0,0.0,0.0,0.0,0.0,0.0,0.0,0.0,0.0,0.0,0.0,0.0,0.0,0.0,0.0,0.0,0.0,0.0,0.0,0.0,0.0,0.0,0.0,0.0,0.0,0.0,0.0,0.0,0.0,0.0,0.0,0.0,0.0,0.0,0.0,0.0,0.0,0.0,0.0,0.0,0.0,0.0,0.0,0.0,0.0,0.0,0.0,0.0,0.0,0.0,0.0,0.0,0.0,0.0,0.0,0.0,0.0,0.0,0.0,0.0,0.0,0.0,0.0,0.0,0.0,0.0,0.0,0.0,0.0,0.0,0.0,0.0,0.0,0.0,0.0,0.0,0.0,0.0,0.0,0.0,0.0,0.0,0.0,0.0,0.0,0.0,0.0,0.0,0.0,0.0,0.0,0.0,0.0,0.0,0.0,0.0,0.0,0.0,0.0,0.0,0.0,0.0,0.0,0.0,0.0,0.0,0.0,0.0,0.0,0.0,0.0,0.0,0.0,0.0,0.0,0.0,0.0,0.0,0.0,0.0,0.0,0.0,0.0,0.0,0.0,0.0,0.0,0.0,0.0,0.0,0.0,0.0,0.0,0.0,0.0,0.0,0.0,0.0,0.0,0.0,0.0,0.0,0.0,0.0,0.0,0.0,0.0,0.0,0.0,0.0,0.0,0.0,0.0,0.0,0.0,0.0,0.0,0.0,0.0,0.0,0.0,0.0,0.0,0.0,0.0,0.0,0.0,0.0,0.0,0.0,0.0,0.0,0.0,0.0,0.0,0.0,0.0,0.0,0.0,0.0,0.0,0.0,0.0,0.0,0.0,0.0,0.0,0.0,0.0,0.0,0.0,0.0,0.0,0.0,0.0,0.0,0.0,0.0,0.0,0.0,0.0,0.0,0.0,0.0,0.0,0.0,0.0,0.0,0.0,0.0,0.0,0.0,0.0,0.0,0.0,0.0,0.0,0.0,0.0,0.0,0.0,0.0,0.0,0.0,0.0,0.0,0.0,0.0,0.0,0.0,0.0,0.0,0.0,0.0,0.0,0.0,0.0,0.0,0.0,0.0,0.0,0.0,0.0,0.0,0.0,0.0,0.0,0.0,0.0,0.0,0.0,0.0,0.0,0.0,0.0,0.0,0.0,0.0,0.0,0.0,0.0,0.0,0.0,0.0,0.0,0.0,0.0,0.0,0.0,0.0,0.0,0.0,0.0,0.0,0.0,0.0,0.0,0.0,0.0,0.0,0.0,0.0,0.0,0.0,0.0,0.0,0.0,0.0,0.0,0.0,0.0,0.0,0.0,0.0,0.0,0.0,0.0,0.0,0.0,0.0,0.0,0.0,0.0,0.0,0.0,0.0,0.0,0.0,0.0,0.0,0.0,0.0,0.0,0.0,0.0,0.0,0.0,0.0,0.0,0.0,0.0,0.0,0.0,0.0,0.0,0.0,0.0,0.0,0.0,0.0,0.0,0.0,0.0,0.0,0.0,0.0,0.0,0.0,0.0,0.0,0.0,0.0,0.0,0.0,0.0,0.0,0.0,0.0,0.0,0.0,0.0,0.0,0.0,0.0,0.0,0.0,0.0,0.0,0.0,0.0,0.0,0.0,0.0,0.0,0.0,0.0,0.0,0.0,0.0,0.0,0.0,0.0,0.0,0.0,0.0,0.0,0.0,0.0,0.0,0.0,0.0,0.0,0.0,0.0,0.0,0.0,0.0,0.0,0.0,0.0,0.0,0.0,0.0,0.0,0.0,0.0,0.0,0.0,0.0,0.0,0.0,0.0,0.0,0.0,0.0,0.0,0.0,0.0,0.0,0.0,0.0,0.0,0.0,0.0,0.0,0.0,0.0,0.0,0.0,0.0,0.0,0.0,0.0,0.0,0.0,0.0,0.0,0.0,0.0,0.0,0.0,0.0,0.0,2.3651,0.0,0.0,0.0,0.0,0.0,0.0,0.0,0.0,0.0,0.0,0.0,0.0,0.0,0.0,0.0,0.0,0.0,0.0,0.0,0.0,0.0,0.0,0.0,0.0,0.0,0.0,0.0,0.0,0.0,0.0,0.0,0.0,0.0,0.0,0.0,0.0,0.0,0.0,0.0,0.0,0.0,0.0,0.0,0.0,0.0,0.0,0.0,0.0,0.0,0.0,0.0,0.0,0.0,0.0,0.0,0.0,0.0,0.0,0.0,0.0,0.0,0.0,0.0,0.0,0.0,0.0,0.0,0.0,0.0,0.0,0.0,0.0,0.0,0.0,0.0,0.0,0.0,0.0,0.0,0.0,0.0,0.0,0.0,0.0,0.0,0.0,0.0,0.0,0.0,0.0,0.0,0.0,0.0,0.0,0.0,0.0,0.0,0.0,0.0,0.0,0.0,0.0,0.0,0.0,0.0,0.0,0.0,0.0,0.0,0.0,2.0671,2.2733,2.4088,2.4705,2.4498,0.0,0.0,0.0,0.0,0.0,0.0,0.0,0.0,0.0,0.0,0.0,0.0,0.0,0.0,0.0,0.0,0.0,0.0,0.0,0.0,0.0,0.0,0.0,0.0,0.0,0.0,0.0,0.0,0.0,0.0,0.0,0.0,0.0,0.0,0.0,0.0,0.0,0.0,0.0,0.0,0.0,0.0,0.0,0.0,0.0,0.0,0.0,0.0,0.0,0.0,0.0,0.0,0.0,0.0,0.0,0.0,0.0,0.0,0.0,0.0,0.0,0.0,0.0,0.0,0.0,0.0,0.0,0.0,0.0,0.0,0.0,0.0,0.0,0.0,0.0,0.0,0.0,0.0,0.0,0.0,0.0,0.0,0.0,0.0,0.0,0.0,0.0,0.0,0.0,0.0,0.0,0.0,0.0,0.0,0.0,0.0,0.0,0.0,0.0,0.0,0.0,0.0,0.0,0.0,0.0,0.0,0.0,0.0,0.0,0.0,0.0,0.0,2.4708,2.4996,2.5265,0.0,0.0,0.0,0.0,0.0,0.0,0.0,0.0,0.0,0.0,0.0,0.0,0.0,0.0,0.0,0.0,0.0,0.0,0.0,0.0,0.0,0.0,0.0,0.0,0.0,0.0,0.0,0.0,0.0,0.0,0.0,0.0,0.0,0.0,0.0,0.0,0.0,0.0,0.0,0.0,0.0,0.0,0.0,0.0,0.0,0.0,0.0,0.0,0.0,0.0,0.0,0.0,0.0,0.0,0.0,0.0,0.0,0.0,0.0,0.0,0.0,0.0,0.0,0.0,0.0,0.0,0.0,0.0,0.0,0.0,0.0,0.0,0.0,0.0,0.0,0.0,0.0,0.0,0.0,0.0,0.0,0.0,0.0,0.0,0.0,0.0,0.0,0.0,0.0,0.0,0.0,0.0,0.0,0.0,0.0,0.0,0.0,0.0,0.0,0.0,0.0,0.0,0.0,0.0,0.0,0.0,0.0,0.0,0.0,0.0,2.0976,2.4289,2.4845,0.0,2.5448,0.0,0.0,0.0,0.0,0.0,0.0,0.0,0.0,0.0,0.0,0.0,0.0,0.0,0.0,0.0,0.0,0.0,0.0,0.0,0.0,0.0,0.0,0.0,0.0,0.0,0.0,0.0,0.0,0.0,0.0,0.0,0.0,0.0,0.0,0.0,0.0,0.0,0.0,0.0,0.0,0.0,0.0,0.0,0.0,0.0,0.0,0.0,0.0,0.0,0.0,0.0,0.0,0.0,0.0,0.0,0.0,0.0,0.0,0.0,0.0,0.0,0.0,0.0,0.0,0.0,0.0,0.0,0.0,0.0,0.0,0.0,0.0,0.0,0.0,0.0,0.0,0.0,0.0,0.0,0.0,0.0,0.0,0.0,0.0,0.0,0.0,0.0,0.0,0.0,0.0,0.0,0.0,0.0,0.0,0.0,0.0,0.0,0.0,0.0,0.0,0.0,0.0,0.0,0.0,0.0,0.0,0.0,0.0,0.0,0.0,2.3007,2.4595,2.5093,2.5376,0.0,0.0,0.0,0.0,0.0,0.0,0.0,0.0,0.0,0.0,0.0,0.0,0.0,0.0,0.0,0.0,0.0,0.0,0.0,0.0,0.0,0.0,0.0,0.0,0.0,0.0,0.0,0.0,0.0,0.0,0.0,0.0,0.0,0.0,0.0,0.0,0.0,0.0,0.0,0.0,0.0,0.0,0.0,0.0,0.0,0.0,0.0,0.0,0.0,0.0,0.0,0.0,0.0,0.0,0.0,0.0,0.0,0.0,0.0,0.0,0.0,0.0,0.0,0.0,0.0,0.0,0.0,0.0,0.0,0.0,0.0,0.0,0.0,0.0,0.0,0.0,0.0,0.0,0.0,0.0,0.0,0.0,0.0,0.0,0.0,0.0,0.0,0.0,0.0,0.0,0.0,0.0,0.0,0.0,0.0,0.0,0.0,0.0,0.0,0.0,0.0,0.0,0.0,0.0,0.0,0.0,0.0,0.0,0.0,0.0,2.0691,2.4686,2.5011,2.5357,2.5539,2.552,0.0,0.0,0.0,0.0,0.0,0.0,0.0,0.0,0.0,0.0,0.0,0.0,0.0,0.0,0.0,0.0,0.0,0.0,0.0,0.0,0.0,0.0,0.0,0.0,0.0,0.0,0.0,0.0,0.0,0.0,0.0,0.0,0.0,0.0,0.0,0.0,0.0,0.0,0.0,0.0,0.0,0.0,0.0,0.0,0.0,0.0,0.0,0.0,0.0,0.0,0.0,0.0,0.0,0.0,0.0,0.0,0.0,0.0,0.0,0.0,0.0,0.0,0.0,0.0,0.0,0.0,0.0,0.0,0.0,0.0,0.0,0.0,0.0,0.0,0.0,0.0,0.0,0.0,0.0,0.0,0.0,0.0,0.0,0.0,0.0,0.0,0.0,0.0,0.0,0.0,0.0,0.0,0.0,0.0,0.0,0.0,0.0,0.0,0.0,0.0,0.0,0.0,0.0,0.0,0.0,0.0,0.0,0.0,1.3879,2.1008,2.5097,2.5543,2.558,2.56,0.0,0.0,0.0,0.0,0.0,0.0,0.0,0.0,0.0,0.0,0.0,0.0,0.0,0.0,0.0,0.0,0.0,0.0,0.0,0.0,0.0,0.0,0.0,0.0,0.0,0.0,0.0,0.0,0.0,0.0,0.0,0.0,0.0,0.0,0.0,0.0,0.0,0.0,0.0,0.0,0.0,0.0,0.0,0.0,0.0,0.0,0.0,0.0,0.0,0.0,0.0,0.0,0.0,0.0,0.0,0.0,0.0,0.0,0.0,0.0,0.0,0.0,0.0,0.0,0.0,0.0,0.0,0.0,0.0,0.0,0.0,0.0,0.0,0.0,0.0,0.0,0.0,0.0,0.0,0.0,0.0,0.0,0.0,0.0,0.0,0.0,0.0,0.0,0.0,0.0,0.0,0.0,0.0,0.0,0.0,0.0,0.0,0.0,0.0,0.0,0.0,0.0,0.0,0.0,0.0,0.0,0.0,0.0,0.0,1.4067,2.1243,2.5293,2.5583,2.5611,2.5608,0.0,0.0,0.0,0.0,0.0,0.0,0.0,0.0,0.0,0.0,0.0,0.0,0.0,0.0,0.0,0.0,0.0,0.0,0.0,0.0,0.0,0.0,0.0,0.0,0.0,0.0,0.0,0.0,0.0,0.0,0.0,0.0,0.0,0.0,0.0,0.0,0.0,0.0,0.0,0.0,0.0,0.0,0.0,0.0,0.0,0.0,0.0,0.0,0.0,0.0,0.0,0.0,0.0,0.0,0.0,0.0,0.0,0.0,0.0,0.0,0.0,0.0,0.0,0.0,0.0,0.0,0.0,0.0,0.0,0.0,0.0,0.0,0.0,0.0,0.0,0.0,0.0,0.0,0.0,0.0,0.0,0.0,0.0,0.0,0.0,0.0,0.0,0.0,0.0,0.0,0.0,0.0,0.0,0.0,0.0,0.0,0.0,0.0,0.0,0.0,0.0,0.0,0.0,0.0,0.0,0.0,0.0,0.0,0.0,1.7432,0.0,2.5396,2.5604,2.5611,2.5611,0.0,0.0,0.0,0.0,0.0,0.0,0.0,0.0,0.0,0.0,0.0,0.0,0.0,0.0,0.0,0.0,0.0,0.0,0.0,0.0,0.0,0.0,0.0,0.0,0.0,0.0,0.0,0.0,0.0,0.0,0.0,0.0,0.0,0.0,0.0,0.0,0.0,0.0,0.0,0.0,0.0,0.0,0.0,0.0,0.0,0.0,0.0,0.0,0.0,0.0,0.0,0.0,0.0,0.0,0.0,0.0,0.0,0.0,0.0,0.0,0.0,0.0,0.0,0.0,0.0,0.0,0.0,0.0,0.0,0.0,0.0,0.0,0.0,0.0,0.0,0.0,0.0,0.0,0.0,0.0,0.0,0.0,0.0,0.0,0.0,0.0,0.0,0.0,0.0,0.0,0.0,0.0,0.0,0.0,0.0,0.0,0.0,0.0,0.0,0.0,0.0,0.0,0.0,0.0,0.0,0.0,0.0,0.0,1.7313,2.4385,2.5075,2.5404,2.5591,2.56,2.5636,0.0,0.0,0.0,0.0,0.0,0.0,0.0,0.0,0.0,0.0,0.0,0.0,0.0,0.0,0.0,0.0,0.0,0.0,0.0,0.0,0.0,0.0,0.0,0.0,0.0,0.0,0.0,0.0,0.0,0.0,0.0,0.0,0.0,0.0,0.0,0.0,0.0,0.0,0.0,0.0,0.0,0.0,0.0,0.0,0.0,0.0,0.0,0.0,0.0,0.0,0.0,0.0,0.0,0.0,0.0,0.0,0.0,0.0,0.0,0.0,0.0,0.0,0.0,0.0,0.0,0.0,0.0,0.0,0.0,0.0,0.0,0.0,0.0,0.0,0.0,0.0,0.0,0.0,0.0,0.0,0.0,0.0,0.0,0.0,0.0,0.0,0.0,0.0,0.0,0.0,0.0,0.0,0.0,0.0,0.0,0.0,0.0,0.0,0.0,0.0,0.0,0.0,0.0,0.0,0.0,0.0,0.0,0.0,0.0,2.4801,2.5298,2.5519,2.5598,2.5608,2.5596,0.0,0.0,0.0,0.0,0.0,0.0,0.0,0.0,0.0,0.0,0.0,0.0,0.0,0.0,0.0,0.0,0.0,0.0,0.0,0.0,0.0,0.0,0.0,0.0,0.0,0.0,0.0,0.0,0.0,0.0,0.0,0.0,0.0,0.0,0.0,0.0,0.0,0.0,0.0,0.0,0.0,0.0,0.0,0.0,0.0,0.0,0.0,0.0,0.0,0.0,0.0,0.0,0.0,0.0,0.0,0.0,0.0,0.0,0.0,0.0,0.0,0.0,0.0,0.0,0.0,0.0,0.0,0.0,0.0,0.0,0.0,0.0,0.0,0.0,0.0,0.0,0.0,0.0,0.0,0.0,0.0,0.0,0.0,0.0,0.0,0.0,0.0,0.0,0.0,0.0,0.0,0.0,0.0,0.0,0.0,0.0,0.0,0.0,0.0,0.0,0.0,0.0,0.0,0.0,0.0,0.0,0.0,0.0,0.0,2.6415,2.6488,2.653,2.6536,2.6524,2.6238,2.5639,0.0,0.0,0.0,0.0,0.0,0.0,0.0,0.0,0.0,0.0,0.0,0.0,0.0,0.0,0.0,0.0,0.0,0.0,0.0,0.0,0.0,0.0,0.0,0.0,0.0,0.0,0.0,0.0,0.0,0.0,0.0,0.0,0.0,0.0,0.0,0.0,0.0,0.0,0.0,0.0,0.0,0.0,0.0,0.0,0.0,0.0,0.0,0.0,0.0,0.0,0.0,0.0,0.0,0.0,0.0,0.0,0.0,0.0,0.0,0.0,0.0,0.0,0.0,0.0,0.0,0.0,0.0,0.0,0.0,0.0,0.0,0.0,0.0,0.0,0.0,0.0,0.0,0.0,0.0,0.0,0.0,0.0,0.0,0.0,0.0,0.0,0.0,0.0,0.0,0.0,0.0,0.0,0.0,0.0,0.0,0.0,0.0,0.0,0.0,0.0,0.0,0.0,0.0,0.0,0.0,0.0,0.0,0.0,2.9064,2.8634,2.8376,2.8336,2.8167,2.7362,0.0,0.0,0.0,0.0,0.0,0.0,0.0,0.0,0.0,0.0,0.0,0.0,0.0,0.0,0.0,0.0,0.0,0.0,0.0,0.0,0.0,0.0,0.0,0.0,0.0,0.0,0.0,0.0,0.0,0.0,0.0,0.0,0.0,0.0,0.0,0.0,0.0,0.0,0.0,0.0,0.0,0.0,0.0,0.0,0.0,0.0,0.0,0.0,0.0,0.0,0.0,0.0,0.0,0.0,0.0,0.0,0.0,0.0,0.0,0.0,0.0,0.0,0.0,0.0,0.0,0.0,0.0,0.0,0.0,0.0,0.0,0.0,0.0,0.0,0.0,0.0,0.0,0.0,0.0,0.0,0.0,0.0,0.0,0.0,0.0,0.0,0.0,0.0,0.0,0.0,0.0,0.0,0.0,0.0,0.0,0.0,0.0,0.0,0.0,0.0,0.0,0.0,0.0,0.0,0.0,0.0,0.0,0.0,0.0,3.0128,3.1221,3.1515,3.0881,2.9037,2.7836,0.0,0.0,0.0,0.0,0.0,0.0,0.0,0.0,0.0,0.0,0.0,0.0,0.0,0.0,0.0,0.0,0.0,0.0,0.0,0.0,0.0,0.0,0.0,0.0,0.0,0.0,0.0,0.0,0.0,0.0,0.0,0.0,0.0,0.0,0.0,0.0,0.0,0.0,0.0,0.0,0.0,0.0,0.0,0.0,0.0,0.0,0.0,0.0,0.0,0.0,0.0,0.0,0.0,0.0,0.0,0.0,0.0,0.0,0.0,0.0,0.0,0.0,0.0,0.0,0.0,0.0,0.0,0.0,0.0,0.0,0.0,0.0,0.0,0.0,0.0,0.0,0.0,0.0,0.0,0.0,0.0,0.0,0.0,0.0,0.0,0.0,0.0,0.0,0.0,0.0,0.0,0.0,0.0,0.0,0.0,0.0,0.0,0.0,0.0,0.0,0.0,0.0,0.0,0.0,0.0,0.0,0.0,0.0,2.945,3.109,3.3134,3.4124,3.4005,3.0813,2.8737,0.0,0.0,0.0,0.0,0.0,0.0,0.0,0.0,0.0,0.0,0.0,0.0,0.0,0.0,0.0,0.0,0.0,0.0,0.0,0.0,0.0,0.0,0.0,0.0,0.0,0.0,0.0,0.0,0.0,0.0,0.0,0.0,0.0,0.0,0.0,0.0,0.0,0.0,0.0,0.0,0.0,0.0,0.0,0.0,0.0,0.0,0.0,0.0,0.0,0.0,0.0,0.0,0.0,0.0,0.0,0.0,0.0,0.0,0.0,0.0,0.0,0.0,0.0,0.0,0.0,0.0,0.0,0.0,0.0,0.0,0.0,0.0,0.0,0.0,0.0,0.0,0.0,0.0,0.0,0.0,0.0,0.0,0.0,0.0,0.0,0.0,0.0,0.0,0.0,0.0,0.0,0.0,0.0,0.0,0.0,0.0,0.0,0.0,0.0,0.0,0.0,0.0,0.0,0.0,0.0,0.0,0.0,0.0,3.0835,3.2096,3.4529,3.6154,3.6762,3.2813,2.9884,0.0,0.0,0.0,0.0,0.0,0.0,0.0,0.0,0.0,0.0,0.0,0.0,0.0,0.0,0.0,0.0,0.0,0.0,0.0,0.0,0.0,0.0,0.0,0.0,0.0,0.0,0.0,0.0,0.0,0.0,0.0,0.0,0.0,0.0,0.0,0.0,0.0,0.0,0.0,0.0,0.0,0.0,0.0,0.0,0.0,0.0,0.0,0.0,0.0,0.0,0.0,0.0,0.0,0.0,0.0,0.0,0.0,0.0,0.0,0.0,0.0,0.0,0.0,0.0,0.0,0.0,0.0,0.0,0.0,0.0,0.0,0.0,0.0,0.0,0.0,0.0,0.0,0.0,0.0,0.0,0.0,0.0,0.0,0.0,0.0,0.0,0.0,0.0,0.0,0.0,0.0,0.0,0.0,0.0,0.0,0.0,0.0,0.0,0.0,0.0,0.0,0.0,0.0,0.0,0.0,0.0,0.0,0.0,3.2135,3.3899,3.571,3.6731,3.6951,3.2843,3.042,0.0,0.0,0.0,0.0,0.0,0.0,0.0,0.0,0.0,0.0,0.0,0.0,0.0,0.0,0.0,0.0,0.0,0.0,0.0,0.0,0.0,0.0,0.0,0.0,0.0,0.0,0.0,0.0,0.0,0.0,0.0,0.0,0.0,0.0,0.0,0.0,0.0,0.0,0.0,0.0,0.0,0.0,0.0,0.0,0.0,0.0,0.0,0.0,1.4912,0.0,0.0,0.0,0.0,0.0,0.0,0.0,0.0,0.0,0.0,0.0,0.0,0.0,0.0,0.0,0.0,0.0,0.0,0.0,0.0,0.0,0.0,0.0,0.0,0.0,0.0,0.0,0.0,0.0,0.0,0.0,0.0,0.0,0.0,0.0,0.0,0.0,0.0,0.0,0.0,0.0,0.0,0.0,0.0,0.0,0.0,0.0,0.0,0.0,0.0,0.0,0.0,0.0,0.0,0.0,0.0,0.0,0.0,0.0,3.2353,3.4973,3.5897,3.6518,3.6796,3.3577,3.1591,0.0,0.0,0.0,0.0,0.0,0.0,0.0,0.0,0.0,0.0,0.0,0.0,0.0,0.0,0.0,0.0,0.0,0.0,0.0,0.0,0.0,0.0,0.0,0.0,0.0,0.0,0.0,0.0,0.0,0.0,0.0,0.0,0.0,0.0,0.0,0.0,0.0,0.0,0.0,0.0,0.0,0.0,0.0,0.0,0.0,0.0,0.0,0.0,0.0,0.0,0.0,0.0,0.0,0.0,0.0,0.0,0.0,0.0,0.0,0.0,0.0,0.0,0.0,0.0,0.0,0.0,0.0,0.0,0.0,0.0,0.0,0.0,0.0,0.0,0.0,0.0,0.0,0.0,0.0,0.0,0.0,0.0,0.0,0.0,0.0,0.0,0.0,0.0,0.0,0.0,0.0,0.0,0.0,0.0,0.0,0.0,0.0,0.0,0.0,0.0,0.0,0.0,0.0,0.0,0.0,0.0,0.0,3.0378,3.2595,3.6115,3.6308,3.6573,3.7049,3.4626,3.2824,3.1831,0.0,0.0,0.0,0.0,0.0,0.0,0.0,0.0,0.0,0.0,0.0,0.0,0.0,0.0,0.0,0.0,0.0,0.0,0.0,0.0,0.0,0.0,0.0,0.0,0.0,0.0,0.0,0.0,0.0,0.0,0.0,0.0,0.0,0.0,0.0,0.0,0.0,0.0,1.1933,1.3674,0.0,0.0,0.0,0.0,0.0,0.0,0.0,0.0,1.7133,0.0,0.0,0.0,0.0,0.0,0.0,0.0,0.0,0.0,0.0,0.0,0.0,0.0,0.0,0.0,0.0,0.0,0.0,0.0,0.0,0.0,0.0,0.0,0.0,0.0,0.0,0.0,0.0,0.0,0.0,0.0,0.0,0.0,0.0,0.0,0.0,0.0,0.0,0.0,0.0,0.0,0.0,0.0,0.0,0.0,0.0,0.0,0.0,0.0,0.0,0.0,0.0,0.0,0.0,0.0,0.0,3.2342,3.252,3.4687,3.8916,3.8976,3.8686,3.8042,3.5541,3.3454,3.1883,0.0,0.0,0.0,0.0,0.0,0.0,0.0,0.0,0.0,0.0,0.0,0.0,0.0,0.0,0.0,0.0,0.0,0.0,0.0,0.0,0.0,0.0,0.0,0.0,0.0,0.0,0.0,0.0,0.0,0.0,0.0,0.0,0.0,0.0,0.0,0.0,0.0,0.0,0.0,1.5934,1.6404,0.0,0.0,0.0,0.0,0.0,0.0,0.0,0.0,1.7718,0.0,0.0,0.0,0.0,0.0,0.0,0.0,0.0,0.0,0.0,0.0,0.0,0.0,0.0,0.0,0.0,0.0,0.0,0.0,0.0,0.0,0.0,0.0,0.0,0.0,0.0,0.0,0.0,0.0,0.0,0.0,0.0,0.0,0.0,0.0,0.0,0.0,0.0,0.0,0.0,0.0,0.0,0.0,0.0,0.0,0.0,0.0,0.0,0.0,0.0,0.0,0.0,0.0,0.0,0.0,3.2756,3.3942,3.6332,4.0083,3.9412,3.8946,3.8822,3.5963,3.3594,0.0,0.0,0.0,0.0,0.0,0.0,0.0,0.0,0.0,0.0,0.0,0.0,0.0,0.0,0.0,0.0,0.0,0.0,0.0,0.0,0.0,0.0,0.0,0.0,0.0,0.0,0.0,0.0,0.0,0.0,0.0,0.0,0.0,0.0,0.0,0.0,0.0,0.0,0.0,0.0,1.7615,1.8792,2.0894,0.0,0.0,0.0,0.0,0.0,0.0,1.9258,1.854,0.0,0.0,0.0,0.0,0.0,0.0,0.0,0.0,0.0,0.0,0.0,0.0,0.0,0.0,0.0,0.0,0.0,0.0,0.0,0.0,0.0,0.0,0.0,0.0,0.0,0.0,0.0,0.0,0.0,0.0,0.0,0.0,0.0,0.0,0.0,0.0,0.0,0.0,0.0,0.0,0.0,0.0,0.0,0.0,0.0,0.0,0.0,0.0,0.0,0.0,0.0,0.0,0.0,0.0,0.0,3.2834,3.4961,3.7566,4.0561,3.9542,3.9025,3.9257,3.595,3.3378,0.0,0.0,0.0,0.0,0.0,0.0,0.0,0.0,0.0,0.0,0.0,0.0,0.0,0.0,0.0,0.0,0.0,0.0,0.0,0.0,0.0,0.0,0.0,0.0,0.0,0.0,0.0,0.0,0.0,0.0,0.0,0.0,0.0,0.0,0.0,0.0,0.0,0.0,0.0,0.0,0.0,2.1142,2.3247,2.2167,0.0,0.0,0.0,0.0,2.0539,2.0656,0.0,0.0,0.0,0.0,0.0,0.0,0.0,0.0,0.0,0.0,0.0,0.0,0.0,0.0,0.0,0.0,0.0,0.0,0.0,0.0,0.0,0.0,0.0,0.0,0.0,0.0,0.0,0.0,0.0,0.0,0.0,0.0,0.0,0.0,0.0,0.0,0.0,0.0,0.0,0.0,0.0,0.0,0.0,0.0,0.0,0.0,0.0,0.0,0.0,0.0,0.0,0.0,0.0,0.0,0.0,0.0,3.3112,3.5545,3.8061,4.055,4.0587,4.0087,3.9116,3.5255,3.2738,0.0,0.0,0.0,0.0,0.0,0.0,0.0,0.0,0.0,0.0,0.0,0.0,0.0,0.0,0.0,0.0,0.0,0.0,0.0,0.0,0.0,0.0,0.0,0.0,0.0,0.0,0.0,0.0,0.0,0.0,0.0,0.0,0.0,0.0,0.0,0.0,0.0,0.0,0.0,0.0,0.0,2.2463,2.3914,2.3022,2.2305,0.0,0.0,2.3059,2.3547,2.4557,0.0,0.0,0.0,0.0,0.0,0.0,0.0,0.0,0.0,0.0,0.0,0.0,0.0,0.0,0.0,0.0,0.0,0.0,0.0,0.0,0.0,0.0,0.0,0.0,0.0,0.0,0.0,0.0,0.0,0.0,0.0,0.0,0.0,0.0,0.0,0.0,0.0,0.0,0.0,0.0,0.0,0.0,0.0,0.0,0.0,0.0,0.0,0.0,0.0,0.0,0.0,0.0,0.0,0.0,0.0,3.1796,3.3164,3.7016,3.9587,4.0711,4.0736,4.0483,3.9961,3.5441,3.2833,0.0,0.0,0.0,0.0,0.0,0.0,0.0,0.0,0.0,0.0,0.0,0.0,0.0,0.0,0.0,0.0,0.0,0.0,0.0,0.0,0.0,0.0,0.0,0.0,0.0,0.0,0.0,0.0,0.0,0.0,0.0,0.0,0.0,0.0,0.0,0.0,0.0,0.0,0.0,0.0,0.0,0.0,2.5942,2.544,0.0,0.0,0.0,2.4136,2.3059,0.0,0.0,0.0,0.0,0.0,0.0,0.0,0.0,0.0,0.0,0.0,0.0,0.0,0.0,0.0,0.0,0.0,0.0,0.0,0.0,0.0,0.0,0.0,0.0,0.0,0.0,0.0,0.0,0.0,0.0,0.0,0.0,0.0,0.0,0.0,0.0,0.0,0.0,0.0,0.0,0.0,0.0,0.0,0.0,0.0,0.0,0.0,0.0,0.0,0.0,0.0,0.0,0.0,0.0,0.0,0.0,0.0,3.314,3.8093,4.072,4.0703,4.0606,4.054,4.0333,3.6078,0.0,0.0,0.0,0.0,0.0,0.0,0.0,0.0,0.0,0.0,0.0,0.0,0.0,0.0,0.0,0.0,0.0,0.0,0.0,0.0,0.0,0.0,0.0,0.0,0.0,0.0,0.0,2.0493,0.0,0.0,0.0,0.0,0.0,0.0,0.0,0.0,0.0,0.0,0.0,0.0,0.0,0.0,2.5839,2.7708,2.7591,2.7837,0.0,0.0,2.4955,2.4021,2.6542,2.6965,0.0,0.0,0.0,0.0,0.0,0.0,0.0,0.0,0.0,0.0,0.0,0.0,0.0,0.0,0.0,0.0,0.0,0.0,0.0,0.0,0.0,0.0,0.0,0.0,0.0,0.0,0.0,0.0,0.0,0.0,0.0,0.0,0.0,0.0,0.0,0.0,0.0,0.0,0.0,0.0,0.0,0.0,0.0,0.0,0.0,0.0,0.0,0.0,0.0,0.0,0.0,0.0,0.0,0.0,0.0,3.3355,3.8142,4.0616,4.0428,4.0283,4.0157,3.991,3.725,3.4797,0.0,0.0,0.0,0.0,0.0,0.0,0.0,0.0,0.0,0.0,0.0,0.0,0.0,0.0,0.0,0.0,0.0,0.0,0.0,0.0,0.0,0.0,0.0,0.0,0.0,0.0,0.0,0.0,0.0,0.0,0.0,0.0,0.0,0.0,0.0,0.0,0.0,0.0,0.0,0.0,0.0,2.7163,2.8539,2.8688,2.9622,0.0,0.0,2.6127,2.8527,2.9607,2.882,2.4581,0.0,0.0,0.0,0.0,0.0,0.0,0.0,0.0,0.0,0.0,0.0,0.0,0.0,0.0,0.0,0.0,0.0,0.0,0.0,0.0,0.0,0.0,0.0,0.0,0.0,0.0,0.0,0.0,0.0,0.0,0.0,0.0,0.0,0.0,0.0,0.0,0.0,0.0,0.0,0.0,0.0,0.0,0.0,0.0,0.0,0.0,0.0,0.0,0.0,0.0,0.0,0.0,0.0,3.2885,3.3199,3.806,4.0488,4.0286,4.0229,4.0077,3.9835,3.749,3.511,0.0,0.0,0.0,0.0,0.0,0.0,0.0,0.0,0.0,0.0,0.0,0.0,0.0,0.0,0.0,0.0,0.0,0.0,0.0,0.0,0.0,0.0,0.0,0.0,0.0,0.0,0.0,0.0,2.3272,2.2415,2.0194,0.0,0.0,0.0,0.0,0.0,0.0,0.0,0.0,0.0,0.0,2.8807,3.144,3.1714,0.0,0.0,3.0404,2.8323,2.7854,2.8705,2.8018,2.3998,2.292,0.0,0.0,0.0,0.0,0.0,0.0,0.0,0.0,0.0,0.0,0.0,0.0,0.0,0.0,0.0,0.0,0.0,0.0,0.0,0.0,0.0,0.0,0.0,0.0,0.0,0.0,0.0,0.0,0.0,0.0,0.0,0.0,0.0,0.0,0.0,0.0,0.0,0.0,0.0,0.0,0.0,0.0,0.0,0.0,0.0,0.0,0.0,0.0,0.0,0.0,0.0,0.0,3.2916,3.3358,3.8239,4.0822,4.0964,4.079,4.0629,4.0397,3.8893,3.6763,0.0,0.0,0.0,0.0,0.0,0.0,0.0,0.0,0.0,0.0,0.0,0.0,0.0,0.0,0.0,0.0,0.0,0.0,0.0,0.0,0.0,0.0,0.0,0.0,0.0,0.0,0.0,0.0,2.3973,2.3177,2.1374,0.0,0.0,0.0,0.0,0.0,0.0,0.0,0.0,0.0,0.0,3.0761,3.2673,3.2584,3.2222,3.1953,2.9924,2.8058,2.706,2.7564,2.721,2.457,0.0,0.0,0.0,0.0,0.0,0.0,0.0,0.0,0.0,0.0,0.0,0.0,0.0,0.0,0.0,0.0,0.0,0.0,0.0,0.0,0.0,0.0,0.0,0.0,0.0,0.0,0.0,0.0,0.0,0.0,2.1611,0.0,0.0,0.0,0.0,0.0,0.0,0.0,0.0,0.0,0.0,0.0,0.0,0.0,0.0,0.0,0.0,0.0,0.0,0.0,0.0,0.0,0.0,3.3295,3.3928,3.882,4.1776,4.2563,4.2131,4.183,4.1791,4.1784,4.0278,3.7157,0.0,0.0,0.0,0.0,0.0,0.0,0.0,0.0,0.0,0.0,0.0,0.0,0.0,0.0,0.0,0.0,0.0,0.0,0.0,0.0,0.0,0.0,0.0,0.0,0.0,0.0,2.242,2.2322,2.2752,0.0,0.0,0.0,0.0,0.0,0.0,0.0,0.0,0.0,0.0,3.0031,3.2963,3.1501,3.051,2.9994,2.9824,2.6463,2.4641,2.6829,2.6795,2.6703,0.0,0.0,0.0,0.0,0.0,0.0,0.0,0.0,0.0,0.0,0.0,0.0,0.0,0.0,0.0,0.0,0.0,0.0,0.0,0.0,0.0,0.0,0.0,0.0,0.0,0.0,0.0,2.5499,2.5478,0.0,0.0,0.0,0.0,0.0,0.0,0.0,0.0,0.0,0.0,0.0,3.1448,3.1613,0.0,0.0,0.0,0.0,0.0,0.0,0.0,0.0,0.0,0.0,0.0,0.0,3.4093,3.4768,3.9453,4.2064,4.2157,4.1983,4.1809,4.1626,4.1777,4.0685,3.8252,0.0,0.0,0.0,0.0,0.0,0.0,0.0,0.0,0.0,0.0,0.0,0.0,0.0,0.0,0.0,0.0,0.0,0.0,0.0,0.0,0.0,0.0,0.0,0.0,0.0,2.513,0.0,0.0,0.0,0.0,0.0,0.0,0.0,0.0,0.0,0.0,0.0,2.6201,2.8433,2.9368,3.0271,3.142,3.1179,3.1232,0.0,0.0,0.0,0.0,0.0,0.0,0.0,0.0,0.0,0.0,0.0,0.0,0.0,0.0,2.1581,1.8508,1.8304,1.8491,1.8225,0.0,0.0,0.0,0.0,0.0,0.0,0.0,0.0,0.0,0.0,0.0,0.0,0.0,0.0,2.8478,0.0,2.8351,0.0,0.0,0.0,0.0,0.0,0.0,0.0,0.0,3.1875,3.3324,3.4326,3.4341,3.4378,0.0,3.3477,3.1405,0.0,0.0,0.0,0.0,0.0,0.0,0.0,0.0,3.4724,3.5369,4.0093,4.2662,4.2762,4.2672,4.254,4.2376,4.2364,4.1732,4.0447,3.7444,3.5028,0.0,0.0,0.0,0.0,0.0,0.0,0.0,0.0,0.0,0.0,0.0,0.0,0.0,0.0,0.0,0.0,0.0,0.0,0.0,0.0,0.0,0.0,0.0,2.6374,0.0,0.0,0.0,0.0,0.0,0.0,0.0,0.0,0.0,2.5658,2.7097,2.8946,3.091,3.0856,3.062,3.0586,0.0,0.0,0.0,0.0,0.0,0.0,0.0,2.4756,2.4816,2.5213,2.5891,2.709,2.7493,2.727,2.6068,0.0,0.0,2.1069,2.0756,2.1048,2.0776,2.0937,2.0854,1.9988,2.015,2.0214,0.0,0.0,0.0,0.0,0.0,0.0,0.0,0.0,3.2482,3.1123,0.0,3.1121,0.0,0.0,0.0,0.0,0.0,3.1093,0.0,0.0,3.8021,3.9267,3.7043,3.6898,3.6862,3.6754,3.4474,3.3597,3.4005,3.3618,0.0,0.0,0.0,0.0,0.0,0.0,3.5255,3.6026,4.0752,4.3586,4.4306,4.4117,4.3994,4.3972,4.3617,4.3467,4.3506,4.0723,3.9107,3.8954,3.4373,0.0,0.0,0.0,0.0,0.0,0.0,0.0,0.0,0.0,0.0,0.0,0.0,0.0,0.0,0.0,0.0,0.0,0.0,0.0,0.0,2.7983,0.0,0.0,0.0,0.0,0.0,0.0,0.0,0.0,0.0,0.0,2.7413,2.9663,3.1694,3.2139,0.0,0.0,0.0,0.0,2.8925,2.484,2.3254,2.2915,2.3339,2.5332,2.7564,2.9692,0.0,0.0,3.3158,3.068,2.877,2.8263,2.7934,2.6776,2.4284,2.3052,2.2409,2.2371,2.244,2.2303,2.2289,2.2731,2.2913,3.1701,0.0,0.0,0.0,0.0,3.1655,3.3178,3.558,3.5624,3.5193,3.4461,3.5109,0.0,0.0,0.0,0.0,0.0,0.0,3.3809,3.5713,3.7242,3.8794,4.0414,4.0171,4.0388,4.0995,4.0053,3.9694,3.9851,3.9731,3.6578,3.0668,0.0,0.0,0.0,0.0,3.7025,3.9095,4.2168,4.3875,4.4106,4.4033,4.4048,4.4143,4.4114,4.422,4.4447,4.3237,4.1757,3.9981,3.7965,0.0,0.0,0.0,0.0,0.0,0.0,0.0,0.0,0.0,0.0,0.0,0.0,0.0,0.0,0.0,0.0,0.0,0.0,0.0,2.7742,2.9855,2.995,0.0,0.0,0.0,0.0,0.0,0.0,0.0,0.0,0.0,3.1027,3.0083,2.9452,0.0,0.0,2.7455,2.5942,2.7733,2.9303,2.9563,2.9338,0.0,3.1409,3.0547,2.9912,3.058,3.2576,3.3917,3.3414,3.3964,3.398,3.2367,3.1583,3.0453,2.8235,2.6814,2.6064,2.6012,2.6027,2.5864,2.5501,2.5528,2.5425,3.4745,3.424,3.2023,3.1984,3.3413,3.3499,3.4977,3.7394,3.7426,3.6847,3.5892,3.6866,3.5481,3.2381,3.2717,0.0,0.0,0.0,3.6003,3.8787,3.879,3.9988,4.2132,4.201,4.2159,4.2565,4.2381,4.2438,4.2643,4.1624,3.8925,3.4579,0.0,0.0,3.3807,3.6603,3.8825,4.0418,4.2738,4.3974,4.4005,4.4079,4.4136,4.4166,4.4476,4.4682,4.4788,4.462,4.382,4.233,4.0807,3.8272,0.0,0.0,0.0,0.0,0.0,0.0,0.0,0.0,0.0,0.0,0.0,2.8745,0.0,0.0,0.0,0.0,3.0233,2.9801,2.9736,3.0692,0.0,0.0,0.0,0.0,0.0,0.0,0.0,2.9419,3.0867,3.2073,3.2691,3.1427,3.0711,3.153,3.0372,2.9076,2.8021,0.0,3.1778,3.2054,3.2042,3.2417,3.3561,3.3101,3.285,3.3745,3.4905,3.5641,3.5359,3.6296,3.6528,3.5202,3.3748,3.2264,3.0941,2.9361,2.8042,2.7673,2.7585,2.7458,2.7126,2.7047,2.6878,3.7369,3.8011,3.2954,3.2385,3.4771,3.4768,3.6149,3.8367,3.8299,3.6938,3.495,3.72,3.6057,3.2469,3.3243,0.0,3.7068,3.7044,3.8717,4.1747,4.1752,4.2113,4.2749,4.2742,4.264,4.2481,4.2438,4.2725,4.3146,4.0924,3.9896,4.02,3.9823,3.8665,3.6999,3.8963,4.017,4.0413,4.2502,4.3733,4.401,4.4155,4.4225,4.4117,4.4662,4.4887,4.4807,4.5104,4.5286,4.5199,4.3022,4.1342,4.03,0.0,0.0,0.0,0.0,0.0,0.0,0.0,0.0,0.0,0.0,0.0,0.0,0.0,0.0,0.0,3.3232,0.0,3.3483,3.1183,0.0,0.0,0.0,2.9289,3.0527,3.0441,3.1743,3.548,0.0,0.0,3.3295,3.3505,3.4365,3.6707,3.6508,3.531,3.3019,3.4552,3.5344,3.3006,3.2788,3.2743,3.3157,3.4324,3.6,3.7702,3.8444,3.8152,3.7863,3.7578,3.7276,3.6837,3.4689,3.2811,3.2757,3.074,2.8908,2.799,2.7733,2.7648,2.7575,2.7549,2.7397,3.6323,3.7122,3.5803,3.6519,3.8506,3.8552,3.8907,3.9441,3.9471,3.9087,3.8537,3.9128,3.8949,3.8183,3.8201,3.8644,3.9373,3.9179,3.9871,4.1224,4.1281,4.1999,4.3274,4.3158,4.3384,4.3864,4.3699,4.367,4.377,4.3155,4.1954,4.0344,4.0077,3.8832,3.667,3.7194,3.8398,4.0159,4.0729,4.2035,4.4069,4.3897,4.3972,4.4383,4.4498,4.4578,4.4656,4.4953,4.5108,4.4991,4.4396,4.2873,4.0218,3.722,0.0,0.0,0.0,0.0,0.0,0.0,0.0,0.0,0.0,2.8665,2.6719,0.0,2.9746,0.0,3.401,3.6003,3.5259,3.5184,0.0,0.0,3.2518,3.2736,3.4429,3.5004,3.543,3.5826,3.5649,3.5641,3.6046,3.6101,3.7011,3.9386,3.6386,3.3582,3.2875,3.4977,3.6385,3.5734,3.6904,3.8086,3.767,3.7984,3.8345,3.8915,3.8745,3.846,3.8202,3.799,3.7641,3.6967,3.5463,3.4069,3.3268,3.145,3.0027,2.9297,2.8639,2.8027,2.77,2.7585,2.7562,3.6101,3.6746,3.7074,3.7944,3.9112,3.8787,3.8641,3.8588,3.8627,3.8652,3.8688,3.9053,3.9298,3.9445,3.9621,3.9824,4.0012,3.9803,4.0392,4.1605,4.1601,4.2413,4.3882,4.3787,4.3912,4.4214,4.4053,4.3981,4.3942,4.3881,4.3151,4.178,4.1696,4.044,3.8063,3.7047,3.7147,3.8354,3.9519,4.1336,4.377,4.3852,4.3455,4.2672,4.2783,4.2373,4.1409,4.1574,4.1695,4.1648,4.1648,4.0866,3.909,3.6754,3.4637,0.0,0.0,0.0,0.0,0.0,0.0,0.0,0.0,0.0,0.0,0.0,3.1247,3.1303,3.4951,3.6601,3.4892,3.515,3.5328,3.5092,3.5033,3.589,3.8042,3.8605,3.8647,3.827,3.8559,3.8828,3.8827,3.882,3.9148,4.018,3.8201,3.6537,3.6389,3.7368,3.8038,3.8231,3.9331,4.0067,3.9759,3.9489,3.9329,3.9318,3.9164,3.8929,3.8693,3.8586,3.8318,3.7586,3.6444,3.5313,3.4532,3.318,3.182,3.0754,3.0172,2.9396,2.8183,2.7892,2.7867,3.6221,3.6631,3.7351,3.7892,3.815,3.7436,3.7215,3.7328,3.7317,3.7357,3.745,3.8207,3.8556,3.8635,3.9215,3.9587,3.9739,3.957,4.0469,4.2144,4.2121,4.2886,4.4306,4.4325,4.4199,4.3974,4.3974,4.3953,4.3881,4.3829,4.3553,4.3157,4.3112,4.1867,3.9426,3.7447,3.6392,3.6248,3.8711,4.1001,4.2971,4.3048,4.201,3.9965,4.0184,3.941,3.7354,3.7384,3.7494,3.7543,3.7547,3.7718,3.8103,3.5914,3.4785,0.0,3.2243,0.0,0.0,0.0,0.0,0.0,0.0,0.0,0.0,3.3391,3.353,3.3827,3.5954,3.6481,3.4527,3.4387,3.5282,3.747,3.7777,3.8671,4.08,4.1112,4.1112,4.1112,4.1112,4.1114,4.1,4.11,4.0762,4.0156,4.021,4.0291,4.0667,4.0036,3.978,4.0407,4.038,4.0221,3.9898,3.9667,3.9588,3.9573,3.9535,3.946,3.921,3.9173,3.8997,3.8392,3.7419,3.6572,3.6203,3.5131,3.3835,3.2374,3.1972,3.1116,2.9053,2.846,2.828,3.5844,3.6505,3.7229,3.7569,3.7649,3.7482,3.7849,3.8554,3.8504,3.8519,3.8581,3.8762,3.8948,3.9126,3.9063,3.9153,3.9383,3.9151,3.9913,4.1482,4.1475,4.2328,4.3857,4.3913,4.3873,4.3835,4.3853,4.3845,4.382,4.3684,4.263,4.0733,4.0643,3.9276,3.678,0.0,0.0,0.0,3.8426,3.9871,4.0472,3.858,3.7404,3.7158,3.7536,0.0,3.6949,3.718,3.7306,3.7205,3.7205,0.0,0.0,0.0,0.0,0.0,0.0,0.0,0.0,0.0,0.0,0.0,3.5359,3.4445,3.4225,3.368,3.4165,3.619,3.6913,3.7864,3.9329,3.9589,3.9822,4.0234,4.033,4.0597,4.1066,4.1105,4.1105,4.1105,4.1105,4.1105,4.1107,4.1108,4.1031,4.0755,4.0404,4.0405,4.1009,4.0768,4.0642,4.0792,4.0643,4.0449,4.0204,4.0077,3.9962,3.9963,3.9786,3.9588,3.9358,3.9248,3.9126,3.8741,3.7996,3.7312,3.6954,3.596,3.5053,3.4374,3.3767,3.2431,2.9599,2.9093,2.9019,3.5674,0.0,3.6751,3.7246,0.0,3.7367,3.7587,3.8198,3.8165,3.8173,3.8206,3.8229,3.8342,3.8454,3.8285,3.8429,3.8811,3.9001,3.9887,4.1311,4.1678,4.2545,4.3796,4.3796,4.3796,4.3796,4.3796,4.3753,4.3693,4.3634,4.2983,4.1744,4.1695,4.1005,3.9699,3.9787,3.9266,3.8091,3.9121,4.0301,4.1503,4.0343,3.9108,3.8055,3.8244,0.0,0.0,0.0,0.0,0.0,0.0,0.0,0.0,3.7993,0.0,3.9347,3.8357,3.8362,3.983,3.9554,3.9911,4.1212,4.0574,3.9204,3.7189,3.779,3.8834,4.0098,3.99,4.0174,4.1371,4.1211,4.0987,4.0956,4.1004,4.1049,4.101,4.103,4.103,4.101,4.099,4.1011,4.1054,4.1034,4.0878,4.0586,4.0546,4.0527,4.0527,4.0445,4.0467,4.0867,4.0771,4.0619,4.0468,4.0345,4.0234,4.0177,4.0035,3.9862,3.9728,3.9628,3.9458,3.919,3.8795,3.8422,3.8055,3.7513,3.6841,3.5979,3.5448,3.4308,3.1712,3.0695,3.0005,3.5552,3.6139,3.6404,3.7092,3.7953,3.7428,3.7312,3.7515,0.0,0.0,0.0,3.756,3.7569,3.7569,3.7524,3.7854,3.8508,3.9056,4.0075,4.1486,4.2095,4.2826,4.3625,4.3644,4.3625,4.3635,4.3644,4.3609,4.3582,4.3582,4.3566,4.3515,4.3488,4.3488,4.3488,4.3489,4.2508,4.06,4.0046,4.0713,4.2601,4.2254,4.1042,3.8947,3.9081,3.833,3.655,3.657,3.6758,3.7031,3.7071,3.7344,3.7859,3.7948,3.8205,3.8716,3.8764,3.981,4.2119,4.2343,4.3339,4.5638,4.52,4.3505,4.049,4.2179,4.3401,4.345,4.2812,4.2396,4.2396,4.1798,4.1358,4.1348,4.1395,4.1441,4.1402,4.1401,4.1521,4.1363,4.1463,4.1315,4.128,4.1264,4.0919,4.0384,4.0717,4.0955,4.0312,4.019,4.0395,4.0904,4.0883,4.0764,4.0665,4.0537,4.0419,4.0368,4.0229,4.0122,4.01,4.0025,3.9846,3.9632,3.9586,3.9383,3.9083,3.8894,3.8537,3.7293,3.6993,3.6363,3.435,3.2828,3.1514,3.5276,3.5466,3.6777,3.7424,3.7633,3.8141,3.8029,3.7516,3.7499,3.7505,3.7505,3.7514,3.7523,3.7506,3.7505,3.8097,3.9157,3.924,4.0336,4.2136,4.2274,4.2562,4.3004,4.3031,4.3013,4.3031,4.3041,4.3205,4.3479,4.3505,4.3496,4.3488,4.3488,4.3488,4.3479,4.3465,4.3256,4.2871,4.0566,3.9547,3.982,3.786,3.6626,3.6292,3.6706,3.6683,3.6339,3.6408,3.6369,3.6431,3.6577,3.7648,3.9737,4.0052,4.1172,4.3372,4.3605,4.3929,4.4551,4.4791,4.5143,4.5705,4.5687,4.4804,4.3002,4.3108,4.3314,4.3333,4.3303,4.3204,4.3152,4.311,4.2988,4.2987,4.3076,4.3133,4.3031,4.3072,4.305,4.299,4.3116,4.2765,4.2154,4.204,4.1752,4.1096,4.119,4.1059,4.0998,4.0975,4.1012,4.1071,4.1079,4.1017,4.0907,4.0717,4.0606,4.0549,4.0399,4.0272,4.0281,4.0157,4.0056,4.0002,3.9892,3.9734,3.9458,3.9421,3.9154,3.8578,3.8306,3.7669,3.6379,3.5159,3.366,3.6053,3.6449,3.6743,3.7105,3.7519,3.7864,3.7812,3.7545,3.7934,3.7612,3.6858,3.6858,3.685,3.6885,3.7306,3.7931,3.8671,3.9527,4.0507,4.1604,4.2038,4.235,4.2529,4.2777,4.291,4.291,4.3114,4.3303,4.3497,4.3463,4.3446,4.3446,4.3375,4.333,4.334,4.3304,4.3286,4.3259,4.204,4.1397,4.1343,4.0299,3.9657,3.9595,3.9802,3.9961,4.0099,3.9991,3.9998,4.0142,4.0339,4.0962,4.2066,4.243,4.3173,4.433,4.4437,4.4537,4.4806,4.5088,4.5285,4.5403,4.5548,4.5328,4.4572,4.4578,4.466,4.4643,4.4301,4.4059,4.3988,4.364,4.3391,4.3337,4.3657,4.3742,4.349,4.3703,4.3745,4.3448,4.339,4.3258,4.2901,4.2849,4.2774,4.2396,4.2349,4.222,4.1821,4.1761,4.1618,4.1248,4.1167,4.1138,4.1069,4.0972,4.0867,4.0818,4.0607,4.0484,4.0454,4.0341,4.0211,4.0199,4.0101,3.9965,3.9819,3.9773,3.9592,3.9351,3.9157,3.86,3.762,3.6271,3.4501,3.687,3.7657,3.6898,3.7036,3.7737,3.7754,3.7657,3.7553,3.8116,3.7691,3.6691,3.6743,3.6628,3.6404,3.7312,3.7985,3.8509,3.9779,4.0697,4.1253,4.1991,4.2208,4.2084,4.2567,4.2777,4.2663,4.2995,4.3214,4.3313,4.3232,4.3251,4.3331,4.3251,4.3205,4.3205,4.3187,4.3178,4.3178,4.316,4.3114,4.3095,4.3058,4.2994,4.2919,4.2808,4.2911,4.3114,4.2958,4.2968,4.3266,4.3484,4.3619,4.3728,4.4044,4.424,4.424,4.424,4.4342,4.4565,4.4843,4.5,4.5055,4.5239,4.5395,4.5452,4.5589,4.573,4.5705,4.52,4.4871,4.4787,4.4276,4.3809,4.3875,4.4225,4.4355,4.4001,4.4279,4.4417,4.3943,4.3866,4.3873,4.3707,4.3674,4.3568,4.3397,4.3457,4.3205,4.2682,4.2563,4.2258,4.1655,4.1308,4.1171,4.1141,4.1104,4.1058,4.1022,4.0846,4.0723,4.0668,4.0533,4.0404,4.035,4.0266,4.0152,4.0115,4.0015,3.9846,3.9647,3.955,3.9214,3.8139,3.678,3.5155,3.7152,3.8278,3.7663,3.7812,3.837,3.8422,3.806,3.7536,3.7581,3.7553,3.7439,3.8088,3.7594,3.6611,3.7853,3.8727,3.9203,4.0024,4.0916,4.1829,4.2424,4.22,4.1503,4.2272,4.232,4.1789,4.2038,4.2472,4.2818,4.2713,4.2818,4.3187,4.3214,4.3205,4.3196,4.3114,4.3114,4.3114,4.2994,4.2975,4.3086,4.2984,4.2901,4.291,4.2718,4.2631,4.267,4.248,4.2552,4.292,4.316,4.3428,4.3753,4.3945,4.4028,4.4036,4.4028,4.4166,4.4472,4.4585,4.4732,4.4903,4.4943,4.5053,4.527,4.5328,4.5485,4.5654,4.5713,4.5642,4.568,4.5391,4.5221,4.5311,4.5337,4.5409,4.5443,4.561,4.5613,4.5591,4.5371,4.5307,4.4608,4.4473,4.4202,4.3675,4.3688,4.361,4.3352,4.3349,4.3078,4.2312,4.1693,4.1289,4.121,4.1143,4.1117,4.1082,4.1025,4.0943,4.0896,4.0792,4.0648,4.058,4.047,4.0323,4.0188,4.0076,4.0045,3.9892,3.9759,3.9484,3.8442,3.7243,3.5855,3.7779,3.8277,3.7574,3.7173,3.7116,3.7533,3.7539,3.7299,3.7774,3.7945,3.802,3.8734,3.8511,3.7628,3.866,3.9233,3.9427,4.0118,4.0672,4.1105,4.1316,4.1191,4.0943,4.1448,4.1717,4.1785,4.2111,4.2513,4.291,4.2901,4.2919,4.2995,4.3004,4.3031,4.3013,4.288,4.2785,4.2803,4.2621,4.2562,4.2619,4.2697,4.2642,4.2552,4.247,4.2419,4.2412,4.2414,4.2478,4.2674,4.3069,4.3372,4.3545,4.3836,4.3997,4.3997,4.3997,4.4064,4.4184,4.4309,4.4383,4.4471,4.4612,4.4707,4.4817,4.495,4.5136,4.5265,4.5552,4.5738,4.5723,4.5653,4.5665,4.5715,4.5653,4.5661,4.5723,4.5734,4.5738,4.5738,4.5738,4.5645,4.5344,4.5251,4.5108,4.4772,4.4729,4.4547,4.4169,4.4067,4.375,4.3133,4.2668,4.2122,4.1463,4.1171,4.1168,4.1147,4.1103,4.1055,4.1044,4.0962,4.0867,4.085,4.0665,4.0526,4.0428,4.0283,4.019,4.0063,3.9556,3.9114,3.8637,3.7378,3.6185,3.9073,3.9226,3.8207,3.7388,3.6932,3.7257,3.7507,3.7712,3.8116,3.835,3.8589,3.9148,3.924,3.9024,3.9533,3.9646,3.9518,4.0156,4.0485,4.0473,4.0578,4.059,4.0517,4.118,4.1466,4.1583,4.1997,4.2382,4.2625,4.2577,4.2604,4.2691,4.2624,4.2624,4.27,4.2581,4.2502,4.251,4.2369,4.2267,4.2236,4.2331,4.2361,4.2279,4.2236,4.2194,4.2187,4.2234,4.23,4.242,4.2922,4.3301,4.3414,4.3785,4.3997,4.3997,4.3997,4.3997,4.4005,4.4104,4.4142,4.4158,4.4295,4.4407,4.4491,4.465,4.4788,4.4927,4.5225,4.5436,4.5476,4.5548,4.5596,4.5577,4.5592,4.5628,4.57,4.5684,4.5688,4.5684,4.5696,4.5692,4.5685,4.5654,4.5595,4.5596,4.5615,4.5557,4.4998,4.4815,4.4555,4.3843,4.3711,4.3081,4.1816,4.1558,4.1462,4.119,4.1113,4.1131,4.1123,4.1079,4.1026,4.0972,4.0809,4.0676,4.0558,4.0429,4.0333,4.0185,3.9721,3.9214,3.919,3.7701,3.6709,4.1165,4.2031,4.0107,3.9093,3.9071,3.84,3.8549,3.9008,3.8537,3.8675,3.9278,3.938,3.9708,4.0138,4.0283,4.0048,3.9592,4.0109,4.0377,4.035,4.0689,4.0712,4.0407,4.167,4.1702,4.0813,4.1372,4.1633,4.1401,4.1326,4.1569,4.229,4.2036,4.1994,4.2308,4.2338,4.2308,4.229,4.2267,4.2156,4.1938,4.1927,4.2044,4.2225,4.2033,4.1917,4.1913,4.174,4.1842,4.2198,4.2657,4.3014,4.3397,4.3785,4.3989,4.3989,4.3989,4.3997,4.3989,4.3997,4.4023,4.4013,4.4044,4.4128,4.4365,4.4416,4.4519,4.4757,4.4825,4.49,4.4948,4.5204,4.5338,4.5328,4.5371,4.547,4.5648,4.5617,4.568,4.5673,4.5688,4.5673,4.568,4.5693,4.5693,4.5695,4.568,4.563,4.5576,4.5565,4.5226,4.4715,4.436,4.3945,4.2534,4.2218,4.1906,4.1656,4.157,4.1288,4.123,4.1191,4.1146,4.1116,4.1032,4.0906,4.0691,4.0549,4.0479,4.0315,4.0059,3.9757,3.9443,3.8317,3.7307,4.1251,4.1634,4.0366,3.9539,3.9076,3.8817,3.8868,3.911,3.9343,3.9564,3.9801,3.986,3.9971,4.0159,4.0209,4.0098,3.9843,3.9673,3.9755,4.0082,3.9864,3.9885,4.0241,4.0719,4.0867,4.0671,4.085,4.1202,4.1563,4.1735,4.2005,4.2218,4.2166,4.2166,4.2238,4.2124,4.2033,4.203,4.1924,4.1795,4.1719,4.1697,4.1769,4.1845,4.1769,4.1708,4.1725,4.1885,4.2175,4.257,4.295,4.3345,4.3681,4.3816,4.3875,4.3875,4.3875,4.3875,4.3875,4.3857,4.3881,4.3937,4.3945,4.3989,4.4106,4.4151,4.4184,4.4282,4.4452,4.448,4.4426,4.4726,4.5019,4.4981,4.5005,4.505,4.5131,4.5269,4.5376,4.54,4.5516,4.5642,4.561,4.5631,4.5627,4.5633,4.5622,4.5627,4.5642,4.5646,4.5505,4.5353,4.5225,4.4887,4.3824,4.3222,4.2858,4.2579,4.2356,4.202,4.1855,4.1468,4.1362,4.1308,4.1248,4.1147,4.0928,4.0779,4.0682,4.0498,4.0242,3.9913,3.9467,3.8426,3.7477,4.2177,4.1858,4.1364,4.0886,4.0409,4.0155,4.0206,4.0409,4.0692,4.0798,4.0815,4.0811,4.0823,4.076,4.057,4.0455,4.0354,3.9723,3.9508,3.9677,3.9237,3.9271,3.9685,3.9865,4.0082,4.0334,4.0412,4.0837,4.1456,4.1651,4.1803,4.204,4.1966,4.1956,4.2009,4.1909,4.1805,4.1773,4.167,4.1604,4.1604,4.1604,4.1604,4.1626,4.1719,4.1805,4.1788,4.1941,4.2259,4.2753,4.3069,4.3424,4.3832,4.3826,4.3796,4.3796,4.3796,4.3796,4.3796,4.3796,4.381,4.3841,4.3875,4.3899,4.3918,4.3945,4.3937,4.3981,4.4109,4.417,4.4102,4.4329,4.4566,4.4657,4.4745,4.4788,4.48,4.4954,4.5058,4.5099,4.5285,4.5441,4.5481,4.5555,4.5586,4.5594,4.5594,4.5594,4.5594,4.5594,4.5603,4.5652,4.5611,4.5373,4.4828,4.4418,4.3634,4.3269,4.3011,4.2694,4.2454,4.2011,4.1674,4.1557,4.1422,4.1345,4.1199,4.1034,4.0843,4.0689,4.0474,4.0185,3.9462,3.8607,3.7882,4.4065,4.3389,4.3358,4.3135,4.2916,4.2337,4.2642,4.2916,4.2523,4.2269,4.2168,4.2249,4.2147,4.2049,4.1471,4.1191,4.1059,4.0413,3.9766,3.9254,3.9068,3.9022,3.9102,3.9462,3.9742,4.0007,4.0083,4.0524,4.1169,4.0919,4.1036,4.1464,4.1352,4.1408,4.1626,4.1648,4.1615,4.1626,4.1587,4.1604,4.1604,4.1604,4.1604,4.1648,4.192,4.2123,4.2146,4.1867,4.2113,4.2725,4.2839,4.3177,4.3757,4.381,4.3788,4.3761,4.3788,4.3788,4.3788,4.3779,4.3771,4.3777,4.3777,4.3786,4.381,4.381,4.3829,4.3835,4.3891,4.3897,4.3913,4.4005,4.4158,4.4374,4.4585,4.4688,4.4732,4.4776,4.4819,4.4853,4.5064,4.5194,4.5253,4.5361,4.5471,4.5534,4.5549,4.5568,4.5586,4.5594,4.5594,4.5594,4.5603,4.5481,4.555,4.5524,4.4619,4.3853,4.3612,4.3347,4.3265,4.2955,4.2553,4.2358,4.1983,4.1872,4.1517,4.1323,4.1018,4.0832,4.063,4.0437,3.9978,3.9313,3.8623,4.4448,4.4178,4.3609,4.3389,4.3372,4.3135,4.322,4.3457,4.3704,4.3572,4.3135,4.3051,4.2777,4.2354,4.2049,4.1912,4.1751,4.1057,4.0366,3.9783,3.9242,3.8951,3.8999,3.9478,3.9876,4.0087,4.0512,4.0824,4.1047,4.1163,4.1397,4.152,4.1464,4.1482,4.1593,4.1604,4.1604,4.1604,4.1604,4.1604,4.1604,4.1604,4.1604,4.1615,4.1729,4.1899,4.2177,4.235,4.2668,4.3177,4.3159,4.332,4.3607,4.3634,4.3583,4.3592,4.3583,4.3592,4.3583,4.3592,4.3635,4.3651,4.3659,4.3701,4.3788,4.3788,4.3788,4.3796,4.381,4.3837,4.3835,4.3881,4.3997,4.4106,4.4184,4.4279,4.4303,4.443,4.4599,4.477,4.488,4.4935,4.4932,4.5061,4.5163,4.5309,4.5314,4.5362,4.555,4.5573,4.5594,4.5594,4.5594,4.5594,4.5614,4.5633,4.5181,4.4592,4.4332,4.4159,4.405,4.3909,4.3508,4.3049,4.2678,4.2341,4.1992,4.1613,4.1324,4.0816,4.0456,4.0456,4.0626,3.9982,3.8912,4.3987,4.3982,4.3763,4.3662,4.3662,4.3662,4.3662,4.3743,4.4252,4.4187,4.374,4.3701,4.3465,4.2999,4.2695,4.2506,4.2343,4.1668,4.112,4.0546,3.9341,3.8911,3.8985,3.949,3.9846,4.007,4.0411,4.0822,4.122,4.1471,4.1604,4.1604,4.1604,4.1593,4.1604,4.1604,4.1604,4.1604,4.1604,4.1571,4.1538,4.1526,4.1504,4.1487,4.1646,4.1867,4.2105,4.2511,4.2913,4.3275,4.339,4.3488,4.3582,4.3549,4.3488,4.3488,4.3488,4.3488,4.3488,4.3496,4.3523,4.3548,4.3556,4.36,4.3669,4.3686,4.3667,4.3686,4.3711,4.3728,4.3736,4.381,4.3883,4.3921,4.3989,4.3997,4.4036,4.4143,4.4301,4.4452,4.4574,4.4638,4.4663,4.4776,4.4865,4.5009,4.5047,4.514,4.5357,4.5457,4.5485,4.5531,4.5594,4.5594,4.5594,4.5594,4.5594,4.5342,4.509,4.4974,4.4885,4.474,4.4437,4.3819,4.336,4.3071,4.2725,4.2089,4.1658,4.1027,4.0433,4.0007,3.9866,3.9309,3.8424,4.3074,4.3166,4.3814,4.4059,4.4059,4.4059,4.4042,4.4107,4.4239,4.4207,4.4102,4.4138,4.4123,4.3891,4.3333,4.3085,4.2925,4.2292,4.1896,4.1324,4.0033,3.9152,3.9249,3.9313,3.9459,3.9738,3.9893,4.0462,4.1192,4.1423,4.1582,4.1593,4.1604,4.1604,4.1604,4.1604,4.1604,4.1604,4.1593,4.1526,4.1414,4.1386,4.134,4.1243,4.1633,4.1842,4.1874,4.2322,4.2792,4.3222,4.3452,4.3573,4.3582,4.3531,4.3488,4.3488,4.3488,4.3488,4.3488,4.3488,4.3496,4.3496,4.3505,4.3488,4.3532,4.354,4.354,4.354,4.3565,4.359,4.3625,4.3719,4.3777,4.3829,4.3897,4.3968,4.4008,4.4005,4.4051,4.4079,4.4216,4.4364,4.4352,4.4526,4.4655,4.475,4.4756,4.4875,4.5058,4.5161,4.5288,4.5381,4.5476,4.5568,4.5559,4.5594,4.5594,4.5532,4.5393,4.5381,4.5395,4.5286,4.5012,4.4409,4.3962,4.3702,4.3407,4.2826,4.2158,4.154,4.0722,3.9706,3.9055,3.8725,3.8318,4.38,4.3829,4.4025,4.4097,4.4097,4.4097,4.4097,4.4097,4.4126,4.4126,4.4112,4.414,4.4126,4.4064,4.3882,4.3755,4.3468,4.2886,4.2468,4.2202,4.1258,4.0151,3.9395,3.8807,3.8798,3.9189,3.9646,4.0059,4.0386,4.0936,4.1317,4.1593,4.1604,4.1604,4.1604,4.1604,4.1604,4.1582,4.1493,4.1448,4.1386,4.1295,4.1232,4.1232,4.1351,4.1429,4.1463,4.2084,4.2646,4.3051,4.3408,4.3592,4.354,4.3496,4.3488,4.3488,4.3488,4.3488,4.3488,4.3488,4.3488,4.3488,4.3488,4.3488,4.3488,4.3488,4.3488,4.3496,4.3513,4.354,4.3531,4.3609,4.3676,4.3769,4.3826,4.3859,4.3859,4.3851,4.3851,4.3857,4.3932,4.3963,4.4003,4.4063,4.4191,4.4337,4.4401,4.4478,4.4701,4.4825,4.4919,4.5143,4.5272,4.5415,4.5513,4.5573,4.5594,4.5594,4.5532,4.5518,4.5548,4.5534,4.514,4.4634,4.4327,4.4071,4.3995,4.3687,4.2937,4.1797,4.0759,3.9638,3.9179,3.8785,3.8373,4.2716,4.3043,4.3309,4.361,4.386,4.3894,4.3894,4.3925,4.3983,4.3969,4.3923,4.3983,4.3983,4.3894,4.3862,4.3866,4.3711,4.3329,4.3088,4.285,4.2173,4.1144,3.9985,3.9049,3.8954,3.9438,3.941,3.9862,4.0517,4.0767,4.1082,4.1507,4.1604,4.1604,4.1604,4.1604,4.1604,4.1582,4.1471,4.138,4.1306,4.1221,4.114,4.11,4.1129,4.1163,4.1278,4.1903,4.2509,4.2949,4.3329,4.3531,4.3515,4.3488,4.3488,4.3488,4.3488,4.3488,4.3488,4.3488,4.3488,4.3488,4.3488,4.3488,4.3488,4.3488,4.3488,4.3488,4.3488,4.3488,4.3515,4.3549,4.3592,4.3652,4.3678,4.3703,4.3788,4.3804,4.3796,4.3783,4.3804,4.3786,4.3786,4.3786,4.3867,4.3992,4.4064,4.4203,4.4388,4.4457,4.4566,4.4794,4.4938,4.5041,4.5153,4.5225,4.5231,4.528,4.5171,4.5248,4.5349,4.5404,4.5274,4.4888,4.4665,4.4427,4.4214,4.3702,4.2496,4.1385,4.0453,3.9698,3.9141,3.8763,3.8336,4.0895,4.1555,4.2155,4.2769,4.328,4.3365,4.3328,4.3525,4.361,4.3662,4.3671,4.3793,4.3778,4.3615,4.3658,4.363,4.3613,4.3663,4.3754,4.35,4.297,4.2054,4.1157,3.99,3.9794,4.0127,3.9295,3.9753,4.0531,4.0572,4.0894,4.1312,4.1481,4.1604,4.1604,4.1604,4.1604,4.1571,4.1448,4.1318,4.1209,4.1117,4.1029,4.0953,4.1035,4.1123,4.1312,4.1792,4.237,4.2959,4.3286,4.3437,4.3444,4.347,4.3462,4.3479,4.3488,4.3488,4.3488,4.3488,4.3488,4.3488,4.3488,4.3488,4.3488,4.3488,4.3488,4.3488,4.3488,4.3488,4.3488,4.3515,4.3523,4.354,4.3523,4.3592,4.3711,4.3753,4.3753,4.3771,4.3753,4.3771,4.3756,4.3763,4.3761,4.3766,4.3808,4.3889,4.4011,4.4087,4.4242,4.4474,4.4553,4.4605,4.472,4.4826,4.4845,4.484,4.4618,4.4609,4.4769,4.4898,4.5133,4.4972,4.423,4.3979,4.4008,4.3185,4.2104,4.1369,4.0696,3.974,3.886,3.8606,3.8267,4.1278,4.144,4.1555,4.1726,4.1858,4.1891,4.2206,4.2752,4.2781,4.3127,4.3512,4.3641,4.3659,4.3615,4.3615,4.3615,4.3702,4.3993,4.4305,4.4506,4.3854,4.3645,4.2926,4.1386,4.0436,4.0474,3.9991,3.9666,3.9784,4.0553,4.0818,4.0845,4.1343,4.1604,4.1604,4.1593,4.1604,4.156,4.1374,4.1243,4.1186,4.1035,4.0935,4.0894,4.0935,4.1111,4.1362,4.1567,4.2064,4.2711,4.2995,4.3142,4.3375,4.3241,4.3232,4.3427,4.3488,4.3488,4.3488,4.3488,4.3488,4.3479,4.347,4.3488,4.3488,4.3479,4.3479,4.3488,4.3488,4.3488,4.3488,4.3488,4.3488,4.3488,4.3488,4.3523,4.3558,4.3566,4.3583,4.3575,4.3593,4.3584,4.3566,4.3576,4.357,4.3578,4.3594,4.36,4.3693,4.3792,4.4085,4.4408,4.4688,4.4819,4.4901,4.4857,4.4584,4.4373,4.409,4.3661,4.3821,4.4,4.4091,4.3906,4.3499,4.3401,4.34,4.3152,4.2171,4.1579,4.095,4.0184,3.9425,3.8914,3.8673,4.0613,4.0928,4.0928,4.111,4.1378,4.1428,4.1626,4.2009,4.2371,4.2702,4.3102,4.3414,4.3598,4.3615,4.3613,4.3686,4.3991,4.4375,4.4694,4.4787,4.4465,4.4585,4.4647,4.3315,4.2194,4.1874,4.0803,4.0326,4.0573,4.0544,4.0686,4.0922,4.1278,4.1452,4.1553,4.1549,4.1549,4.1531,4.1334,4.1209,4.1175,4.1006,4.0894,4.0894,4.0894,4.1018,4.1175,4.1429,4.1892,4.2396,4.2595,4.2873,4.3375,4.3304,4.3322,4.3436,4.3488,4.3488,4.3488,4.3479,4.3489,4.3445,4.3445,4.3455,4.3455,4.3464,4.3471,4.347,4.3488,4.3488,4.3488,4.3488,4.3488,4.3488,4.3488,4.3488,4.3488,4.3488,4.3488,4.3488,4.3496,4.3496,4.3488,4.3598,4.3598,4.3671,4.3643,4.3668,4.3769,4.391,4.423,4.4564,4.492,4.5142,4.521,4.4974,4.4423,4.4037,4.3544,4.2902,4.2493,4.2685,4.2883,4.281,4.2839,4.2532,4.2472,4.2282,4.2025,4.1243,4.063,4.0426,4.0217,3.9812,3.9713,3.9663,4.023,4.023,4.0578,4.103,4.103,4.1094,4.1359,4.1891,4.2123,4.2487,4.3118,4.3317,4.3416,4.3565,4.3877,4.4293,4.468,4.491,4.5037,4.515,4.5308,4.5341,4.4828,4.4255,4.3824,4.2275,4.1823,4.1737,4.1354,4.1325,4.1503,4.1475,4.1637,4.1681,4.1448,4.1419,4.1475,4.1312,4.1209,4.1186,4.1018,4.093,4.0894,4.0894,4.0977,4.1146,4.1396,4.1767,4.2239,4.2318,4.2741,4.3241,4.3418,4.3471,4.3462,4.3488,4.3488,4.3488,4.3479,4.3471,4.3412,4.3403,4.3394,4.3385,4.3367,4.3375,4.341,4.341,4.3418,4.3436,4.3418,4.3445,4.3471,4.348,4.3544,4.3663,4.3671,4.3726,4.3488,4.3524,4.3551,4.3745,4.3892,4.3828,4.3809,4.38,4.3855,4.402,4.424,4.4707,4.4926,4.5317,4.5103,4.5105,4.4261,4.3828,4.3632,4.3073,4.2441,4.1699,4.1718,4.2028,4.2304,4.2265,4.1919,4.1558,4.1359,4.102,4.0535,4.0473,4.0435,4.0514,4.0665,4.0574,3.9381,3.9481,3.9481,3.9547,3.965,3.9666,4.0047,4.0528,4.076,4.1077,4.1659,4.2355,4.2686,4.2804,4.3367,4.3846,4.4316,4.479,4.5169,4.5472,4.5722,4.598,4.5898,4.5788,4.5571,4.5165,4.3894,4.3019,4.271,4.2682,4.2374,4.2276,4.2195,4.2224,4.2068,4.1655,4.1428,4.1525,4.1336,4.1197,4.1169,4.1169,4.1086,4.1056,4.1149,4.1337,4.1462,4.1542,4.1895,4.2691,4.2787,4.3105,4.3495,4.3397,4.336,4.3418,4.3488,4.3488,4.3497,4.3497,4.3472,4.3429,4.3385,4.3323,4.3278,4.3233,4.326,4.3269,4.3286,4.3269,4.3241,4.3396,4.3386,4.3412,4.3631,4.3832,4.4306,4.4452,4.4259,4.3938,4.38,4.3835,4.4239,4.4553,4.4646,4.4774,4.4883,4.4929,4.5048,4.5259,4.5571,4.57,4.5782,4.5332,4.4909,4.3722,4.2933,4.3016,4.2664,4.2284,4.1635,4.1185,4.1262,4.1915,4.1671,4.103,4.0734,4.06,4.0569,4.0512,4.05,4.0508,4.0553,4.0604,4.0615,3.9315,3.9315,3.9315,3.9315,3.9315,3.9315,3.9497,3.9862,4.0243,4.0578,4.1011,4.1577,4.1924,4.2109,4.2688,4.3561,4.4481,4.5092,4.5503,4.5905,4.611,4.6165,4.6097,4.6085,4.5922,4.5591,4.494,4.4198,4.345,4.3264,4.3232,4.2978,4.2845,4.2869,4.2762,4.2194,4.1864,4.1806,4.1464,4.1181,4.1221,4.1394,4.1524,4.1605,4.2113,4.2539,4.2705,4.3023,4.344,4.4014,4.4151,4.4362,4.4519,4.4482,4.4117,4.3664,4.3516,4.348,4.3464,4.3446,4.3403,4.326,4.3251,4.3205,4.316,4.3151,4.3178,4.3215,4.3242,4.3388,4.3789,4.3798,4.4044,4.4428,4.4501,4.4711,4.5096,4.5251,4.5031,4.4737,4.4926,4.5081,4.5139,4.5397,4.5517,4.5691,4.5911,4.6003,4.6067,4.6269,4.6452,4.6067,4.5975,4.559,4.4993,4.3943,4.2894,4.2777,4.2608,4.2199,4.1813,4.1485,4.1624,4.2096,4.1442,4.0628,4.0526,4.0619,4.0558,4.0531,4.0516,4.0516,4.0496,4.0516,4.056,3.9315,3.9315,3.9315,3.9315,3.9315,3.9315,3.9315,3.9431,3.9912,4.016,4.0279,4.0876,4.1235,4.1502,4.2219,4.3236,4.4496,4.4949,4.538,4.563,4.5978,4.6053,4.6002,4.5952,4.5833,4.5637,4.5511,4.5213,4.4509,4.4065,4.3792,4.3713,4.3611,4.3501,4.3452,4.2826,4.2597,4.2274,4.1776,4.1325,4.1406,4.1955,4.2349,4.238,4.3436,4.3971,4.3927,4.4314,4.4671,4.5043,4.5266,4.5484,4.5801,4.5883,4.5177,4.4003,4.3755,4.3611,4.3385,4.3349,4.3287,4.3151,4.3114,4.3077,4.3058,4.3077,4.3159,4.3296,4.3415,4.3788,4.4388,4.457,4.4853,4.5236,4.5464,4.5657,4.5862,4.6037,4.6184,4.6103,4.6267,4.6221,4.6149,4.6214,4.635,4.6753,4.6984,4.6938,4.7021,4.7177,4.714,4.6443,4.6058,4.5773,4.5214,4.449,4.364,4.3231,4.3021,4.2711,4.2306,4.1913,4.2161,4.2334,4.1536,4.0862,4.0764,4.0817,4.0945,4.0953,4.0684,4.0523,4.0508,4.0512,4.0519,3.9315,3.9315,3.9315,3.9315,3.9315,3.9315,3.9315,3.9332,3.9475,3.9431,3.9714,4.0218,4.0711,4.1168,4.2066,4.2651,4.321,4.3924,4.4461,4.4713,4.5373,4.5732,4.5786,4.5838,4.5731,4.5594,4.5581,4.5511,4.5161,4.4996,4.5031,4.4889,4.4414,4.4186,4.4167,4.3494,4.3143,4.3056,4.245,4.1928,4.1911,4.2899,4.331,4.3523,4.4063,4.4699,4.4835,4.5258,4.5528,4.5533,4.5761,4.5874,4.5893,4.5837,4.5361,4.4757,4.4382,4.4099,4.3506,4.3378,4.3442,4.3395,4.3313,4.3085,4.3256,4.3264,4.3473,4.3961,4.3999,4.4381,4.5034,4.5195,4.5344,4.5574,4.5858,4.6162,4.6477,4.6717,4.6882,4.7004,4.7011,4.7021,4.6994,4.7084,4.721,4.7662,4.7957,4.7783,4.7489,4.7269,4.7085,4.6223,4.548,4.5131,4.4911,4.4278,4.3985,4.3524,4.3341,4.3121,4.2854,4.2551,4.2501,4.2426,4.174,4.1732,4.2121,4.2121,4.1753,4.1475,4.1325,4.0945,4.0527,4.055,4.0858,3.9315,3.9315,3.9315,3.9315,3.9315,3.9315,3.9315,3.9352,3.955,3.9872,4.0176,4.026,4.0626,4.12,4.1707,4.2275,4.2813,4.3301,4.3621,4.3974,4.4679,4.5122,4.518,4.5454,4.5602,4.5477,4.5489,4.5463,4.541,4.5414,4.5414,4.5345,4.51,4.4928,4.4816,4.419,4.3922,4.3654,4.3168,4.2623,4.263,4.3241,4.3928,4.4064,4.5063,4.5736,4.624,4.6747,4.6983,4.7031,4.7213,4.7241,4.7221,4.7127,4.6777,4.5921,4.5793,4.5173,4.4106,4.387,4.3959,4.4265,4.4299,4.437,4.4268,4.4232,4.4277,4.4721,4.4775,4.5164,4.578,4.5961,4.6307,4.6501,4.6513,4.6791,4.7151,4.7316,4.7521,4.7644,4.7639,4.7342,4.7163,4.7197,4.7123,4.7246,4.733,4.7074,4.6553,4.5984,4.5819,4.5562,4.4856,4.4259,4.4093,4.3764,4.3782,4.3506,4.3506,4.3341,4.3359,4.3205,4.3066,4.3193,4.31,4.3224,4.3557,4.2979,4.2208,4.2078,4.2033,4.1709,4.1468,4.1889,4.2089,3.9191,3.9175,3.9258,3.9315,3.9315,3.9315,3.9431,3.9621,3.9787,4.0288,4.075,4.0654,4.0833,4.1281,4.1433,4.1818,4.2541,4.2688,4.2923,4.3397,4.388,4.4205,4.439,4.4824,4.517,4.5152,4.5354,4.5393,4.541,4.5414,4.5414,4.5414,4.5328,4.5345,4.5277,4.5048,4.4763,4.4399,4.4225,4.3784,4.3526,4.4359,4.4902,4.5457,4.622,4.7157,4.7717,4.8,4.8194,4.8185,4.813,4.8038,4.8025,4.7865,4.743,4.6708,4.6458,4.6037,4.5165,4.4792,4.488,4.5103,4.5291,4.5065,4.5146,4.5291,4.5472,4.5544,4.558,4.6033,4.6566,4.6783,4.6993,4.7311,4.751,4.7715,4.7793,4.7715,4.7435,4.7157,4.706,4.6906,4.6847,4.7049,4.7034,4.6939,4.6732,4.6358,4.5828,4.5159,4.5077,4.5049,4.4746,4.4094,4.3699,4.3534,4.3497,4.3488,4.3479,4.3488,4.3451,4.3477,4.3398,4.3656,4.3894,4.3908,4.3755,4.3171,4.2636,4.2571,4.253,4.2608,4.2669,4.3051,4.3085,3.8832,3.8843,3.9161,3.9285,3.9285,3.9315,3.9683,4.002,3.9955,4.0343,4.1001,4.1062,4.1512,4.1624,4.1599,4.147,4.147,4.1972,4.219,4.2483,4.2931,4.3269,4.3555,4.3957,4.4462,4.4591,4.4958,4.5255,4.5414,4.5414,4.5414,4.5414,4.5414,4.5414,4.5568,4.5733,4.5563,4.536,4.5395,4.5206,4.5129,4.581,4.6786,4.6891,4.7559,4.8193,4.8258,4.8277,4.8305,4.8305,4.8295,4.8228,4.8148,4.8078,4.7577,4.7074,4.6811,4.6527,4.6164,4.5602,4.5329,4.5309,4.5454,4.5653,4.5725,4.5472,4.5671,4.6313,4.6395,4.6729,4.7254,4.7616,4.7554,4.7609,4.7689,4.7728,4.7749,4.7731,4.7397,4.6806,4.6591,4.6624,4.6396,4.6571,4.6243,4.6076,4.5578,4.5204,4.5341,4.4885,4.4803,4.4748,4.4665,4.4196,4.3627,4.3489,4.347,4.347,4.3489,4.3479,4.3488,4.3513,4.3539,4.3556,4.3691,4.3822,4.3907,4.3453,4.3105,4.302,4.3073,4.3415,4.3494,4.3644,4.3532,3.875,3.9074,3.9182,3.9145,3.901,3.9218,3.9262,3.9292,3.9863,4.0763,4.1725,4.2753,4.3063,4.2644,4.2109,4.1858,4.1764,4.1398,4.1466,4.1633,4.2045,4.2413,4.2711,4.3224,4.3845,4.4225,4.4626,4.5044,4.5363,4.538,4.5397,4.5414,4.5414,4.5667,4.5912,4.6266,4.6312,4.6347,4.6382,4.6239,4.6061,4.6236,4.6933,4.7185,4.7259,4.7856,4.8195,4.8296,4.8286,4.8257,4.8237,4.8158,4.8067,4.7978,4.7722,4.7329,4.7184,4.7174,4.7055,4.654,4.6269,4.6729,4.6801,4.6721,4.6584,4.6721,4.6866,4.7164,4.7182,4.7381,4.7544,4.7689,4.7681,4.7689,4.7743,4.7779,4.7852,4.7942,4.7699,4.7221,4.6879,4.6692,4.6361,4.6059,4.5598,4.5142,4.458,4.4226,4.4554,4.4719,4.4674,4.4611,4.4538,4.4336,4.3806,4.3612,4.3508,4.3535,4.3572,4.3534,4.357,4.3488,4.3505,4.3488,4.3496,4.3649,4.373,4.3697,4.3613,4.3558,4.3956,4.4504,4.449,4.4321,4.4044,3.8472,3.8841,3.9085,3.9192,3.9209,3.9441,3.9441,3.9412,4.007,4.1072,4.2254,4.3277,4.3449,4.2802,4.2178,4.1785,4.1554,4.1235,4.0993,4.1136,4.1429,4.1642,4.1935,4.2401,4.3039,4.3655,4.4242,4.4643,4.4962,4.5259,4.538,4.5414,4.5423,4.5641,4.5887,4.6447,4.6817,4.7066,4.7095,4.7028,4.6763,4.6983,4.7158,4.7479,4.7599,4.7801,4.8205,4.8315,4.8286,4.8237,4.8207,4.8117,4.7996,4.7884,4.784,4.7749,4.7689,4.7689,4.7526,4.7337,4.712,4.7417,4.7544,4.7572,4.7689,4.7689,4.7526,4.758,4.7652,4.7707,4.7725,4.7689,4.7689,4.7707,4.8159,4.8286,4.8431,4.8503,4.8105,4.7689,4.7347,4.6915,4.6108,4.5759,4.5655,4.5263,4.4992,4.4667,4.4668,4.4751,4.4617,4.4563,4.4482,4.4272,4.4017,4.4282,4.4444,4.4032,4.4013,4.3735,4.367,4.3625,4.3524,4.3488,4.3505,4.3539,4.365,4.3777,4.3975,4.4135,4.4518,4.4846,4.5088,4.4882,4.4645,3.7943,3.8044,3.8851,3.951,3.9944,4.0058,4.0353,4.0581,4.0737,4.1245,4.208,4.195,4.1978,4.2025,4.175,4.1456,4.1293,4.1062,4.0894,4.0963,4.1032,4.1015,4.124,4.1693,4.2211,4.2452,4.3345,4.419,4.4436,4.51,4.5359,4.5414,4.541,4.5524,4.5528,4.5988,4.6701,4.7453,4.7569,4.7542,4.758,4.7814,4.7981,4.8029,4.8058,4.8168,4.826,4.8315,4.8286,4.8228,4.8187,4.8088,4.7949,4.7884,4.7801,4.7699,4.7689,4.7689,4.7671,4.7663,4.7652,4.7671,4.7689,4.7689,4.7689,4.7689,4.7815,4.7924,4.7888,4.787,4.7797,4.7844,4.7989,4.7996,4.8467,4.8521,4.863,4.8594,4.8123,4.7833,4.7598,4.7174,4.6142,4.5472,4.5617,4.55,4.5345,4.5184,4.5024,4.49,4.4803,4.4786,4.4732,4.476,4.4762,4.5278,4.5361,4.4875,4.4564,4.4415,4.4111,4.3947,4.3818,4.3635,4.3505,4.3531,4.373,4.3952,4.4106,4.4239,4.4546,4.4862,4.521,4.5299,4.4896,3.7828,3.8226,3.8906,3.9519,3.9995,4.0066,4.0061,4.0029,4.0663,4.1431,4.2085,4.2298,4.2597,4.2541,4.2006,4.1569,4.1516,4.0998,4.0894,4.0894,4.0894,4.0912,4.1032,4.1205,4.155,4.2159,4.3103,4.3931,4.4345,4.5044,4.5359,4.5414,4.545,4.5786,4.634,4.6873,4.7485,4.7955,4.8055,4.8047,4.8065,4.8191,4.8277,4.8267,4.8267,4.8267,4.8315,4.8315,4.8248,4.8161,4.81,4.8,4.7858,4.7791,4.7759,4.7689,4.7689,4.7689,4.7689,4.7699,4.7699,4.7725,4.7707,4.7707,4.7725,4.7707,4.796,4.8359,4.8485,4.8684,4.9195,4.9304,4.9275,4.8684,4.8721,4.8395,4.8304,4.8177,4.7942,4.7797,4.7598,4.758,4.6928,4.6413,4.6377,4.6196,4.6069,4.5671,4.5429,4.5284,4.5169,4.5169,4.5161,4.5261,4.5475,4.5967,4.5981,4.5469,4.5352,4.5379,4.5021,4.4525,4.4397,4.4378,4.3919,4.3539,4.382,4.4058,4.4128,4.4296,4.4479,4.4807,4.5181,4.5111,4.4744,3.8298,3.8643,3.9028,3.967,4.0341,4.0385,4.0265,4.0268,4.0866,4.1434,4.1955,4.2309,4.2327,4.2171,4.1918,4.1624,4.1555,4.117,4.0894,4.0894,4.0894,4.0894,4.0894,4.0929,4.1176,4.1814,4.2689,4.35,4.3914,4.4928,4.5345,4.5414,4.5441,4.5841,4.643,4.6879,4.7295,4.7723,4.7945,4.7965,4.7967,4.8025,4.8025,4.8043,4.8063,4.8113,4.8248,4.8267,4.8219,4.8092,4.801,4.7929,4.7804,4.7728,4.7699,4.7689,4.7689,4.7689,4.7689,4.7689,4.7815,4.8177,4.7906,4.787,4.8033,4.8214,4.8648,4.9028,4.9264,4.9601,5.0028,5.0191,4.9919,4.9318,4.9372,4.9065,4.9057,4.9021,4.8786,4.855,4.7996,4.7942,4.7725,4.7616,4.7355,4.7102,4.6848,4.6377,4.5979,4.5943,4.5906,4.5943,4.6043,4.6263,4.6418,4.6622,4.6476,4.6064,4.609,4.6195,4.5718,4.5214,4.5159,4.5122,4.4846,4.4542,4.4164,4.416,4.4326,4.4302,4.4232,4.4598,4.5079,4.4954,4.4631,3.9176,3.9206,3.9235,4.001,4.0964,4.0871,4.1202,4.1812,4.1221,4.1388,4.1987,4.1383,4.1366,4.1136,4.0998,4.0986,4.1003,4.0929,4.0912,4.0894,4.0894,4.0894,4.0894,4.0912,4.1003,4.1464,4.2223,4.3069,4.3379,4.4721,4.538,4.5414,4.5414,4.5727,4.6075,4.6315,4.6816,4.7435,4.7611,4.7671,4.7733,4.7695,4.7733,4.7764,4.7826,4.8025,4.8181,4.8305,4.8229,4.8159,4.8052,4.7949,4.7855,4.777,4.7728,4.7689,4.7689,4.7689,4.7725,4.7725,4.8159,4.854,4.8304,4.8377,4.8666,4.8974,4.9383,4.9836,5.0126,5.0209,5.0354,5.03,5.0209,5.0264,5.0524,5.0488,5.0542,5.0408,5.0119,4.963,4.8822,4.8377,4.7833,4.7689,4.7689,4.7554,4.7301,4.7265,4.6975,4.7065,4.7047,4.7083,4.7228,4.7428,4.7482,4.7239,4.7156,4.6787,4.683,4.6857,4.6357,4.603,4.5948,4.5911,4.5865,4.5571,4.5001,4.4715,4.4654,4.458,4.4642,4.4474,4.4972,4.4868,4.4617,3.9176,3.9295,4.0219,4.0517,4.0417,4.0736,4.1021,4.121,4.1486,4.1849,4.1987,4.178,4.1573,4.1654,4.1159,4.0981,4.0894,4.0894,4.0894,4.0894,4.0894,4.0894,4.0894,4.0894,4.0894,4.1222,4.1878,4.2758,4.3436,4.4669,4.5397,4.5414,4.5414,4.555,4.5615,4.5654,4.6489,4.7097,4.7175,4.7313,4.7485,4.7538,4.7559,4.764,4.7856,4.8075,4.822,4.8287,4.8209,4.8062,4.8022,4.7939,4.7741,4.7728,4.7689,4.7689,4.7689,4.7707,4.7797,4.825,4.8721,4.9101,4.9184,4.9503,4.972,4.989,5.018,5.0626,5.097,5.1042,5.1151,5.1115,5.0843,5.0807,5.0916,5.0807,5.0716,5.0234,4.9956,4.9311,4.8558,4.825,4.7743,4.7689,4.7689,4.7689,4.7689,4.7689,4.7689,4.7689,4.7689,4.7689,4.7689,4.7689,4.7689,4.7518,4.7581,4.7591,4.7535,4.7498,4.7342,4.7045,4.6827,4.6672,4.6571,4.6195,4.5663,4.5488,4.5413,4.5432,4.5453,4.5053,4.4741,4.4765,4.4625,3.9649,3.9922,4.0459,4.0455,4.0209,4.0959,4.1205,4.1021,4.1383,4.1693,4.1987,4.1969,4.1861,4.1533,4.1366,4.121,4.0894,4.0894,4.0894,4.0894,4.0894,4.0894,4.0894,4.0894,4.0894,4.117,4.1671,4.2499,4.3367,4.4544,4.5414,4.5414,4.5414,4.5414,4.5423,4.5541,4.5978,4.6531,4.6833,4.6947,4.716,4.7356,4.7421,4.7632,4.7937,4.8075,4.8238,4.8267,4.8149,4.798,4.7968,4.7886,4.7738,4.7689,4.7996,4.7996,4.7833,4.8232,4.8623,4.8739,4.9228,4.9745,5.0282,5.0698,5.0807,5.0916,5.1224,5.1568,5.1719,5.1882,5.2027,5.2063,5.1622,5.1187,5.0988,5.0771,5.0282,4.9709,4.913,4.8521,4.8123,4.787,4.7689,4.7689,4.7689,4.7689,4.7689,4.7689,4.7689,4.7689,4.7689,4.7689,4.7689,4.7689,4.7689,4.7689,4.7694,4.7739,4.7775,4.7804,4.7989,4.7913,4.755,4.7359,4.726,4.6856,4.6461,4.6351,4.6296,4.6269,4.6085,4.567,4.5268,4.5031,4.4775,4.0436,4.0932,4.0396,4.0319,4.0327,4.1391,4.1464,4.0946,4.0963,4.1366,4.2021,4.2021,4.1745,4.1636,4.1585,4.1314,4.1021,4.0894,4.0894,4.0894,4.0894,4.0894,4.0894,4.0894,4.0894,4.1136,4.1567,4.2206,4.3327,4.4406,4.5186,4.538,4.5414,4.5414,4.5414,4.5414,4.5739,4.6045,4.6346,4.6525,4.684,4.6999,4.7122,4.7527,4.7715,4.7846,4.8092,4.8158,4.8088,4.7974,4.7899,4.784,4.793,4.7924,4.8322,4.854,4.8377,4.8666,4.922,4.9445,5.0053,5.0687,5.1368,5.1658,5.1719,5.1629,5.1864,5.2045,5.2172,5.2208,5.2299,5.1737,5.1205,5.0898,5.068,5.0397,4.9963,4.9438,4.8931,4.8359,4.7924,4.7689,4.7689,4.7689,4.7689,4.7689,4.7689,4.7689,4.7689,4.7689,4.7689,4.7689,4.7689,4.7689,4.7689,4.7689,4.7689,4.7741,4.7832,4.7886,4.7933,4.8072,4.8218,4.7973,4.7737,4.7636,4.7379,4.725,4.703,4.6783,4.6562,4.625,4.5916,4.5652,4.5158,4.1102,4.1716,4.1577,4.1511,4.1489,4.1254,4.1084,4.0894,4.0894,4.1636,4.262,4.2314,4.2176,4.2275,4.155,4.1159,4.0969,4.0894,4.0894,4.0894,4.0894,4.0894,4.0894,4.0894,4.0894,4.0929,4.1274,4.1964,4.3056,4.4074,4.4889,4.5311,4.538,4.541,4.5489,4.5489,4.5628,4.5887,4.6156,4.6501,4.6908,4.6999,4.7115,4.7569,4.7856,4.8043,4.8217,4.8177,4.8067,4.7933,4.792,4.8138,4.8568,4.8594,4.8721,4.892,4.9275,4.9438,4.9709,5.018,5.0814,5.1249,5.1785,5.2172,5.2353,5.2245,5.2245,5.2389,5.2498,5.2498,5.2226,5.1448,5.0879,5.0651,5.0379,5.0035,4.9709,4.9293,4.8822,4.8333,4.7852,4.7735,4.7735,4.7689,4.7689,4.7689,4.7689,4.7689,4.7689,4.7689,4.7689,4.7689,4.7689,4.7689,4.7689,4.7689,4.7689,4.7689,4.7759,4.7832,4.7914,4.8068,4.8208,4.8267,4.8168,4.8021,4.7966,4.8039,4.7801,4.7443,4.7315,4.7085,4.6902,4.6662,4.5985,4.0903,4.1504,4.1504,4.1504,4.1435,4.1067,4.0894,4.0894,4.0894,4.1567,4.2534,4.2228,4.2107,4.2349,4.1538,4.1072,4.0963,4.0894,4.0894,4.0894,4.0894,4.0894,4.0894,4.0894,4.0894,4.0929,4.1314,4.1987,4.2832,4.3815,4.4626,4.4996,4.5182,4.5502,4.5654,4.5757,4.5816,4.6107,4.6309,4.6672,4.7093,4.7226,4.7442,4.7887,4.8113,4.8247,4.8149,4.8108,4.7988,4.8045,4.8164,4.8796,4.9238,4.9438,4.9655,4.9872,5.009,5.0209,5.0506,5.0904,5.1502,5.1846,5.2082,5.2462,5.2462,5.2317,5.2009,5.2136,5.2426,5.2462,5.1937,5.1242,5.1097,5.0952,5.0463,5.001,4.9883,4.972,4.9202,4.8666,4.8289,4.8096,4.8002,4.7689,4.7689,4.7689,4.7689,4.7725,4.7707,4.7689,4.7689,4.7689,4.7689,4.7689,4.7689,4.7689,4.7689,4.7689,4.7689,4.7814,4.7927,4.8088,4.8198,4.8267,4.8305,4.8278,4.8278,4.8315,4.8315,4.7966,4.7984,4.8021,4.7791,4.7498,4.6957,4.048,4.0859,4.1021,4.0998,4.0894,4.0894,4.0894,4.0894,4.0912,4.1228,4.1814,4.1849,4.1469,4.1469,4.1469,4.1245,4.1055,4.0929,4.0894,4.0894,4.0894,4.0894,4.0894,4.0894,4.0894,4.105,4.1383,4.1866,4.2499,4.3465,4.4156,4.4471,4.5031,4.5615,4.5963,4.6094,4.6057,4.6261,4.6537,4.6959,4.7302,4.7601,4.7846,4.8103,4.8305,4.8226,4.8171,4.8126,4.8052,4.8384,4.8815,4.9467,4.9992,5.0264,5.0553,5.0789,5.085,5.1224,5.1622,5.1611,5.1984,5.2256,5.2426,5.2498,5.2498,5.2335,5.2027,5.1955,5.2245,5.2263,5.1737,5.1314,5.126,5.1097,5.0535,5.0064,5.0064,5.0082,4.9619,4.9083,4.888,4.8661,4.8418,4.8085,4.7935,4.7916,4.7815,4.7761,4.7743,4.7707,4.7689,4.7689,4.7689,4.7689,4.7689,4.7689,4.7689,4.7689,4.771,4.7835,4.7929,4.804,4.8149,4.8257,4.8286,4.8305,4.8315,4.8315,4.8315,4.8315,4.8278,4.8241,4.8186,4.7929,4.7819,4.077,4.0934,4.1521,4.1452,4.0963,4.0912,4.0894,4.0894,4.0894,4.1015,4.1136,4.1176,4.1245,4.1757,4.121,4.0969,4.0969,4.0894,4.0894,4.0894,4.0894,4.0894,4.0894,4.0894,4.0894,4.1015,4.1257,4.1809,4.2396,4.3138,4.4057,4.5014,4.5186,4.5476,4.5524,4.5662,4.5811,4.6124,4.6487,4.6825,4.7167,4.7482,4.7856,4.8094,4.8315,4.8581,4.8819,4.894,4.9242,4.955,4.98,5.0336,5.0771,5.1061,5.126,5.1459,5.152,5.1665,5.193,5.2063,5.2299,5.2389,5.2498,5.2498,5.2498,5.248,5.2136,5.1756,5.2027,5.2335,5.1955,5.1459,5.126,5.1006,5.0572,5.0354,5.0227,5.03,5.0173,4.9938,4.9811,4.9662,4.9522,4.9248,4.905,4.8941,4.8677,4.8586,4.8159,4.796,4.7808,4.7779,4.7815,4.7689,4.7689,4.7689,4.7689,4.7689,4.771,4.7804,4.7886,4.7951,4.8062,4.8198,4.8276,4.8287,4.8287,4.8315,4.8315,4.8315,4.8315,4.8296,4.8315,4.8278,4.8095]}]]